LiveATC.Net - Listen to live air traffic control over the Internet!
Airport/ARTCC Code
Frequency Search
(e.g., 124.400, 128.75)
Site-wide search
 


Browse Feeds
Top 50 Feeds
HF Oceanic Feeds
Coverage Map
Bad Weather Areas

LiveATC FAQ
Offer LiveATC feed
Contact LiveATC.net
Press Inquiries

LiveATC on iPhone
LiveATC on Android

LiveATC Mobile
(Mobile browser)

ATC Audio Archives
Interesting Recordings

LiveATC Forums

Home Page
About LiveATC.net


Terms of Use
Privacy Policy

AIRMETs/SIGMETs

FAA Airport Status
NAS Status
Arrival Demand


Server Software By:
Icecast.org
Liquidsoap

Select an area of interest:
U.S. Feeds: Class B Airports | Class C Airports | Class D/Other Airports | ARTCC (Centers)
International Feeds: Canada | Europe | Oceania | Asia | South America | North/Central America | Africa
Misc Feeds: HF Feeds
Search by ICAO/IATA airport code:   (e.g., kbos, kjfk, lax, eham, etc.)


Currently Available Live Feeds: 3128
Status Updated: Tue Sep 27 2022 02:46:39 UTC


NOTICE

Unauthorized use prohibited. See LiveATC.net Terms of Service

International Airport Feeds

 

EFJY Tower (Archives)
Jyvaskyla, Finland

Feed Status: UP
Listen in your browser - HTML5 player(in browser, HTML5)
Click here to listen with your own player(launches your MP3 player)

EFJY 270220Z AUTO 14006KT 9999 OVC002 07/06 Q1010

EFJY Flight Activity (Flightaware)

Listeners: 0 out of 1672 total

Jyvaskyla Tower: 118.000
Jyvaskyla Tower: 119.700

EFKU Tower/Approach (Archives)
Siilinjarvi, Finland

Feed Status: UP
Listen in your browser - HTML5 player(in browser, HTML5)
Click here to listen with your own player(launches your MP3 player)

EFKU 270220Z AUTO VRB02KT 9999 FEW006 08/07 Q1011

EFKU Flight Activity (Flightaware)

Listeners: 2 out of 1672 total

Kuopio Approach: 130.600
Kuopio Tower: 120.150

Dutch Mil Radar (Archives)
Amsterdam, Netherlands

Feed Status: UP
Listen in your browser - HTML5 player(in browser, HTML5)
Click here to listen with your own player(launches your MP3 player)

EHLE 270225Z AUTO 27006KT 9999 NSC 09/08 Q0995

EHLE Flight Activity (Flightaware)

Listeners: 1 out of 1672 total

Approach: 124.530
Dutch Mil Flight Info: 264.325
Dutch Mil Radar: 128.355
Dutch Mil Radar: 132.350

EHAA Radar ARTIP (Archives)
Amsterdam, Netherlands

Feed Status: UP
Listen in your browser - HTML5 player(in browser, HTML5)
Click here to listen with your own player(launches your MP3 player)

EHAM 270225Z 31006KT 9999 FEW027TCU 10/07 Q0996 NOSIG

EHAM Flight Activity (Flightaware)

Listeners: 0 out of 1672 total

EHAA Radar Sector 1 ARTIP: 120.550

EHAA Radar East Inbound
Amsterdam, Netherlands

Feed Status: DOWN
Offline since: 2022-03-16 17:45:38 UTC

EHAM 270225Z 31006KT 9999 FEW027TCU 10/07 Q0996 NOSIG

EHAA Radar Sector 2 East Inbound: 128.575

EHAA Radar East Outbound (Archives)
Amsterdam, Netherlands

Feed Status: UP
Listen in your browser - HTML5 player(in browser, HTML5)
Click here to listen with your own player(launches your MP3 player)

EHAM 270225Z 31006KT 9999 FEW027TCU 10/07 Q0996 NOSIG

EHAM Flight Activity (Flightaware)

Listeners: 3 out of 1672 total

EHAA Radar Sector 2 East Outbound: 124.875

EHAA Radar North
Amsterdam, Netherlands

Feed Status: DOWN
Offline since: 2022-03-10 10:29:38 UTC

EHAM 270225Z 31006KT 9999 FEW027TCU 10/07 Q0996 NOSIG

EHAA Radar Sector 1 North: 134.375

EHAA Radar Northwest (Archives)
Amsterdam, Netherlands

Feed Status: UP
Listen in your browser - HTML5 player(in browser, HTML5)
Click here to listen with your own player(launches your MP3 player)

EHAM 270225Z 31006KT 9999 FEW027TCU 10/07 Q0996 NOSIG

EHAM Flight Activity (Flightaware)

Listeners: 1 out of 1672 total

EHAA Radar Sector 5 Northwest: 123.705

EHAA Radar RIVER
Amsterdam, Netherlands

Feed Status: DOWN
Offline since: 2022-03-16 17:45:38 UTC

EHAM 270225Z 31006KT 9999 FEW027TCU 10/07 Q0996 NOSIG

EHAA Radar Sector 3 RIVER: 130.950

EHAA Radar South (Archives)
Amsterdam, Netherlands

Feed Status: UP
Listen in your browser - HTML5 player(in browser, HTML5)
Click here to listen with your own player(launches your MP3 player)

EHAM 270225Z 31006KT 9999 FEW027TCU 10/07 Q0996 NOSIG

EHAM Flight Activity (Flightaware)

Listeners: 0 out of 1672 total

EHAA Radar Sector 3 South: 123.850

EHAA Radar South (Backup) (Archives)
Amsterdam, Netherlands

Feed Status: UP
Listen in your browser - HTML5 player(in browser, HTML5)
Click here to listen with your own player(launches your MP3 player)

EHAM 270225Z 31006KT 9999 FEW027TCU 10/07 Q0996 NOSIG

EHAM Flight Activity (Flightaware)

Listeners: 0 out of 1672 total

EHAA Radar Sector 3 South Backup : 127.775

EHAA Radar Southwest (Archives)
Amsterdam, Netherlands

Feed Status: UP
Listen in your browser - HTML5 player(in browser, HTML5)
Click here to listen with your own player(launches your MP3 player)

EHAM 270225Z 31006KT 9999 FEW027TCU 10/07 Q0996 NOSIG

EHAM Flight Activity (Flightaware)

Listeners: 0 out of 1672 total

EHAA Radar Sector 4 Southwest: 125.750

EHAA Radar SUGOL (Archives)
Amsterdam, Netherlands

Feed Status: UP
Listen in your browser - HTML5 player(in browser, HTML5)
Click here to listen with your own player(launches your MP3 player)

EHAM 270225Z 31006KT 9999 FEW027TCU 10/07 Q0996 NOSIG

EHAM Flight Activity (Flightaware)

Listeners: 0 out of 1672 total

EHAA Radar Sector 5 SUGOL: 118.800

EHAM Airside Ops Mgr (AOM)
Amsterdam, Netherlands

Feed Status: DOWN
Offline since: 2022-03-16 17:45:38 UTC

EHAM 270225Z 31006KT 9999 FEW027TCU 10/07 Q0996 NOSIG

Schiphol Airside Operations Manager: 130.475

EHAM App/Dep Backup (Archives)
Amsterdam, Netherlands

Feed Status: UP
Listen in your browser - HTML5 player(in browser, HTML5)
Click here to listen with your own player(launches your MP3 player)

EHAM 270225Z 31006KT 9999 FEW027TCU 10/07 Q0996 NOSIG

EHAM Flight Activity (Flightaware)

Listeners: 0 out of 1672 total

Schiphol App/Dep Backup: 118.075

EHAM App/Dep TMA East (Archives)
Amsterdam, Netherlands

Feed Status: UP
Listen in your browser - HTML5 player(in browser, HTML5)
Click here to listen with your own player(launches your MP3 player)

EHAM 270225Z 31006KT 9999 FEW027TCU 10/07 Q0996 NOSIG

EHAM Flight Activity (Flightaware)

Listeners: 2 out of 1672 total

Amsterdam Approach/Departure TMA East: 119.055

EHAM App/Dep TMA West (Archives)
Amsterdam, Netherlands

Feed Status: UP
Listen in your browser - HTML5 player(in browser, HTML5)
Click here to listen with your own player(launches your MP3 player)

EHAM 270225Z 31006KT 9999 FEW027TCU 10/07 Q0996 NOSIG

EHAM Flight Activity (Flightaware)

Listeners: 0 out of 1672 total

Amsterdam Approach/Departure TMA West: 121.200

EHAM Apron (North) (Archives)
Amsterdam, Netherlands

Feed Status: UP
Listen in your browser - HTML5 player(in browser, HTML5)
Click here to listen with your own player(launches your MP3 player)

EHAM 270225Z 31006KT 9999 FEW027TCU 10/07 Q0996 NOSIG

EHAM Flight Activity (Flightaware)

Listeners: 0 out of 1672 total

Schiphol Apron (North): 121.880

EHAM Apron (South) (Archives)
Amsterdam, Netherlands

Feed Status: UP
Listen in your browser - HTML5 player(in browser, HTML5)
Click here to listen with your own player(launches your MP3 player)

EHAM 270225Z 31006KT 9999 FEW027TCU 10/07 Q0996 NOSIG

EHAM Flight Activity (Flightaware)

Listeners: 1 out of 1672 total

Schiphol Apron (South): 121.780

EHAM Arrival (Primary) (Archives)
Amsterdam, Netherlands

Feed Status: UP
Listen in your browser - HTML5 player(in browser, HTML5)
Click here to listen with your own player(launches your MP3 player)

EHAM 270225Z 31006KT 9999 FEW027TCU 10/07 Q0996 NOSIG

EHAM Flight Activity (Flightaware)

Listeners: 0 out of 1672 total

Amsterdam Arrival : 118.400

EHAM Arrival (Secondary)
Amsterdam, Netherlands

Feed Status: DOWN
Offline since: 2022-03-10 11:40:38 UTC

EHAM 270225Z 31006KT 9999 FEW027TCU 10/07 Q0996 NOSIG

Amsterdam Arrival (Secondary): 131.150

EHAM Arrival (Secondary/Backup)
Amsterdam, Netherlands

Feed Status: DOWN
Offline since: 2022-03-10 10:29:38 UTC

EHAM 270225Z 31006KT 9999 FEW027TCU 10/07 Q0996 NOSIG

Amsterdam Arrival (Secondary Backup): 131.275

EHAM Arrival Backup/Discrete (Archives)
Amsterdam, Netherlands

Feed Status: UP
Listen in your browser - HTML5 player(in browser, HTML5)
Click here to listen with your own player(launches your MP3 player)

EHAM 270225Z 31006KT 9999 FEW027TCU 10/07 Q0996 NOSIG

EHAM Flight Activity (Flightaware)

Listeners: 0 out of 1672 total

Schiphol Arrival Backup: 126.675

EHAM ATIS (Arrival)
Amsterdam, Netherlands

Feed Status: DOWN
Offline since: 2022-03-10 10:29:38 UTC

EHAM 270225Z 31006KT 9999 FEW027TCU 10/07 Q0996 NOSIG

Schiphol ATIS (Arrival): 132.980

EHAM ATIS (Departure) (Archives)
Amsterdam, Netherlands

Feed Status: UP
Listen in your browser - HTML5 player(in browser, HTML5)
Click here to listen with your own player(launches your MP3 player)

EHAM 270225Z 31006KT 9999 FEW027TCU 10/07 Q0996 NOSIG

EHAM Flight Activity (Flightaware)

Listeners: 0 out of 1672 total

Schiphol ATIS (Departure): 122.205

EHAM Clearance Delivery (Archives)
Amsterdam, Netherlands

Feed Status: UP
Listen in your browser - HTML5 player(in browser, HTML5)
Click here to listen with your own player(launches your MP3 player)

EHAM 270225Z 31006KT 9999 FEW027TCU 10/07 Q0996 NOSIG

EHAM Flight Activity (Flightaware)

Listeners: 0 out of 1672 total

Schiphol Clearance Delivery: 121.980

EHAM Ground (Backup) (Archives)
Amsterdam, Netherlands

Feed Status: UP
Listen in your browser - HTML5 player(in browser, HTML5)
Click here to listen with your own player(launches your MP3 player)

EHAM 270225Z 31006KT 9999 FEW027TCU 10/07 Q0996 NOSIG

EHAM Flight Activity (Flightaware)

Listeners: 0 out of 1672 total

Schiphol Ground (Backup): 122.425

EHAM Ground (North) (Archives)
Amsterdam, Netherlands

Feed Status: UP
Listen in your browser - HTML5 player(in browser, HTML5)
Click here to listen with your own player(launches your MP3 player)

EHAM 270225Z 31006KT 9999 FEW027TCU 10/07 Q0996 NOSIG

EHAM Flight Activity (Flightaware)

Listeners: 0 out of 1672 total

Schiphol Ground (North): 121.805

EHAM Ground (South) (Archives)
Amsterdam, Netherlands

Feed Status: UP
Listen in your browser - HTML5 player(in browser, HTML5)
Click here to listen with your own player(launches your MP3 player)

EHAM 270225Z 31006KT 9999 FEW027TCU 10/07 Q0996 NOSIG

EHAM Flight Activity (Flightaware)

Listeners: 0 out of 1672 total

Schiphol Ground (South): 121.705

EHAM Ground (West) (Archives)
Amsterdam, Netherlands

Feed Status: UP
Listen in your browser - HTML5 player(in browser, HTML5)
Click here to listen with your own player(launches your MP3 player)

EHAM 270225Z 31006KT 9999 FEW027TCU 10/07 Q0996 NOSIG

EHAM Flight Activity (Flightaware)

Listeners: 0 out of 1672 total

Schiphol Ground (West): 121.560

EHAM Info North Sea (North) (Archives)
Amsterdam, Netherlands

Feed Status: UP
Listen in your browser - HTML5 player(in browser, HTML5)
Click here to listen with your own player(launches your MP3 player)

EHAM 270225Z 31006KT 9999 FEW027TCU 10/07 Q0996 NOSIG

EHAM Flight Activity (Flightaware)

Listeners: 0 out of 1672 total

Amsterdam Info North Sea (North): 119.175

EHAM Info North Sea (Over Land) (Archives)
Amsterdam, Netherlands

Feed Status: UP
Listen in your browser - HTML5 player(in browser, HTML5)
Click here to listen with your own player(launches your MP3 player)

EHAM 270225Z 31006KT 9999 FEW027TCU 10/07 Q0996 NOSIG

EHAM Flight Activity (Flightaware)

Listeners: 0 out of 1672 total

Amsterdam Info North Sea (Over Land): 124.300

EHAM Info North Sea (South)
Amsterdam, Netherlands

Feed Status: DOWN
Offline since: 2022-03-10 10:29:38 UTC

EHAM 270225Z 31006KT 9999 FEW027TCU 10/07 Q0996 NOSIG

Amsterdam Info North Sea (South): 136.650

EHAM Schiphol Outbound Planner (Archives)
Amsterdam, Netherlands

Feed Status: UP
Listen in your browser - HTML5 player(in browser, HTML5)
Click here to listen with your own player(launches your MP3 player)

EHAM 270225Z 31006KT 9999 FEW027TCU 10/07 Q0996 NOSIG

EHAM Flight Activity (Flightaware)

Listeners: 0 out of 1672 total

Schiphol Outbound Planner: 121.655

EHAM Tow Traffic
Amsterdam, Netherlands

Feed Status: DOWN
Offline since: 2022-03-10 10:29:38 UTC

EHAM 270225Z 31006KT 9999 FEW027TCU 10/07 Q0996 NOSIG

Schiphol Tow Traffic: 134.875

EHAM Tower (06/24) (Archives)
Amsterdam, Netherlands

Feed Status: UP
Listen in your browser - HTML5 player(in browser, HTML5)
Click here to listen with your own player(launches your MP3 player)

EHAM 270225Z 31006KT 9999 FEW027TCU 10/07 Q0996 NOSIG

EHAM Flight Activity (Flightaware)

Listeners: 0 out of 1672 total

Schiphol Tower Main 06/24: 135.110

EHAM Tower (18C/36C-27/09) (Archives)
Amsterdam, Netherlands

Feed Status: UP
Listen in your browser - HTML5 player(in browser, HTML5)
Click here to listen with your own player(launches your MP3 player)

EHAM 270225Z 31006KT 9999 FEW027TCU 10/07 Q0996 NOSIG

EHAM Flight Activity (Flightaware)

Listeners: 0 out of 1672 total

Schiphol Tower Main 18C/36C - 27/09: 118.100

EHAM Tower (18L/36R-22/04) (Archives)
Amsterdam, Netherlands

Feed Status: UP
Listen in your browser - HTML5 player(in browser, HTML5)
Click here to listen with your own player(launches your MP3 player)

EHAM 270225Z 31006KT 9999 FEW027TCU 10/07 Q0996 NOSIG

EHAM Flight Activity (Flightaware)

Listeners: 0 out of 1672 total

Schiphol Tower Main 18L/36R - 22/04: 119.225

EHAM Tower Backup (Archives)
Amsterdam, Netherlands

Feed Status: UP
Listen in your browser - HTML5 player(in browser, HTML5)
Click here to listen with your own player(launches your MP3 player)

EHAM 270225Z 31006KT 9999 FEW027TCU 10/07 Q0996 NOSIG

EHAM Flight Activity (Flightaware)

Listeners: 0 out of 1672 total

Schiphol Tower Backup: 119.905

EHAM Tower West (18R/36L) (Archives)
Amsterdam, Netherlands

Feed Status: UP
Listen in your browser - HTML5 player(in browser, HTML5)
Click here to listen with your own player(launches your MP3 player)

EHAM 270225Z 31006KT 9999 FEW027TCU 10/07 Q0996 NOSIG

EHAM Flight Activity (Flightaware)

Listeners: 0 out of 1672 total

Schiphol Tower West 18R/36L: 118.280

EHBK ATIS (Archives)
Beek, Netherlands

Feed Status: UP
Listen in your browser - HTML5 player(in browser, HTML5)
Click here to listen with your own player(launches your MP3 player)

EHBK 270225Z AUTO 25007KT 210V300 9999 FEW003 SCT005 BKN006 FEW015CB 09/08 Q0998 REDZ

EHBK Flight Activity (Flightaware)

Listeners: 0 out of 1672 total

Beek ATIS: 124.575

EHBK Gnd/Twr/App (Archives)
Beek, Netherlands

Feed Status: UP
Listen in your browser - HTML5 player(in browser, HTML5)
Click here to listen with your own player(launches your MP3 player)

EHBK 270225Z AUTO 25007KT 210V300 9999 FEW003 SCT005 BKN006 FEW015CB 09/08 Q0998 REDZ

EHBK Flight Activity (Flightaware)

Listeners: 0 out of 1672 total

Beek Approach: 120.200
Beek Approach: 123.975
Beek Ground: 121.825
Beek Tower: 119.475
Beek Tower: 119.700

MUAC/Eurocontrol Delta High (Archives)
Beek, Netherlands

Feed Status: UP
Listen in your browser - HTML5 player(in browser, HTML5)
Click here to listen with your own player(launches your MP3 player)

EHBK 270225Z AUTO 25007KT 210V300 9999 FEW003 SCT005 BKN006 FEW015CB 09/08 Q0998 REDZ

EHBK Flight Activity (Flightaware)

Listeners: 0 out of 1672 total

MUAC Delta High Sector: 132.085

MUAC/Eurocontrol Koksy (Archives)
Beek, Netherlands

Feed Status: UP
Listen in your browser - HTML5 player(in browser, HTML5)
Click here to listen with your own player(launches your MP3 player)

EHBK 270225Z AUTO 25007KT 210V300 9999 FEW003 SCT005 BKN006 FEW015CB 09/08 Q0998 REDZ

EHBK Flight Activity (Flightaware)

Listeners: 0 out of 1672 total

MUAC Koksy Sector: 132.205

MUAC/Eurocontrol Koksy High (Archives)
Beek, Netherlands

Feed Status: UP
Listen in your browser - HTML5 player(in browser, HTML5)
Click here to listen with your own player(launches your MP3 player)

EHBK 270225Z AUTO 25007KT 210V300 9999 FEW003 SCT005 BKN006 FEW015CB 09/08 Q0998 REDZ

EHBK Flight Activity (Flightaware)

Listeners: 0 out of 1672 total

MUAC Koksy High Sector: 132.755

MUAC/Eurocontrol Lux High (Archives)
Beek, Netherlands

Feed Status: UP
Listen in your browser - HTML5 player(in browser, HTML5)
Click here to listen with your own player(launches your MP3 player)

EHBK 270225Z AUTO 25007KT 210V300 9999 FEW003 SCT005 BKN006 FEW015CB 09/08 Q0998 REDZ

EHBK Flight Activity (Flightaware)

Listeners: 0 out of 1672 total

MUAC Lux High Sector: 132.315

MUAC/Eurocontrol Lux Low (Archives)
Beek, Netherlands

Feed Status: UP
Listen in your browser - HTML5 player(in browser, HTML5)
Click here to listen with your own player(launches your MP3 player)

EHBK 270225Z AUTO 25007KT 210V300 9999 FEW003 SCT005 BKN006 FEW015CB 09/08 Q0998 REDZ

EHBK Flight Activity (Flightaware)

Listeners: 0 out of 1672 total

MUAC Lux Low Sector: 133.355

MUAC/Eurocontrol Olno Low (Archives)
Beek, Netherlands

Feed Status: UP
Listen in your browser - HTML5 player(in browser, HTML5)
Click here to listen with your own player(launches your MP3 player)

EHBK 270225Z AUTO 25007KT 210V300 9999 FEW003 SCT005 BKN006 FEW015CB 09/08 Q0998 REDZ

EHBK Flight Activity (Flightaware)

Listeners: 0 out of 1672 total

MUAC Olno Low Sector: 132.855

MUAC/Eurocontrol Ruhr (Archives)
Beek, Netherlands

Feed Status: UP
Listen in your browser - HTML5 player(in browser, HTML5)
Click here to listen with your own player(launches your MP3 player)

EHBK 270225Z AUTO 25007KT 210V300 9999 FEW003 SCT005 BKN006 FEW015CB 09/08 Q0998 REDZ

EHBK Flight Activity (Flightaware)

Listeners: 0 out of 1672 total

MUAC Ruhr Sector: 124.425

EHEH Approach #1 (Archives)
Eindhoven, Netherlands

Feed Status: UP
Listen in your browser - HTML5 player(in browser, HTML5)
Click here to listen with your own player(launches your MP3 player)

EHEH 270225Z AUTO 26008KT 220V300 9999 -DZ FEW015CB SCT036 BKN050 09/08 Q0998 BLU

EHEH Flight Activity (Flightaware)

Listeners: 1 out of 1672 total

DutchMil Info: 132.355
DutchMil Info UHF: 341.600
DutchMil RAPCON South: 123.180
Eindhoven Arrival: 125.530
Eindhoven Arrival (UHF): 265.975
Emergency/Guard: 121.500
Rapcon South UHF: 388.525
Volkel Arrival UHF: 291.200

EHEH Tower #1 (Archives)
Eindhoven, Netherlands

Feed Status: UP
Listen in your browser - HTML5 player(in browser, HTML5)
Click here to listen with your own player(launches your MP3 player)

EHEH 270225Z AUTO 26008KT 220V300 9999 -DZ FEW015CB SCT036 BKN050 09/08 Q0998 BLU

EHEH Flight Activity (Flightaware)

Listeners: 0 out of 1672 total

Eindhoven Tower: 131.005
Eindhoven Tower (UHF): 241.550
Generic Tower: 122.100
Generic Tower (UHF): 257.800
Volkel Tower: 136.080
Volkel Tower (UHF): 291.100

EHGG Approach (Archives)
Groningen, Netherlands

Feed Status: UP
Listen in your browser - HTML5 player(in browser, HTML5)
Click here to listen with your own player(launches your MP3 player)

EHGG 270225Z AUTO 27008KT 240V300 9999 SHRA FEW015CB SCT030 BKN048 09/08 Q0993 REDZ

EHGG Flight Activity (Flightaware)

Listeners: 0 out of 1672 total

Eelde Approach: 120.305

EHGG ATIS (Archives)
Groningen, Netherlands

Feed Status: UP
Listen in your browser - HTML5 player(in browser, HTML5)
Click here to listen with your own player(launches your MP3 player)

EHGG 270225Z AUTO 27008KT 240V300 9999 SHRA FEW015CB SCT030 BKN048 09/08 Q0993 REDZ

EHGG Flight Activity (Flightaware)

Listeners: 0 out of 1672 total

Groningen ATIS: 133.555

EHGG Ground (Archives)
Groningen, Netherlands

Feed Status: UP
Listen in your browser - HTML5 player(in browser, HTML5)
Click here to listen with your own player(launches your MP3 player)

EHGG 270225Z AUTO 27008KT 240V300 9999 SHRA FEW015CB SCT030 BKN048 09/08 Q0993 REDZ

EHGG Flight Activity (Flightaware)

Listeners: 0 out of 1672 total

Eelde Clearance Delivery/Ground: 121.705

EHGG Guard/Emergency (Archives)
Groningen, Netherlands

Feed Status: UP
Listen in your browser - HTML5 player(in browser, HTML5)
Click here to listen with your own player(launches your MP3 player)

EHGG 270225Z AUTO 27008KT 240V300 9999 SHRA FEW015CB SCT030 BKN048 09/08 Q0993 REDZ

EHGG Flight Activity (Flightaware)

Listeners: 0 out of 1672 total

Emergency/Guard: 121.500

EHGG Tower (Archives)
Groningen, Netherlands

Feed Status: UP
Listen in your browser - HTML5 player(in browser, HTML5)
Click here to listen with your own player(launches your MP3 player)

EHGG 270225Z AUTO 27008KT 240V300 9999 SHRA FEW015CB SCT030 BKN048 09/08 Q0993 REDZ

EHGG Flight Activity (Flightaware)

Listeners: 2 out of 1672 total

Eelde Tower: 118.705

EHGG Twr/App (Secondary) (Archives)
Groningen, Netherlands

Feed Status: UP
Listen in your browser - HTML5 player(in browser, HTML5)
Click here to listen with your own player(launches your MP3 player)

EHGG 270225Z AUTO 27008KT 240V300 9999 SHRA FEW015CB SCT030 BKN048 09/08 Q0993 REDZ

EHGG Flight Activity (Flightaware)

Listeners: 0 out of 1672 total

Eelde Tower/App (Backup): 119.705

MUAC/Eurocontrol (EHGG Area) (Archives)
Groningen, Netherlands

Feed Status: UP
Listen in your browser - HTML5 player(in browser, HTML5)
Click here to listen with your own player(launches your MP3 player)

EHGG 270225Z AUTO 27008KT 240V300 9999 SHRA FEW015CB SCT030 BKN048 09/08 Q0993 REDZ

EHGG Flight Activity (Flightaware)

Listeners: 0 out of 1672 total

MUAC Holstein High Sector: 132.775
MUAC Holstein Sector: 120.9333
MUAC Javer High Sector: 134.700
MUAC Jever Sector: 136.4666

EHGR Ground (Archives)
Breda, Netherlands

Feed Status: UP
Listen in your browser - HTML5 player(in browser, HTML5)
Click here to listen with your own player(launches your MP3 player)

EHGR 270225Z AUTO 25006KT 220V290 9999 -SHRA FEW015CB BKN043 OVC050 09/09 Q0998 REDZ BLU

EHGR Flight Activity (Flightaware)

Listeners: 0 out of 1672 total

Gilze Rijen Ground: 121.680

EHGR Ground/Tower (Archives)
Breda, Netherlands

Feed Status: UP
Listen in your browser - HTML5 player(in browser, HTML5)
Click here to listen with your own player(launches your MP3 player)

EHGR 270225Z AUTO 25006KT 220V290 9999 -SHRA FEW015CB BKN043 OVC050 09/09 Q0998 REDZ BLU

EHGR Flight Activity (Flightaware)

Listeners: 0 out of 1672 total

Gilze Rijen Ground: 121.680
Gilze Rijen Tower: 125.330

EHGR Tower (Archives)
Breda, Netherlands

Feed Status: UP
Listen in your browser - HTML5 player(in browser, HTML5)
Click here to listen with your own player(launches your MP3 player)

EHGR 270225Z AUTO 25006KT 220V290 9999 -SHRA FEW015CB BKN043 OVC050 09/09 Q0998 REDZ BLU

EHGR Flight Activity (Flightaware)

Listeners: 0 out of 1672 total

Gilze Rijen Tower: 125.330

EHHV CTAF (Archives)
Hilversum, Netherlands

Feed Status: UP
Listen in your browser - HTML5 player(in browser, HTML5)
Click here to listen with your own player(launches your MP3 player)

EHHV Flight Activity (Flightaware)

Listeners: 0 out of 1672 total

Hilversum Radio: 131.030

EHKD ATIS (Archives)
Den Helder, Netherlands

Feed Status: UP
Listen in your browser - HTML5 player(in browser, HTML5)
Click here to listen with your own player(launches your MP3 player)

EHKD 270225Z AUTO 31009KT 280V350 9999 SCT031 SCT130 12/06 Q0995 BLU

EHKD Flight Activity (Flightaware)

Listeners: 0 out of 1672 total

De Kooy ATIS: 133.015

EHKD Ground/Tower (Archives)
Den Helder, Netherlands

Feed Status: UP
Listen in your browser - HTML5 player(in browser, HTML5)
Click here to listen with your own player(launches your MP3 player)

EHKD 270225Z AUTO 31009KT 280V350 9999 SCT031 SCT130 12/06 Q0995 BLU

EHKD Flight Activity (Flightaware)

Listeners: 0 out of 1672 total

De Kooy Ground: 121.730
De Kooy Tower: 120.130

Approach/Dutch Mil Radar (Archives)
Lelystad, Netherlands

Feed Status: UP
Listen in your browser - HTML5 player(in browser, HTML5)
Click here to listen with your own player(launches your MP3 player)

EHLE 270225Z AUTO 27006KT 9999 NSC 09/08 Q0995

EHLE Flight Activity (Flightaware)

Listeners: 1 out of 1672 total

Approach: 124.530
Dutch Mil Flight Info: 264.325
Dutch Mil Radar: 128.355
Dutch Mil Radar: 132.350

EHLE App/Dep (Archives)
Lelystad, Netherlands

Feed Status: UP
Listen in your browser - HTML5 player(in browser, HTML5)
Click here to listen with your own player(launches your MP3 player)

EHLE 270225Z AUTO 27006KT 9999 NSC 09/08 Q0995

EHLE Flight Activity (Flightaware)

Listeners: 0 out of 1672 total

Lelystad Approach: 134.530

EHLE Clearance Delivery (Archives)
Lelystad, Netherlands

Feed Status: UP
Listen in your browser - HTML5 player(in browser, HTML5)
Click here to listen with your own player(launches your MP3 player)

EHLE 270225Z AUTO 27006KT 9999 NSC 09/08 Q0995

EHLE Flight Activity (Flightaware)

Listeners: 0 out of 1672 total

Lelystad Clearance Delivery: 123.680

EHLE FIC (Archives)
Lelystad, Netherlands

Feed Status: UP
Listen in your browser - HTML5 player(in browser, HTML5)
Click here to listen with your own player(launches your MP3 player)

EHLE 270225Z AUTO 27006KT 9999 NSC 09/08 Q0995

EHLE Flight Activity (Flightaware)

Listeners: 0 out of 1672 total

FIC Amsterdam Information: 124.300

EHLE Tower (Archives)
Lelystad, Netherlands

Feed Status: UP
Listen in your browser - HTML5 player(in browser, HTML5)
Click here to listen with your own player(launches your MP3 player)

EHLE 270225Z AUTO 27006KT 9999 NSC 09/08 Q0995

EHLE Flight Activity (Flightaware)

Listeners: 0 out of 1672 total

Lelystad Tower: 135.180
Lelystad Tower: 123.830

EHMM CTAF (Archives)
Middenmeer, Netherlands

Feed Status: UP
Listen in your browser - HTML5 player(in browser, HTML5)
Click here to listen with your own player(launches your MP3 player)

EHMM Flight Activity (Flightaware)

Listeners: 0 out of 1672 total

Middenmeer CTAF: 123.425

EHMZ (Archives)
Middelburg, Netherlands

Feed Status: UP
Listen in your browser - HTML5 player(in browser, HTML5)
Click here to listen with your own player(launches your MP3 player)

EHMZ Flight Activity (Flightaware)

Listeners: 0 out of 1672 total

Midden-Zeeland Radio: 119.255

EHRD Approach (Archives)
Rotterdam, Netherlands

Feed Status: UP
Listen in your browser - HTML5 player(in browser, HTML5)
Click here to listen with your own player(launches your MP3 player)

EHRD 270225Z AUTO 27004KT 240V300 9999 FEW015CB BKN035 BKN040 10/08 Q0997 TEMPO 7000

EHRD Flight Activity (Flightaware)

Listeners: 1 out of 1672 total

Rotterdam Approach: 122.990
Rotterdam Approach: 124.535
Rotterdam Approach: 281.050

EHRD Clearance Delivery (Archives)
Rotterdam, Netherlands

Feed Status: UP
Listen in your browser - HTML5 player(in browser, HTML5)
Click here to listen with your own player(launches your MP3 player)

EHRD 270225Z AUTO 27004KT 240V300 9999 FEW015CB BKN035 BKN040 10/08 Q0997 TEMPO 7000

EHRD Flight Activity (Flightaware)

Listeners: 1 out of 1672 total

Rotterdam Del/Gnd: 122.180

EHRD Del/Twr (Archives)
Rotterdam, Netherlands

Feed Status: UP
Listen in your browser - HTML5 player(in browser, HTML5)
Click here to listen with your own player(launches your MP3 player)

EHRD 270225Z AUTO 27004KT 240V300 9999 FEW015CB BKN035 BKN040 10/08 Q0997 TEMPO 7000

EHRD Flight Activity (Flightaware)

Listeners: 1 out of 1672 total

Rotterdam Del/Gnd: 122.180
Rotterdam Tower: 118.205

EHRD Gnd/Twr/App (Archives)
Rotterdam, Netherlands

Feed Status: UP
Listen in your browser - HTML5 player(in browser, HTML5)
Click here to listen with your own player(launches your MP3 player)

EHRD 270225Z AUTO 27004KT 240V300 9999 FEW015CB BKN035 BKN040 10/08 Q0997 TEMPO 7000

EHRD Flight Activity (Flightaware)

Listeners: 0 out of 1672 total

Adam Info: 124.300
Regional Guard: 119.705
Rotterdam Approach: 127.025
Rotterdam Del/Gnd: 122.180
Rotterdam Tower: 118.205
SAR: 123.100
SAR: 282.800

EHRD Tower (Archives)
Rotterdam, Netherlands

Feed Status: UP
Listen in your browser - HTML5 player(in browser, HTML5)
Click here to listen with your own player(launches your MP3 player)

EHRD 270225Z AUTO 27004KT 240V300 9999 FEW015CB BKN035 BKN040 10/08 Q0997 TEMPO 7000

EHRD Flight Activity (Flightaware)

Listeners: 1 out of 1672 total

Rotterdam Tower: 118.205
Rotterdam Tower: 362.300

EHRD Twr/App
Rotterdam, Netherlands

Feed Status: DOWN
Offline since: 2020-03-14 14:15:39 UTC

EHRD 270225Z AUTO 27004KT 240V300 9999 FEW015CB BKN035 BKN040 10/08 Q0997 TEMPO 7000

Rotterdam Approach: 127.025
Rotterdam Tower: 118.205

EHTX Gnd/Twr
Texel, Netherlands

Feed Status: DOWN
Offline since: 2021-06-08 14:20:38 UTC

Texel Radio (Ground/Tower): 119.300

EHVL CTAF/Range Control
Vlieland, Netherlands

Feed Status: DOWN
Offline since: 2021-06-08 14:20:38 UTC

EHVL 270225Z AUTO 33022KT 9999 FEW029 SCT047 12/06 Q0995 BLU

Cornfield VHF (CTAF): 122.100
Range Controller (Primary): 291.650
Range Controller (Secondary): 370.300
Range Controller VHF: 138.075

EICK Approach/Departure (Archives)
Cork, Ireland

Feed Status: UP
Listen in your browser - HTML5 player(in browser, HTML5)
Click here to listen with your own player(launches your MP3 player)

EICK 270200Z 28014KT 9999 FEW021 SCT042 12/08 Q1011 NOSIG

EICK Flight Activity (Flightaware)

Listeners: 0 out of 1672 total

Cork Approach: 119.900

EICK Gnd/Twr/App/Dep (Archives)
Cork, Ireland

Feed Status: UP
Listen in your browser - HTML5 player(in browser, HTML5)
Click here to listen with your own player(launches your MP3 player)

EICK 270200Z 28014KT 9999 FEW021 SCT042 12/08 Q1011 NOSIG

EICK Flight Activity (Flightaware)

Listeners: 1 out of 1672 total

Cork Approach: 119.900
Cork Ground: 121.850
Cork Tower: 119.300

EICK Ground/Tower (Archives)
Cork, Ireland

Feed Status: UP
Listen in your browser - HTML5 player(in browser, HTML5)
Click here to listen with your own player(launches your MP3 player)

EICK 270200Z 28014KT 9999 FEW021 SCT042 12/08 Q1011 NOSIG

EICK Flight Activity (Flightaware)

Listeners: 0 out of 1672 total

Cork Ground: 121.850
Cork Tower: 119.300

EIDW Approach (Archives)
Dublin, Ireland

Feed Status: UP
Listen in your browser - HTML5 player(in browser, HTML5)
Click here to listen with your own player(launches your MP3 player)

EIDW 270200Z 27015KT 9999 FEW012 BKN050 10/08 Q1006 NOSIG

EIDW Flight Activity (Flightaware)

Listeners: 1 out of 1672 total

Dublin Approach: 121.100

EIDW Approach (Final) (Archives)
Dublin, Ireland

Feed Status: UP
Listen in your browser - HTML5 player(in browser, HTML5)
Click here to listen with your own player(launches your MP3 player)

EIDW 270200Z 27015KT 9999 FEW012 BKN050 10/08 Q1006 NOSIG

EIDW Flight Activity (Flightaware)

Listeners: 0 out of 1672 total

Dublin Approach (Final): 119.930

EIDW Clearance Delivery (Archives)
Dublin, Ireland

Feed Status: UP
Listen in your browser - HTML5 player(in browser, HTML5)
Click here to listen with your own player(launches your MP3 player)

EIDW 270200Z 27015KT 9999 FEW012 BKN050 10/08 Q1006 NOSIG

EIDW Flight Activity (Flightaware)

Listeners: 1 out of 1672 total

Dublin Clearance Delivery: 121.875

EIDW Del/Gnd/Twr/App/Center (Archives)
Dublin, Ireland

Feed Status: UP
Listen in your browser - HTML5 player(in browser, HTML5)
Click here to listen with your own player(launches your MP3 player)

EIDW 270200Z 27015KT 9999 FEW012 BKN050 10/08 Q1006 NOSIG

EIDW Flight Activity (Flightaware)

Listeners: 11 out of 1672 total

Dublin Approach: 121.100
Dublin Approach (backup): 119.555
Dublin Centre North: 129.175
Dublin Centre South: 126.250
Dublin Clearance Delivery: 121.875
Dublin FIS: 118.500
Dublin Ground: 121.800
Dublin Tower: 118.600

EIDW Dublin Center (Archives)
Dublin, Ireland

Feed Status: UP
Listen in your browser - HTML5 player(in browser, HTML5)
Click here to listen with your own player(launches your MP3 player)

EIDW 270200Z 27015KT 9999 FEW012 BKN050 10/08 Q1006 NOSIG

EIDW Flight Activity (Flightaware)

Listeners: 0 out of 1672 total

Dublin Center: 120.755

EIDW Ground (Archives)
Dublin, Ireland

Feed Status: UP
Listen in your browser - HTML5 player(in browser, HTML5)
Click here to listen with your own player(launches your MP3 player)

EIDW 270200Z 27015KT 9999 FEW012 BKN050 10/08 Q1006 NOSIG

EIDW Flight Activity (Flightaware)

Listeners: 0 out of 1672 total

Dublin Ground: 121.800

EIDW Tower #1 (Archives)
Dublin, Ireland

Feed Status: UP
Listen in your browser - HTML5 player(in browser, HTML5)
Click here to listen with your own player(launches your MP3 player)

EIDW 270200Z 27015KT 9999 FEW012 BKN050 10/08 Q1006 NOSIG

EIDW Flight Activity (Flightaware)

Listeners: 0 out of 1672 total

Dublin Tower: 118.600

EIDW Tower (North) (Archives)
Dublin, Ireland

Feed Status: UP
Listen in your browser - HTML5 player(in browser, HTML5)
Click here to listen with your own player(launches your MP3 player)

EIDW 270200Z 27015KT 9999 FEW012 BKN050 10/08 Q1006 NOSIG

EIDW Flight Activity (Flightaware)

Listeners: 0 out of 1672 total

Dublin Tower (North): 124.680

EIKN Gnd/Twr/App (Archives)
Charlestown, Ireland

Feed Status: UP
Listen in your browser - HTML5 player(in browser, HTML5)
Click here to listen with your own player(launches your MP3 player)


EIKN Flight Activity (Flightaware)

Listeners: 0 out of 1672 total

Connaught Ground: 121.900
Connaught Tower: 130.700
Shannon Low Level: 119.075

EINN Shannon Control High (East)
Shannon, Ireland

Feed Status: DOWN
Offline since: 2022-09-17 12:31:38 UTC

EINN 270200Z 28007KT 240V300 9999 SCT026 BKN036 13/09 Q1010 NOSIG

Shannon Clearance (Oceanic only): 121.700
Shannon Control: 134.260
Shannon Control: 134.630
Shannon Control: 135.230
Shannon Control: 135.600
Shannon Control: 136.255
Shannon Control (BABAN/DEVOL Sector): 132.150

EINN Shannon Control High (West/Coastal)
Shannon, Ireland

Feed Status: DOWN
Offline since: 2022-09-17 12:31:38 UTC

EINN 270200Z 28007KT 240V300 9999 SCT026 BKN036 13/09 Q1010 NOSIG

Shannon Control: 131.150
Shannon Control: 125.880
Shannon Control: 120.040
Shannon Control: 122.980
Shannon Control: 127.130
Shannon Control: 129.665
Shannon Control: 133.360

EINN Shannon Control Low
Shannon, Ireland

Feed Status: DOWN
Offline since: 2022-09-17 12:31:38 UTC

EINN 270200Z 28007KT 240V300 9999 SCT026 BKN036 13/09 Q1010 NOSIG

Shannon Control (Low): 119.080
Shannon Control Low: 124.700

EINN Twr/App #1 (Archives)
Shannon, Ireland

Feed Status: UP
Listen in your browser - HTML5 player(in browser, HTML5)
Click here to listen with your own player(launches your MP3 player)

EINN 270200Z 28007KT 240V300 9999 SCT026 BKN036 13/09 Q1010 NOSIG

EINN Flight Activity (Flightaware)

Listeners: 6 out of 1672 total

Aer Lingus Ops: 131.500
Service Air Ops: 131.450
Shannon Approach Radar: 121.400
Shannon Control: Misc
Shannon Ground: 121.800
Shannon Tower: 118.700
Sig Ops (Pre-Clearance): 131.590

ENAL Twr/App (Archives)
Alesund, Norway

Feed Status: UP
Listen in your browser - HTML5 player(in browser, HTML5)
Click here to listen with your own player(launches your MP3 player)

ENAL 270220Z AUTO VRB01KT 9999 BKN013/// OVC021/// 09/08 Q0990

ENAL Flight Activity (Flightaware)

Listeners: 0 out of 1672 total

More Approach: 129.325
More Approach: 119.350
Vigra Tower: 118.100

ENAT Twr/App/Control
Alta, Norway

Feed Status: DOWN
Offline since: 2022-09-27 00:00:21 UTC

ENAT 270220Z AUTO 17010KT 9999 FEW024/// SCT055/// 08/05 Q1013 RMK WIND 700FT 18020KT

Alta Tower (to boat, Harbour Channel 12): 156.600
Alta Tower (to vehicle): 462.400
Alta Tower/Approach: 120.400
Norway Control: 126.700

ENBO Approach (Archives)
Bodo, Norway

Feed Status: UP
Listen in your browser - HTML5 player(in browser, HTML5)
Click here to listen with your own player(launches your MP3 player)

ENBO 270220Z 10025KT 9999 BKN046 11/05 Q1006

ENBO Flight Activity (Flightaware)

Listeners: 0 out of 1672 total

Bodo Approach: 119.700

ENBO Tower (Archives)
Bodo, Norway

Feed Status: UP
Listen in your browser - HTML5 player(in browser, HTML5)
Click here to listen with your own player(launches your MP3 player)

ENBO 270220Z 10025KT 9999 BKN046 11/05 Q1006

ENBO Flight Activity (Flightaware)

Listeners: 0 out of 1672 total

Bodo Tower: 118.100

ENCN Tower/Approach (Archives)
Kristiansand, Norway

Feed Status: UP
Listen in your browser - HTML5 player(in browser, HTML5)
Click here to listen with your own player(launches your MP3 player)

ENCN 270220Z AUTO 06002KT 0150 R03/0700N R21/0800N FG VV001 08/08 Q0988

ENCN Flight Activity (Flightaware)

Listeners: 0 out of 1672 total

Kjevik Tower: 118.100
Kjevik Tower/Approach: 119.950

ENGM App/Polaris ACC (Archives)
Honefoss, Norway

Feed Status: UP
Listen in your browser - HTML5 player(in browser, HTML5)
Click here to listen with your own player(launches your MP3 player)

ENEG Flight Activity (Flightaware)

Listeners: 1 out of 1672 total

ENGM Approach (East): 118.475
ENGM Approach (West): 120.450
Polaris ACC Sector 4: 118.875
Polaris ACC Sector 7: 124.775
Polaris ACC Sector 8: 134.350

ENEV Twr/App/ACC (Archives)
Evenes, Norway

Feed Status: UP
Listen in your browser - HTML5 player(in browser, HTML5)
Click here to listen with your own player(launches your MP3 player)

ENEV 270220Z 13012KT CAVOK 10/02 Q1008 RMK WIND 1400FT 11017KT

ENEV Flight Activity (Flightaware)

Listeners: 0 out of 1672 total

Evenes Approach: 120.100
Evenes Tower: 118.000
Norway ACC (Bodo Sector 25): 126.450

ENGK Info (Archives)
Arendal, Norway

Feed Status: UP
Listen in your browser - HTML5 player(in browser, HTML5)
Click here to listen with your own player(launches your MP3 player)


ENGK Flight Activity (Flightaware)

Listeners: 0 out of 1672 total

Gullknapp Info: 129.900

ENGM App/Director/Final (Archives)
Oslo, Norway

Feed Status: UP
Listen in your browser - HTML5 player(in browser, HTML5)
Click here to listen with your own player(launches your MP3 player)

ENGM 270150Z 12008KT 9999 -RA SCT009 OVC012 10/09 Q0993

ENGM Flight Activity (Flightaware)

Listeners: 0 out of 1672 total

Oslo Approach: 120.450
Oslo Approach: 118.475
Oslo Approach (Final): 128.900
Oslo Director: 136.400
Oslo Director: 119.975

ENGM App/Polaris ACC (Archives)
Oslo, Norway

Feed Status: UP
Listen in your browser - HTML5 player(in browser, HTML5)
Click here to listen with your own player(launches your MP3 player)

ENEG Flight Activity (Flightaware)

Listeners: 1 out of 1672 total

ENGM Approach (East): 118.475
ENGM Approach (West): 120.450
Polaris ACC Sector 4: 118.875
Polaris ACC Sector 7: 124.775
Polaris ACC Sector 8: 134.350

ENGM Tower (Archives)
Oslo, Norway

Feed Status: UP
Listen in your browser - HTML5 player(in browser, HTML5)
Click here to listen with your own player(launches your MP3 player)

ENGM 270150Z 12008KT 9999 -RA SCT009 OVC012 10/09 Q0993

ENGM Flight Activity (Flightaware)

Listeners: 1 out of 1672 total

Oslo Tower (East): 120.100
Oslo Tower (West): 118.300

ENHD Tower (Archives)
Haugesund, Norway

Feed Status: UP
Listen in your browser - HTML5 player(in browser, HTML5)
Click here to listen with your own player(launches your MP3 player)

ENHD 270220Z AUTO 33006KT 300V360 9999 SCT032/// 09/05 Q0989

ENHD Flight Activity (Flightaware)

Listeners: 0 out of 1672 total

Karmoy Tower: 120.500

ENJB CTAF (Archives)
Tonsberg, Norway

Feed Status: UP
Listen in your browser - HTML5 player(in browser, HTML5)
Click here to listen with your own player(launches your MP3 player)

ENTO 270220Z AUTO 11012G25KT 090V180 6000 RA BKN004/// OVC010/// 10/10 Q0990

ENTO Flight Activity (Flightaware)

Listeners: 0 out of 1672 total

Jarlsberg CTAF: 122.300

ENLI CTAF (Archives)
Farsund, Norway

Feed Status: UP
Listen in your browser - HTML5 player(in browser, HTML5)
Click here to listen with your own player(launches your MP3 player)

ENLI Flight Activity (Flightaware)

Listeners: 0 out of 1672 total

Lista Traffic/Lista Radio: 126.450

ENOR Sector 8 (Archives)
Moss, Norway

Feed Status: UP
Listen in your browser - HTML5 player(in browser, HTML5)
Click here to listen with your own player(launches your MP3 player)

ENOR Flight Activity (Flightaware)

Listeners: 1 out of 1672 total

Norway Center (FIR) Sector 8: 118.875

ENRY Tower (Archives)
Moss, Norway

Feed Status: UP
Listen in your browser - HTML5 player(in browser, HTML5)
Click here to listen with your own player(launches your MP3 player)

ENRY 270220Z AUTO 11014KT 9999NDV -RA FEW011/// SCT016/// BKN062/// 10/09 Q0991

ENRY Flight Activity (Flightaware)

Listeners: 0 out of 1672 total

Rygge Tower: 119.500

ENTC Tower/App
Langnes, Norway

Feed Status: DOWN
Offline since: 2022-09-26 12:24:39 UTC

ENTC 270220Z AUTO 20010KT 9999 NCD 08/02 Q1009 RMK WIND 2600FT 18025KT

Langnes Tower: 118.300
Langnes VDF (Approach): 123.750

ENTO App/Dep (Archives)
Sandefjord, Norway

Feed Status: UP
Listen in your browser - HTML5 player(in browser, HTML5)
Click here to listen with your own player(launches your MP3 player)

ENTO 270220Z AUTO 11012G25KT 090V180 6000 RA BKN004/// OVC010/// 10/10 Q0990

ENTO Flight Activity (Flightaware)

Listeners: 0 out of 1672 total

Sandefjord Approach (TMA): 134.050

ENTO Control Sector 4 (Archives)
Sandefjord, Norway

Feed Status: UP
Listen in your browser - HTML5 player(in browser, HTML5)
Click here to listen with your own player(launches your MP3 player)

ENTO 270220Z AUTO 11012G25KT 090V180 6000 RA BKN004/// OVC010/// 10/10 Q0990

ENTO Flight Activity (Flightaware)

Listeners: 0 out of 1672 total

Norway control Sector 4: 118.875

ENTO Tower (Archives)
Sandefjord, Norway

Feed Status: UP
Listen in your browser - HTML5 player(in browser, HTML5)
Click here to listen with your own player(launches your MP3 player)

ENTO 270220Z AUTO 11012G25KT 090V180 6000 RA BKN004/// OVC010/// 10/10 Q0990

ENTO Flight Activity (Flightaware)

Listeners: 0 out of 1672 total

Sandefjord Tower: 118.650

ENTO Tower/App (Archives)
Sandefjord, Norway

Feed Status: UP
Listen in your browser - HTML5 player(in browser, HTML5)
Click here to listen with your own player(launches your MP3 player)

ENTO 270220Z AUTO 11012G25KT 090V180 6000 RA BKN004/// OVC010/// 10/10 Q0990

ENTO Flight Activity (Flightaware)

Listeners: 1 out of 1672 total

ENJB Tonsberg Airport - Jarlsberg - CTAF: 122.300
Farris Approach (TCA): 134.050
Sandefjord Tower: 118.650

ENTO Twr/App (Archives)
Sandefjord, Norway

Feed Status: UP
Listen in your browser - HTML5 player(in browser, HTML5)
Click here to listen with your own player(launches your MP3 player)

ENTO 270220Z AUTO 11012G25KT 090V180 6000 RA BKN004/// OVC010/// 10/10 Q0990

ENTO Flight Activity (Flightaware)

Listeners: 0 out of 1672 total

Sandefjord Approach (TMA): 134.050
Sandefjord Tower: 118.650

ENVA Gnd/Twr/App (Archives)
Trondheim, Norway

Feed Status: UP
Listen in your browser - HTML5 player(in browser, HTML5)
Click here to listen with your own player(launches your MP3 player)

ENVA 270220Z 10011KT 9999 FEW044 BKN110 12/05 Q0996 RMK WIND 670FT 13012KT

ENVA Flight Activity (Flightaware)

Listeners: 2 out of 1672 total

Trondheim Approach: 118.600
Trondheim Ground: 121.600
Trondheim Tower: 119.400

ENZV Gnd/Twr/App (Archives)
Stavanger, Norway

Feed Status: UP
Listen in your browser - HTML5 player(in browser, HTML5)
Click here to listen with your own player(launches your MP3 player)

ENZV 270220Z AUTO 31007KT 9999 BKN024/// OVC030/// 09/06 Q0990

ENZV Flight Activity (Flightaware)

Listeners: 2 out of 1672 total

Sola Approach/Departure: 119.600
Sola Ground: 121.750
Sola Tower: 118.350

EPGD Tower/Approach (Archives)
Gdansk, Poland

Feed Status: UP
Listen in your browser - HTML5 player(in browser, HTML5)
Click here to listen with your own player(launches your MP3 player)

EPGD 270200Z VRB01KT CAVOK 09/08 Q1000

EPGD Flight Activity (Flightaware)

Listeners: 0 out of 1672 total

Gdansk Approach: 127.275
Gdansk Tower: 118.100

EPKK Tower/App (Archives)
Krakow, Poland

Feed Status: UP
Listen in your browser - HTML5 player(in browser, HTML5)
Click here to listen with your own player(launches your MP3 player)

EPKK 270200Z 06003KT 0100 R25/0450N FG VV000 07/07 Q1002

EPKK Flight Activity (Flightaware)

Listeners: 2 out of 1672 total

Krakow Approach: 121.075
Krakow Approach: 123.255
Krakow Tower: 123.255

EPKR CTAF (Archives)
Krosno, Poland

Feed Status: UP
Listen in your browser - HTML5 player(in browser, HTML5)
Click here to listen with your own player(launches your MP3 player)

EPKR Flight Activity (Flightaware)

Listeners: 0 out of 1672 total

Krosno CTAF: 119.555

EPKT Del/Twr/App (Archives)
Katowice, Poland

Feed Status: UP
Listen in your browser - HTML5 player(in browser, HTML5)
Click here to listen with your own player(launches your MP3 player)

EPKT 270200Z 09005KT 0500 R27/0750D FG SCT000 05/05 Q1002

EPKT Flight Activity (Flightaware)

Listeners: 1 out of 1672 total

Katowice Delivery: 121.800
Katowice Tower: 129.250
Krakow Approach: 135.400
Krakow Approach: 121.075

EPKT Delivery/Approach (Archives)
Katowice, Poland

Feed Status: UP
Listen in your browser - HTML5 player(in browser, HTML5)
Click here to listen with your own player(launches your MP3 player)

EPKT 270200Z 09005KT 0500 R27/0750D FG SCT000 05/05 Q1002

EPKT Flight Activity (Flightaware)

Listeners: 0 out of 1672 total

Katowice Delivery: 121.800
Krakow Approach: 121.075

EPKT Tower/Approach (Archives)
Katowice, Poland

Feed Status: UP
Listen in your browser - HTML5 player(in browser, HTML5)
Click here to listen with your own player(launches your MP3 player)

EPKT 270200Z 09005KT 0500 R27/0750D FG SCT000 05/05 Q1002

EPKT Flight Activity (Flightaware)

Listeners: 0 out of 1672 total

Katowice Tower: 129.250
Krakow Approach: 135.400

EPLL Tower (Archives)
Lodz, Poland

Feed Status: UP
Listen in your browser - HTML5 player(in browser, HTML5)
Click here to listen with your own player(launches your MP3 player)

EPLL 270200Z VRB02KT 0100 R25/0450N FG VV001 09/09 Q1002

EPLL Flight Activity (Flightaware)

Listeners: 0 out of 1672 total

Lodz Tower: 124.230

EPLS CTAF/Radio (Archives)
Leszno, Poland

Feed Status: UP
Listen in your browser - HTML5 player(in browser, HTML5)
Click here to listen with your own player(launches your MP3 player)

EPLS Flight Activity (Flightaware)

Listeners: 0 out of 1672 total

Leszno Radio: 122.305

EPPO Twr/App/FIS
Poznan, Poland

Feed Status: DOWN
Offline since: 2022-09-26 04:31:38 UTC

EPPO 270200Z 15006KT 5000 BR NSC 09/09 Q0999

Poznan Approach: 129.025
Poznan Approach: 127.225
Poznan FIS: 126.300
Poznan Tower: 119.975

EPRZ Del/Twr/EPWW Radar
Jasionka, Poland

Feed Status: DOWN
Offline since: 2022-02-26 08:35:38 UTC

EPRZ 270200Z 22005KT 0600 R27/0900D FG OVC002 10/10 Q1003

EPWW Radar: 134.175
EPWW Radar: 120.950
Rzeszow Delivery: 121.800
Rzeszow Tower: 126.800

EPWA Approach #1 (Archives)
Warsaw, Poland

Feed Status: UP
Listen in your browser - HTML5 player(in browser, HTML5)
Click here to listen with your own player(launches your MP3 player)

EPWA 270200Z 15004KT 2000 1000W R33/1400D BR BKN001 11/11 Q1002 BECMG 0600 FG

EPWA Flight Activity (Flightaware)

Listeners: 0 out of 1672 total

Warsaw Approach: 128.805

EPWA Approach #2 (Archives)
Warsaw, Poland

Feed Status: UP
Listen in your browser - HTML5 player(in browser, HTML5)
Click here to listen with your own player(launches your MP3 player)

EPWA 270200Z 15004KT 2000 1000W R33/1400D BR BKN001 11/11 Q1002 BECMG 0600 FG

EPWA Flight Activity (Flightaware)

Listeners: 0 out of 1672 total

Warsaw Approach: 125.055

EPWA Ground (Archives)
Warsaw, Poland

Feed Status: UP
Listen in your browser - HTML5 player(in browser, HTML5)
Click here to listen with your own player(launches your MP3 player)

EPWA 270200Z 15004KT 2000 1000W R33/1400D BR BKN001 11/11 Q1002 BECMG 0600 FG

EPWA Flight Activity (Flightaware)

Listeners: 0 out of 1672 total

Warsaw Ground: 121.900

EPWA Tower (Archives)
Warsaw, Poland

Feed Status: UP
Listen in your browser - HTML5 player(in browser, HTML5)
Click here to listen with your own player(launches your MP3 player)

EPWA 270200Z 15004KT 2000 1000W R33/1400D BR BKN001 11/11 Q1002 BECMG 0600 FG

EPWA Flight Activity (Flightaware)

Listeners: 0 out of 1672 total

Warsaw Tower: 118.300

EPWR Twr/App (Archives)
Wroclaw, Poland

Feed Status: UP
Listen in your browser - HTML5 player(in browser, HTML5)
Click here to listen with your own player(launches your MP3 player)

EPPO 270200Z 15006KT 5000 BR NSC 09/09 Q0999

EPPO Flight Activity (Flightaware)

Listeners: 0 out of 1672 total

Poznan Approach (South): 127.225

EPRZ Del/Twr/EPWW Radar
Jasionka, Poland

Feed Status: DOWN
Offline since: 2022-02-26 08:35:38 UTC

EPRZ 270200Z 22005KT 0600 R27/0900D FG OVC002 10/10 Q1003

EPWW Radar: 134.175
EPWW Radar: 120.950
Rzeszow Delivery: 121.800
Rzeszow Tower: 126.800

ESMQ Tower (Archives)
Kalmar, Sweden

Feed Status: UP
Listen in your browser - HTML5 player(in browser, HTML5)
Click here to listen with your own player(launches your MP3 player)

ESMQ 270220Z AUTO 13009KT 9999 BKN086/// 13/10 Q0998

ESMQ Flight Activity (Flightaware)

Listeners: 1 out of 1672 total

Kalmar Tower: 130.805

ESMS Radar (Archives)
Svedala, Sweden

Feed Status: UP
Listen in your browser - HTML5 player(in browser, HTML5)
Click here to listen with your own player(launches your MP3 player)

ESMS 270220Z 16008KT 9999 FEW027 SCT034 OVC061 11/08 Q0994

ESMS Flight Activity (Flightaware)

Listeners: 0 out of 1672 total

Sweden Control (Sector L, Malmo): 134.980

ESMS Tower (Archives)
Svedala, Sweden

Feed Status: UP
Listen in your browser - HTML5 player(in browser, HTML5)
Click here to listen with your own player(launches your MP3 player)

ESMS 270220Z 16008KT 9999 FEW027 SCT034 OVC061 11/08 Q0994

ESMS Flight Activity (Flightaware)

Listeners: 0 out of 1672 total

Malmo Tower: 118.800

ESOE Tower/Control (Archives)
Orebro, Sweden

Feed Status: UP
Listen in your browser - HTML5 player(in browser, HTML5)
Click here to listen with your own player(launches your MP3 player)

ESOE 270220Z AUTO 10006KT 9999 OVC053/// 11/10 Q0997

ESOE Flight Activity (Flightaware)

Listeners: 0 out of 1672 total

Orebro Tower: 120.275
Orebro Tower: 120.280
Sweden Control: 131.125
Sweden Control (aircraft only): 131.125

ESOW Twr/CTAF/Control
Stockholm, Sweden

Feed Status: DOWN
Offline since: 2022-09-15 18:33:39 UTC

ESOW 270220Z AUTO 10006KT 9999 SCT035/// BKN084/// 11/09 Q1000

Arlanda Approach: 123.750
Arlanda Approach: 126.655
Arlanda Approach: 130.325
Arlanda Departure: 124.100
Arlanda Tower: 118.505
Arlanda Tower: 128.725
Enkoping/Langtora: 123.525
Eskilstuna: 126.850
Frolunda: 123.400
Johannisberg CTAF: 123.650
Ska Edeby: 123.350
Stockholm Control: 120.155
Stockholm Control: 118.405
Stockholm Control: 118.280
Sweden Control: 133.260
Sweden Control: 129.175
Sweden Control: 131.130
Uppsala Tower: 119.200
Uppsala/Sundbro: 123.350
Vasteras Control: 125.955
Vasteras Tower: 130.600

ESPA Twr/Control (Archives)
Lulea, Sweden

Feed Status: UP
Listen in your browser - HTML5 player(in browser, HTML5)
Click here to listen with your own player(launches your MP3 player)

ESPA 270220Z AUTO 11003KT 080V150 9999 FEW020/// 07/07 Q1011

ESPA Flight Activity (Flightaware)

Listeners: 0 out of 1672 total

Emergency/Guard: 121.500
Kallax Control: 125.450
Kallax Tower: 128.200
Sweden Control North: 131.050

ESSG Misc (Archives)
Ludvika, Sweden

Feed Status: UP
Listen in your browser - HTML5 player(in browser, HTML5)
Click here to listen with your own player(launches your MP3 player)

ESSG Flight Activity (Flightaware)

Listeners: 0 out of 1672 total

Borlange Tower: 127.305
Club Frequency: 123.375
Club Frequency: 123.450
Club Frequency: 123.425
Club Frequency: 123.525
Club Frequency: 123.350
Club Frequency: 123.300
Club Frequency: 123.200
Club Frequency: 123.550
Club Frequency: 123.600
Club Frequency: 123.650
Emergency/Guard: 121.500
Hagfors Airport: 122.230
Karlstad Airport: 119.455
Ludvika Club Freq: 123.150
Mora Airport: 119.055
Orebro Airport: 120.280
Orsa Club Frequency: 123.400
Orsa Club Frequency: 123.500
Scandinavian Mountains Airport: 124.460
Search and Rescue: 123.100
Sweden Control: 131.055
Sweden Control: 131.125
Sweden Control: 131.155
Sweden Control: 132.765
Sweden Control: 131.130
Sweden Control: 129.180
Sweden Control: 128.630
Sweden Control: 132.150
Torsby Airport: 122.055
Vasteras Control: 125.955

ESSL Twr/App/Control (Archives)
Linkoping, Sweden

Feed Status: UP
Listen in your browser - HTML5 player(in browser, HTML5)
Click here to listen with your own player(launches your MP3 player)

ESSL 270220Z AUTO 13009KT 9999 BKN053/// BKN072/// 10/08 Q0998

ESSL Flight Activity (Flightaware)

Listeners: 0 out of 1672 total

Emergency/Guard: 121.500
Linkoping Tower: 118.800
Linkoping Tower (Secondary): 123.400
Ostgota Control: 127.350
Ostgota Control: 126.400
Ostgota Control: 135.850
Ostgota Control: 132.950
Ostgota Control: 128.700
Ostgota Control (Malmen Sector): 133.100
Ostgota Control/Sweden Control: 118.400

ESSP Twr/App/Control (Archives)
Norrkoping, Sweden

Feed Status: UP
Listen in your browser - HTML5 player(in browser, HTML5)
Click here to listen with your own player(launches your MP3 player)

ESSP 270220Z AUTO 11006KT 9999 FEW041/// BKN076/// OVC098/// 11/09 Q0998

ESSP Flight Activity (Flightaware)

Listeners: 0 out of 1672 total

Kungsangen Tower: 120.355
Osgota Approach/Departure: 132.955
Sweden Control: 118.280
Sweden Control: 118.405
Sweden Control: 134.455

ESVQ CTAF
Koping, Sweden

Feed Status: DOWN
Offline since: 2021-09-28 07:56:21 UTC

Koping CTAF: 123.150

EVRA Approach (Archives)
Riga, Latvia

Feed Status: UP
Listen in your browser - HTML5 player(in browser, HTML5)
Click here to listen with your own player(launches your MP3 player)

EVRA 270220Z 12004KT 100V160 CAVOK 08/07 Q1005 NOSIG

EVRA Flight Activity (Flightaware)

Listeners: 0 out of 1672 total

Riga Approach: 129.925

EVRA CTAF (Archives)
Riga, Latvia

Feed Status: UP
Listen in your browser - HTML5 player(in browser, HTML5)
Click here to listen with your own player(launches your MP3 player)

EVRA 270220Z 12004KT 100V160 CAVOK 08/07 Q1005 NOSIG

EVRA Flight Activity (Flightaware)

Listeners: 0 out of 1672 total

Riga Approach (evenings): 134.850
Riga CTAF: 123.950

EVRA FIC (Archives)
Riga, Latvia

Feed Status: UP
Listen in your browser - HTML5 player(in browser, HTML5)
Click here to listen with your own player(launches your MP3 player)

EVRA 270220Z 12004KT 100V160 CAVOK 08/07 Q1005 NOSIG

EVRA Flight Activity (Flightaware)

Listeners: 0 out of 1672 total

Riga FIC: 120.225

EVRA Tower/Guard (Archives)
Riga, Latvia

Feed Status: UP
Listen in your browser - HTML5 player(in browser, HTML5)
Click here to listen with your own player(launches your MP3 player)

EVRA 270220Z 12004KT 100V160 CAVOK 08/07 Q1005 NOSIG

EVRA Flight Activity (Flightaware)

Listeners: 0 out of 1672 total

Emergency/Guard: 121.500
Riga Tower: 118.100

EYVI Twr/App/Misc (Archives)
Vilnius, Lithuania

Feed Status: UP
Listen in your browser - HTML5 player(in browser, HTML5)
Click here to listen with your own player(launches your MP3 player)

EYVI 270220Z 14005KT 0500 R19/1300N FG VV001 09/09 Q1005 NOSIG

EYVI Flight Activity (Flightaware)

Listeners: 0 out of 1672 total

Emergency / GUARD: 121.500
FlyLAL, AirBaltic transit services: 131.900
FlyLAL, AirBaltic transit services: 131.600
FlyLAL, AirBaltic transit services: 131.500
Kaunas Approach (EYKA): 124.200
Vilnius Approach: 120.700
Vilnius Control: 132.275
Vilnius Control: 133.425
Vilnius Control: 133.300
Vilnius FIS: 123.850
Vilnius Tower: 118.200
Zokniai A/G (mil): 122.775

FIMP Twr/App/Ctr #1 (Archives)
Plaine Magnien, Mauritius

Feed Status: UP
Listen in your browser - HTML5 player(in browser, HTML5)
Click here to listen with your own player(launches your MP3 player)

FIMP 270200Z 09014KT 9999 FEW017 21/15 Q1023


Listeners: 0 out of 1672 total

FIMP Approach: 119.100
FIMP Tower: 118.100
FMEE Approach/Departure: 127.200
Mauritius Centre: 129.300

FIMP Twr/App/Ctr #2 (Archives)
Plaine Magnien, Mauritius

Feed Status: UP
Listen in your browser - HTML5 player(in browser, HTML5)
Click here to listen with your own player(launches your MP3 player)

FIMP 270200Z 09014KT 9999 FEW017 21/15 Q1023


Listeners: 0 out of 1672 total

FIMP Approach: 119.100
FIMP Tower: 118.100
Mauritius Centre: 129.300

FMEP Info (Archives)
Saint-Pierre, Reunion

Feed Status: UP
Listen in your browser - HTML5 player(in browser, HTML5)
Click here to listen with your own player(launches your MP3 player)

FMEP 270200Z AUTO 03009KT CAVOK 20/11 Q1022


Listeners: 0 out of 1672 total

Saint-Pierre Info: 122.400

FMMI Twr/App/Center (Archives)
Antananarivo, Madagascar

Feed Status: UP
Listen in your browser - HTML5 player(in browser, HTML5)
Click here to listen with your own player(launches your MP3 player)

FMMI 270200Z 13006KT 110V180 9999 FEW017 SCT020 11/08 Q1025 NOSIG


Listeners: 0 out of 1672 total

Ivato Approach: 125.700
Ivato Tower: 120.100
Tana Control: 128.900

GOBD Gnd/Twr/App (Archives)
Dakar, Senegal

Feed Status: UP
Listen in your browser - HTML5 player(in browser, HTML5)
Click here to listen with your own player(launches your MP3 player)

GOBD 270200Z 06005KT 9999 SCT020 25/25 Q1012 NOSIG


Listeners: 0 out of 1672 total

Dakar Approach/Departure: 120.500
Dakar Ground: 121.800
Dakar Tower: 118.800

HAAB Approach (Archives)
Addis Ababa, Ethiopia

Feed Status: UP
Listen in your browser - HTML5 player(in browser, HTML5)
Click here to listen with your own player(launches your MP3 player)

HAAB 270200Z 8000 BR BKN025 BKN070 13/11 Q1026


Listeners: 0 out of 1672 total

Bole Approach: 119.700

HAAB Ground (Archives)
Addis Ababa, Ethiopia

Feed Status: UP
Listen in your browser - HTML5 player(in browser, HTML5)
Click here to listen with your own player(launches your MP3 player)

HAAB 270200Z 8000 BR BKN025 BKN070 13/11 Q1026


Listeners: 0 out of 1672 total

Bole Ground: 121.900

HAAB Tower
Addis Ababa, Ethiopia

Feed Status: DOWN
Offline since: 2022-09-27 01:00:05 UTC

HAAB 270200Z 8000 BR BKN025 BKN070 13/11 Q1026

Bole Tower: 118.100

LBBG Twr/App (Archives)
Burgas, Bulgaria

Feed Status: UP
Listen in your browser - HTML5 player(in browser, HTML5)
Click here to listen with your own player(launches your MP3 player)

LBBG 270230Z AUTO 25009KT 9999 NSC 18/14 Q1006 NOSIG

LBBG Flight Activity (Flightaware)

Listeners: 0 out of 1672 total

Burgas Approach: 125.100
Burgas Tower: 118.000

LBPD Tower (Archives)
Plovdiv, Bulgaria

Feed Status: UP
Listen in your browser - HTML5 player(in browser, HTML5)
Click here to listen with your own player(launches your MP3 player)

LBSF 270230Z AUTO 07005KT 050V140 8000 RA FEW008/// BKN061/// OVC079/// 14/13 Q1006 NOSIG

LBSF Flight Activity (Flightaware)

Listeners: 0 out of 1672 total

Plovdiv Tower: 125.500
Plovdiv Tower: 133.600

LBSF ATIS (Archives)
Sofia, Bulgaria

Feed Status: UP
Listen in your browser - HTML5 player(in browser, HTML5)
Click here to listen with your own player(launches your MP3 player)

LBSF 270230Z AUTO 07005KT 050V140 8000 RA FEW008/// BKN061/// OVC079/// 14/13 Q1006 NOSIG

LBSF Flight Activity (Flightaware)

Listeners: 0 out of 1672 total

Sofia ATIS: 126.680

LBSF Sofia Control East (Archives)
Sofia, Bulgaria

Feed Status: UP
Listen in your browser - HTML5 player(in browser, HTML5)
Click here to listen with your own player(launches your MP3 player)

LBSF 270230Z AUTO 07005KT 050V140 8000 RA FEW008/// BKN061/// OVC079/// 14/13 Q1006 NOSIG

LBSF Flight Activity (Flightaware)

Listeners: 0 out of 1672 total

Sofia Control (East/Middle Sector): 129.100
Sofia Control (Varna Sector): 134.700

LBSF Twr/App #1 (Archives)
Sofia, Bulgaria

Feed Status: UP
Listen in your browser - HTML5 player(in browser, HTML5)
Click here to listen with your own player(launches your MP3 player)

LBSF 270230Z AUTO 07005KT 050V140 8000 RA FEW008/// BKN061/// OVC079/// 14/13 Q1006 NOSIG

LBSF Flight Activity (Flightaware)

Listeners: 3 out of 1672 total

Sofia Approach: 123.700
Sofia Approach: 129.900
Sofia Tower: 118.100
Sofia Tower: 120.200

LBSF Twr/App #2 (Archives)
Sofia, Bulgaria

Feed Status: UP
Listen in your browser - HTML5 player(in browser, HTML5)
Click here to listen with your own player(launches your MP3 player)

LBSF 270230Z AUTO 07005KT 050V140 8000 RA FEW008/// BKN061/// OVC079/// 14/13 Q1006 NOSIG

LBSF Flight Activity (Flightaware)

Listeners: 0 out of 1672 total

Sofia Approach: 123.700
Sofia Tower: 118.100

Bordeaux Control (Archives)
Bordeaux, France

Feed Status: UP
Listen in your browser - HTML5 player(in browser, HTML5)
Click here to listen with your own player(launches your MP3 player)

LFBD 270200Z AUTO 26004KT 9999 BKN036 BKN047 OVC054 13/11 Q1012 NOSIG

LFBD Flight Activity (Flightaware)

Listeners: 1 out of 1672 total

Air to Air: 123.450
Bordeaux Control BN FL<300: 127.675
Bordeaux Control L3 FL>300: 134.250
Bordeaux Control R2 FL>300: 133.575
Emergency/Guard: 121.500

LFBD Aquitane Approach (Archives)
Bordeaux, France

Feed Status: UP
Listen in your browser - HTML5 player(in browser, HTML5)
Click here to listen with your own player(launches your MP3 player)

LFBD 270200Z AUTO 26004KT 9999 BKN036 BKN047 OVC054 13/11 Q1012 NOSIG

LFBD Flight Activity (Flightaware)

Listeners: 1 out of 1672 total

Aquitane Approach: 129.875

LFBD ATIS (Archives)
Bordeaux, France

Feed Status: UP
Listen in your browser - HTML5 player(in browser, HTML5)
Click here to listen with your own player(launches your MP3 player)

LFBD 270200Z AUTO 26004KT 9999 BKN036 BKN047 OVC054 13/11 Q1012 NOSIG

LFBD Flight Activity (Flightaware)

Listeners: 0 out of 1672 total

Merignac ATIS: 131.150

LFBD Bordeaux Control Sector X1 (Archives)
Bordeaux, France

Feed Status: UP
Listen in your browser - HTML5 player(in browser, HTML5)
Click here to listen with your own player(launches your MP3 player)

LFBD 270200Z AUTO 26004KT 9999 BKN036 BKN047 OVC054 13/11 Q1012 NOSIG

LFBD Flight Activity (Flightaware)

Listeners: 1 out of 1672 total

Bordeaux Control (Sector X1): 118.425

LFBD Ground (Archives)
Bordeaux, France

Feed Status: UP
Listen in your browser - HTML5 player(in browser, HTML5)
Click here to listen with your own player(launches your MP3 player)

LFBD 270200Z AUTO 26004KT 9999 BKN036 BKN047 OVC054 13/11 Q1012 NOSIG

LFBD Flight Activity (Flightaware)

Listeners: 0 out of 1672 total

Merignac Ground: 121.900

LFBD Tower (Archives)
Bordeaux, France

Feed Status: UP
Listen in your browser - HTML5 player(in browser, HTML5)
Click here to listen with your own player(launches your MP3 player)

LFBD 270200Z AUTO 26004KT 9999 BKN036 BKN047 OVC054 13/11 Q1012 NOSIG

LFBD Flight Activity (Flightaware)

Listeners: 0 out of 1672 total

Merignac Tower: 118.300

Bordeaux Control (Archives)
Angouleme, France

Feed Status: UP
Listen in your browser - HTML5 player(in browser, HTML5)
Click here to listen with your own player(launches your MP3 player)

LFBD 270200Z AUTO 26004KT 9999 BKN036 BKN047 OVC054 13/11 Q1012 NOSIG

LFBD Flight Activity (Flightaware)

Listeners: 1 out of 1672 total

Air to Air: 123.450
Bordeaux Control BN FL<300: 127.675
Bordeaux Control L3 FL>300: 134.250
Bordeaux Control R2 FL>300: 133.575
Emergency/Guard: 121.500

LFBZ Tower (Archives)
Biarritz, France

Feed Status: UP
Listen in your browser - HTML5 player(in browser, HTML5)
Click here to listen with your own player(launches your MP3 player)

LFBZ 270200Z AUTO 25012G25KT 210V300 5000 -RA BR BKN003 OVC009 15/14 Q1014 TEMPO SHRA BKN020TCU

LFBZ Flight Activity (Flightaware)

Listeners: 1 out of 1672 total


LFLL Tower (Archives)
Lyon, France

Feed Status: UP
Listen in your browser - HTML5 player(in browser, HTML5)
Click here to listen with your own player(launches your MP3 player)

LFLL 270200Z 24004KT CAVOK 12/10 Q1007 NOSIG

LFLL Flight Activity (Flightaware)

Listeners: 0 out of 1672 total

Lyon Tower: 120.450

Lyon FIS (Archives)
Lyon, France

Feed Status: UP
Listen in your browser - HTML5 player(in browser, HTML5)
Click here to listen with your own player(launches your MP3 player)

LFLL 270200Z 24004KT CAVOK 12/10 Q1007 NOSIG

LFLL Flight Activity (Flightaware)

Listeners: 0 out of 1672 total

Lyon FIS: 135.200

LFLP Twr/LFLB App
Annecy, France

Feed Status: DOWN
Offline since: 2022-09-26 17:16:23 UTC

LFLP 270200Z AUTO 07003KT 020V190 9999 BKN012 BKN022 OVC060 10/09 Q1007

Annecy Tower: 118.200
Chambery Approach: 121.205
Chambery Info: 123.700

LFLY Tower (Archives)
Bron, France

Feed Status: UP
Listen in your browser - HTML5 player(in browser, HTML5)
Click here to listen with your own player(launches your MP3 player)

LFLY 270200Z AUTO VRB02KT CAVOK 12/10 Q1007 TEMPO 4000 RA

LFLY Flight Activity (Flightaware)

Listeners: 0 out of 1672 total

Lyon-Bron Tower: 118.100

Lyon FIS (Archives)
Bron, France

Feed Status: UP
Listen in your browser - HTML5 player(in browser, HTML5)
Click here to listen with your own player(launches your MP3 player)

LFLL 270200Z 24004KT CAVOK 12/10 Q1007 NOSIG

LFLL Flight Activity (Flightaware)

Listeners: 0 out of 1672 total

Lyon FIS: 135.200

LFMD Ground/Tower (Archives)
Cannes, France

Feed Status: UP
Listen in your browser - HTML5 player(in browser, HTML5)
Click here to listen with your own player(launches your MP3 player)

LFMD 270200Z AUTO 28019G29KT 240V300 CAVOK 19/05 Q1001

LFMD Flight Activity (Flightaware)

Listeners: 1 out of 1672 total

Cannes Ground: 121.805
Cannes Tower: 118.625

LFMN Approach (Archives)
Nice, France

Feed Status: UP
Listen in your browser - HTML5 player(in browser, HTML5)
Click here to listen with your own player(launches your MP3 player)

LFMN 270200Z 31003KT 280V010 CAVOK 19/06 Q1001 NOSIG

LFMN Flight Activity (Flightaware)

Listeners: 0 out of 1672 total

Nice Approach: 128.205

LFMN Control (High) (Archives)
Nice, France

Feed Status: UP
Listen in your browser - HTML5 player(in browser, HTML5)
Click here to listen with your own player(launches your MP3 player)

LFMN 270200Z 31003KT 280V010 CAVOK 19/06 Q1001 NOSIG

LFMN Flight Activity (Flightaware)

Listeners: 1 out of 1672 total

Marseille Control Sector K1 (FL245-FL305): 126.780

LFMN FIS/Approach (Archives)
Nice, France

Feed Status: UP
Listen in your browser - HTML5 player(in browser, HTML5)
Click here to listen with your own player(launches your MP3 player)

LFMN 270200Z 31003KT 280V010 CAVOK 19/06 Q1001 NOSIG

LFMN Flight Activity (Flightaware)

Listeners: 0 out of 1672 total

Nice FIS/Approach (TMA4 NICE 2500ft - FL115): 120.850

LFMN Ground/Tower (Archives)
Nice, France

Feed Status: UP
Listen in your browser - HTML5 player(in browser, HTML5)
Click here to listen with your own player(launches your MP3 player)

LFMN 270200Z 31003KT 280V010 CAVOK 19/06 Q1001 NOSIG

LFMN Flight Activity (Flightaware)

Listeners: 0 out of 1672 total

Nice Ground: 121.700
Nice Tower: 118.700

LFPO Approach (Archives)
Paris, France

Feed Status: UP
Listen in your browser - HTML5 player(in browser, HTML5)
Click here to listen with your own player(launches your MP3 player)

LFPO 270200Z AUTO 26008KT CAVOK 10/09 Q1005 TEMPO 4000 -SHRA SCT020TCU

LFPO Flight Activity (Flightaware)

Listeners: 4 out of 1672 total

Orly Approach: 124.450
Orly Approach: 118.850
Orly Approach: 120.850
Orly Approach: 123.875

LFPO Tower (Archives)
Paris, France

Feed Status: UP
Listen in your browser - HTML5 player(in browser, HTML5)
Click here to listen with your own player(launches your MP3 player)

LFPO 270200Z AUTO 26008KT CAVOK 10/09 Q1005 TEMPO 4000 -SHRA SCT020TCU

LFPO Flight Activity (Flightaware)

Listeners: 7 out of 1672 total

Orly Tower: 120.500
Orly Tower: 118.700

LFPZ ATIS
Villacoublay, France

Feed Status: DOWN
Offline since: 2022-04-18 13:56:39 UTC

St. Cyr-L'Ecole ATIS: 131.025

LFPZ Tower
Villacoublay, France

Feed Status: DOWN
Offline since: 2022-04-18 12:22:39 UTC

St. Cyr-L'Ecole Tower: 118.000

LHBP Approach (Archives)
Budapest, Hungary

Feed Status: UP
Listen in your browser - HTML5 player(in browser, HTML5)
Click here to listen with your own player(launches your MP3 player)

LHBP 270230Z 14002KT 2300 0500NW R31L/P2000N R31R/1100D BCFG BR NSC 10/10 Q1003 TEMPO 1000 BR BCFG SCT001

LHBP Flight Activity (Flightaware)

Listeners: 0 out of 1672 total

Budapest Approach: 122.975
Budapest Approach (Upper): 123.860

LHBP Approach (Director) (Archives)
Budapest, Hungary

Feed Status: UP
Listen in your browser - HTML5 player(in browser, HTML5)
Click here to listen with your own player(launches your MP3 player)

LHBP 270230Z 14002KT 2300 0500NW R31L/P2000N R31R/1100D BCFG BR NSC 10/10 Q1003 TEMPO 1000 BR BCFG SCT001

LHBP Flight Activity (Flightaware)

Listeners: 0 out of 1672 total

Budapest Director: 119.510

LHBP ATIS (Archives)
Budapest, Hungary

Feed Status: UP
Listen in your browser - HTML5 player(in browser, HTML5)
Click here to listen with your own player(launches your MP3 player)

LHBP 270230Z 14002KT 2300 0500NW R31L/P2000N R31R/1100D BCFG BR NSC 10/10 Q1003 TEMPO 1000 BR BCFG SCT001

LHBP Flight Activity (Flightaware)

Listeners: 0 out of 1672 total

Budapest ATIS: 132.380

LHBP Clearance Delivery (Archives)
Budapest, Hungary

Feed Status: UP
Listen in your browser - HTML5 player(in browser, HTML5)
Click here to listen with your own player(launches your MP3 player)

LHBP 270230Z 14002KT 2300 0500NW R31L/P2000N R31R/1100D BCFG BR NSC 10/10 Q1003 TEMPO 1000 BR BCFG SCT001

LHBP Flight Activity (Flightaware)

Listeners: 0 out of 1672 total

Budapest Clearance Delivery: 134.540

LHBP Ground (Archives)
Budapest, Hungary

Feed Status: UP
Listen in your browser - HTML5 player(in browser, HTML5)
Click here to listen with your own player(launches your MP3 player)

LHBP 270230Z 14002KT 2300 0500NW R31L/P2000N R31R/1100D BCFG BR NSC 10/10 Q1003 TEMPO 1000 BR BCFG SCT001

LHBP Flight Activity (Flightaware)

Listeners: 0 out of 1672 total

Budapest Ground: 121.910

LHBP Info (Archives)
Budapest, Hungary

Feed Status: UP
Listen in your browser - HTML5 player(in browser, HTML5)
Click here to listen with your own player(launches your MP3 player)

LHBP 270230Z 14002KT 2300 0500NW R31L/P2000N R31R/1100D BCFG BR NSC 10/10 Q1003 TEMPO 1000 BR BCFG SCT001

LHBP Flight Activity (Flightaware)

Listeners: 0 out of 1672 total

Budapest Info: 119.350

LHBP Tower (Archives)
Budapest, Hungary

Feed Status: UP
Listen in your browser - HTML5 player(in browser, HTML5)
Click here to listen with your own player(launches your MP3 player)

LHBP 270230Z 14002KT 2300 0500NW R31L/P2000N R31R/1100D BCFG BR NSC 10/10 Q1003 TEMPO 1000 BR BCFG SCT001

LHBP Flight Activity (Flightaware)

Listeners: 0 out of 1672 total

Budapest Tower: 118.100

LHBP Twr/Info (Archives)
Budapest, Hungary

Feed Status: UP
Listen in your browser - HTML5 player(in browser, HTML5)
Click here to listen with your own player(launches your MP3 player)

LHBP 270230Z 14002KT 2300 0500NW R31L/P2000N R31R/1100D BCFG BR NSC 10/10 Q1003 TEMPO 1000 BR BCFG SCT001

LHBP Flight Activity (Flightaware)

Listeners: 0 out of 1672 total

Budapest Info: 119.350
Budapest Tower: 118.100

LHCC Control (East/West) (Archives)
Budapest, Hungary

Feed Status: UP
Listen in your browser - HTML5 player(in browser, HTML5)
Click here to listen with your own player(launches your MP3 player)

LHBP 270230Z 14002KT 2300 0500NW R31L/P2000N R31R/1100D BCFG BR NSC 10/10 Q1003 TEMPO 1000 BR BCFG SCT001

LHBP Flight Activity (Flightaware)

Listeners: 0 out of 1672 total

Budapest Control (East Low Sector): 120.375
Budapest Control (West Low Sector): 133.200

LHDC Info/Tower (Archives)
Debrecen, Hungary

Feed Status: UP
Listen in your browser - HTML5 player(in browser, HTML5)
Click here to listen with your own player(launches your MP3 player)

LHDC 270216Z AUTO VRB01KT 0450 R04/0500N FG VV001 10/10 Q1004

LHDC Flight Activity (Flightaware)

Listeners: 0 out of 1672 total

Debrecen Info/Tower: 125.900

LHEM CTAF
Esztergom, Hungary

Feed Status: DOWN
Offline since: 2022-08-23 06:58:26 UTC

Esztergom CTAF: 126.850

LHFH CTAF (Archives)
Farkashegy, Hungary

Feed Status: UP
Listen in your browser - HTML5 player(in browser, HTML5)
Click here to listen with your own player(launches your MP3 player)

LHFH Flight Activity (Flightaware)

Listeners: 0 out of 1672 total

Farkashegy Info (CTAF): 125.610

LHOY CTAF
Ocseny, Hungary

Feed Status: DOWN
Offline since: 2022-01-07 14:33:22 UTC

Ocseny CTAF: 122.830

LHPR Info/AFIS
Gyor, Hungary

Feed Status: DOWN
Offline since: 2022-07-11 08:08:23 UTC

LHPR 270145Z AUTO VRB02KT 5000 BR NSC 11/11 Q1002

Gyor AFIS: 129.910

LJLJ Info (Archives)
Ljubljana, Slovenia

Feed Status: UP
Listen in your browser - HTML5 player(in browser, HTML5)
Click here to listen with your own player(launches your MP3 player)

LJLJ 270200Z 23004KT 190V300 8000 SHRA FEW004 SCT050TCU OVC060 11/10 Q1002 NOSIG

LJLJ Flight Activity (Flightaware)

Listeners: 0 out of 1672 total

Ljubljana Info: 118.475

LJLJ Radar (Archives)
Ljubljana, Slovenia

Feed Status: UP
Listen in your browser - HTML5 player(in browser, HTML5)
Click here to listen with your own player(launches your MP3 player)

LJLJ 270200Z 23004KT 190V300 8000 SHRA FEW004 SCT050TCU OVC060 11/10 Q1002 NOSIG

LJLJ Flight Activity (Flightaware)

Listeners: 0 out of 1672 total

Ljubljana Approach: 135.275

LJLJ Tower (Archives)
Ljubljana, Slovenia

Feed Status: UP
Listen in your browser - HTML5 player(in browser, HTML5)
Click here to listen with your own player(launches your MP3 player)

LJLJ 270200Z 23004KT 190V300 8000 SHRA FEW004 SCT050TCU OVC060 11/10 Q1002 NOSIG

LJLJ Flight Activity (Flightaware)

Listeners: 0 out of 1672 total

Ljubljana Tower: 118.000

LJMB Tower (Archives)
Maribor, Slovenia

Feed Status: UP
Listen in your browser - HTML5 player(in browser, HTML5)
Click here to listen with your own player(launches your MP3 player)

LJMB 270200Z AUTO 00000KT 1000 R32/1600N BR FEW002/// OVC024/// 11/11 Q1002

LJMB Flight Activity (Flightaware)

Listeners: 0 out of 1672 total

Maribor Tower/Approach: 119.200

LJMS CTAF (Archives)
Murska Sobota, Slovenia

Feed Status: UP
Listen in your browser - HTML5 player(in browser, HTML5)
Click here to listen with your own player(launches your MP3 player)

LJMS Flight Activity (Flightaware)

Listeners: 0 out of 1672 total

Murska Sobota Aerodrome Radio: 123.500

LJPZ Tower (Archives)
Secovlje, Slovenia

Feed Status: UP
Listen in your browser - HTML5 player(in browser, HTML5)
Click here to listen with your own player(launches your MP3 player)

LJPZ 270200Z AUTO 11006KT 9999 FEW044/// BKN220/// 15/13 Q1001

LJPZ Flight Activity (Flightaware)

Listeners: 0 out of 1672 total

Portoroz Tower: 124.875

LKPM Tower
Pribram, Czech Republic

Feed Status: DOWN
Offline since: 2022-09-23 00:35:40 UTC

Pribram Tower: 118.755

LKAA FIR (High) (Archives)
Prague, Czech Republic

Feed Status: UP
Listen in your browser - HTML5 player(in browser, HTML5)
Click here to listen with your own player(launches your MP3 player)

LKAA Flight Activity (Flightaware)

Listeners: 0 out of 1672 total

LKAA FIR Sector West High / Praha Radar : 132.065

LKAA FIR (Low) (Archives)
Prague, Czech Republic

Feed Status: UP
Listen in your browser - HTML5 player(in browser, HTML5)
Click here to listen with your own player(launches your MP3 player)

LKAA Flight Activity (Flightaware)

Listeners: 0 out of 1672 total

LKAA FIR Sector West Low / Praha Radar: 120.275

LKPR Approach (Archives)
Prague, Czech Republic

Feed Status: UP
Listen in your browser - HTML5 player(in browser, HTML5)
Click here to listen with your own player(launches your MP3 player)

LKPR 270200Z 16009KT CAVOK 10/08 Q0999 NOSIG

LKPR Flight Activity (Flightaware)

Listeners: 2 out of 1672 total

Prague Approach/Radar: 127.580

LKPR Clearance Del (Archives)
Prague, Czech Republic

Feed Status: UP
Listen in your browser - HTML5 player(in browser, HTML5)
Click here to listen with your own player(launches your MP3 player)

LKPR 270200Z 16009KT CAVOK 10/08 Q0999 NOSIG

LKPR Flight Activity (Flightaware)

Listeners: 0 out of 1672 total

Prague/Ruzyne Clearance Delivery: 120.060

LKPR Director/Ruzyne Radar (Archives)
Prague, Czech Republic

Feed Status: UP
Listen in your browser - HTML5 player(in browser, HTML5)
Click here to listen with your own player(launches your MP3 player)

LKPR 270200Z 16009KT CAVOK 10/08 Q0999 NOSIG

LKPR Flight Activity (Flightaware)

Listeners: 1 out of 1672 total

Prague Director/Ruzyne Radar: 119.010

LKPR Ground (Archives)
Prague, Czech Republic

Feed Status: UP
Listen in your browser - HTML5 player(in browser, HTML5)
Click here to listen with your own player(launches your MP3 player)

LKPR 270200Z 16009KT CAVOK 10/08 Q0999 NOSIG

LKPR Flight Activity (Flightaware)

Listeners: 0 out of 1672 total

Prague/Ruzyne Ground: 121.910

LKPR Tower (Archives)
Prague, Czech Republic

Feed Status: UP
Listen in your browser - HTML5 player(in browser, HTML5)
Click here to listen with your own player(launches your MP3 player)

LKPR 270200Z 16009KT CAVOK 10/08 Q0999 NOSIG

LKPR Flight Activity (Flightaware)

Listeners: 3 out of 1672 total

Prague/Ruzyne Tower: 134.560

LKTB Gnd/Twr/Radar (Archives)
Brno, Czech Republic

Feed Status: UP
Listen in your browser - HTML5 player(in browser, HTML5)
Click here to listen with your own player(launches your MP3 player)

LKTB 270200Z VRB02KT CAVOK 09/08 Q1001 NOSIG

LKTB Flight Activity (Flightaware)

Listeners: 1 out of 1672 total

Brno Ground: 125.430
Brno Handling: 131.800
Brno Tower: 119.605
Praha Radar (Approach): 127.350

LMML GndTwr/App/Control (Archives)
Luqa, Malta

Feed Status: UP
Listen in your browser - HTML5 player(in browser, HTML5)
Click here to listen with your own player(launches your MP3 player)

LMML 270215Z VRB02KT CAVOK 24/20 Q1010 NOSIG

LMML Flight Activity (Flightaware)

Listeners: 0 out of 1672 total

Emergency/Guard: 121.500
Luqa Ground: 121.600
Luqa Radar: 128.150
Luqa Tower: 135.100
Malta Radar - East (Primary): 122.775
Malta Radar - East (Secondary): 123.625
Malta Radar - UHF: 284.500
Malta Radar - West (Primary): 130.975
Malta Radar - West (Secondary): 127.525

LPCS Tower
Cascais, Portugal

Feed Status: DOWN
Offline since: 2022-09-26 11:53:22 UTC


Cascais Tower: 120.305

LPLA Twr/App (Archives)
Lajes, Portugal

Feed Status: UP
Listen in your browser - HTML5 player(in browser, HTML5)
Click here to listen with your own player(launches your MP3 player)

LPLA 270200Z /////KT 9999 SCT025 BKN040 20/17 Q1030

LPLA Flight Activity (Flightaware)

Listeners: 0 out of 1672 total

Lajes Approach: 135.000
Lajes Tower: 122.100

LPMA App/LPPC Center
Madeira, Portugal

Feed Status: DOWN
Offline since: 2022-09-25 15:29:40 UTC

Lisboa Control (Madeira Sector): 132.255
Madeira Approach: 119.605

LPMA Approach (Archives)
Madeira, Portugal

Feed Status: UP
Listen in your browser - HTML5 player(in browser, HTML5)
Click here to listen with your own player(launches your MP3 player)

LPMA 270200Z 36008KT 330V030 9999 BKN016 20/13 Q1022

LPMA Flight Activity (Flightaware)

Listeners: 0 out of 1672 total

Madeira Approach: 119.605

LPPR Approach #1 (Archives)
Porto, Portugal

Feed Status: UP
Listen in your browser - HTML5 player(in browser, HTML5)
Click here to listen with your own player(launches your MP3 player)

LPPR 270200Z 00000KT CAVOK 12/09 Q1020

LPPR Flight Activity (Flightaware)

Listeners: 0 out of 1672 total

Porto Approach: 121.105

LPPT Approach (Archives)
Lisbon, Portugal

Feed Status: UP
Listen in your browser - HTML5 player(in browser, HTML5)
Click here to listen with your own player(launches your MP3 player)

LPPT 270200Z 33013KT CAVOK 16/13 Q1019

LPPT Flight Activity (Flightaware)

Listeners: 0 out of 1672 total

Lisbon Approach: 119.105

LRCL Twr/App #1 (Archives)
Cluj-Napoca, Romania

Feed Status: UP
Listen in your browser - HTML5 player(in browser, HTML5)
Click here to listen with your own player(launches your MP3 player)

LRCL 270200Z VRB01KT 6000 BKN067 12/12 Q1004

LRCL Flight Activity (Flightaware)

Listeners: 0 out of 1672 total

Cluj Approach: 126.425
Cluj Tower: 118.705

LRCL Twr/App/ACC (Archives)
Cluj-Napoca, Romania

Feed Status: UP
Listen in your browser - HTML5 player(in browser, HTML5)
Click here to listen with your own player(launches your MP3 player)

LRCL 270200Z VRB01KT 6000 BKN067 12/12 Q1004

LRCL Flight Activity (Flightaware)

Listeners: 0 out of 1672 total

Cluj Approach: 126.425
Cluj Tower: 118.705
Napoc ACC: 127.075

LROP Ground (Archives)
Bucharest, Romania

Feed Status: UP
Listen in your browser - HTML5 player(in browser, HTML5)
Click here to listen with your own player(launches your MP3 player)

LROP 270200Z 23003KT 8000 FEW050CB 15/15 Q1004 NOSIG

LROP Flight Activity (Flightaware)

Listeners: 0 out of 1672 total

Bucharest Ground: 121.855

LROP Radar (Archives)
Bucharest, Romania

Feed Status: UP
Listen in your browser - HTML5 player(in browser, HTML5)
Click here to listen with your own player(launches your MP3 player)

LROP 270200Z 23003KT 8000 FEW050CB 15/15 Q1004 NOSIG

LROP Flight Activity (Flightaware)

Listeners: 0 out of 1672 total

Bucharest Radar (Arges Mid sector): 121.175
Bucharest Radar (Arges Top Sector): 123.265
Bucharest Radar (Lomos Top Sector): 132.865

LROP Tower/Approach (Archives)
Bucharest, Romania

Feed Status: UP
Listen in your browser - HTML5 player(in browser, HTML5)
Click here to listen with your own player(launches your MP3 player)

LROP 270200Z 23003KT 8000 FEW050CB 15/15 Q1004 NOSIG

LROP Flight Activity (Flightaware)

Listeners: 0 out of 1672 total

Bucharest Approach: 119.415
Bucharest Director: 127.155
Bucharest Tower: 118.805

LROP Twr/App/Radar (Archives)
Bucharest, Romania

Feed Status: UP
Listen in your browser - HTML5 player(in browser, HTML5)
Click here to listen with your own player(launches your MP3 player)

LROP 270200Z 23003KT 8000 FEW050CB 15/15 Q1004 NOSIG

LROP Flight Activity (Flightaware)

Listeners: 5 out of 1672 total

Bucharest Approach: 119.415
Bucharest Director: 127.155
Bucharest Radar (Arges Mid sector): 121.175
Bucharest Radar (Arges Top Sector): 123.265
Bucharest Radar (Lomos Top Sector): 132.865
Bucharest Tower: 118.805

LRSB Tower/CTAF (Archives)
Sibiu, Romania

Feed Status: UP
Listen in your browser - HTML5 player(in browser, HTML5)
Click here to listen with your own player(launches your MP3 player)

LRSB 270200Z 19003KT 120V250 5000 0900S R27/P2000D BCFG BR NSC 11/10 Q1004

LRSB Flight Activity (Flightaware)

Listeners: 0 out of 1672 total

Sibiu Tower: 121.305

LRTR Tower (Archives)
Timisoara, Romania

Feed Status: UP
Listen in your browser - HTML5 player(in browser, HTML5)
Click here to listen with your own player(launches your MP3 player)

LRTR 270200Z 15004KT 9000 FEW005 OVC012 15/15 Q1003

LRTR Flight Activity (Flightaware)

Listeners: 0 out of 1672 total

ARAD Approach: 127.250
Timisoara Tower: 120.100

LSGG Arr/Dep (Archives)
Geneva, Switzerland

Feed Status: UP
Listen in your browser - HTML5 player(in browser, HTML5)
Click here to listen with your own player(launches your MP3 player)

LSGG 270220Z AUTO 21010KT 9999 FEW037 SCT050 BKN080 11/08 Q1006

LSGG Flight Activity (Flightaware)

Listeners: 0 out of 1672 total

Geneva Arrival: 136.255
Geneva Departure: 119.530

LSGG Arrival (Archives)
Geneva, Switzerland

Feed Status: UP
Listen in your browser - HTML5 player(in browser, HTML5)
Click here to listen with your own player(launches your MP3 player)

LSGG 270220Z AUTO 21010KT 9999 FEW037 SCT050 BKN080 11/08 Q1006

LSGG Flight Activity (Flightaware)

Listeners: 0 out of 1672 total

Geneva Arrival: 136.255

LSGG ATIS (Archives)
Geneva, Switzerland

Feed Status: UP
Listen in your browser - HTML5 player(in browser, HTML5)
Click here to listen with your own player(launches your MP3 player)

LSGG 270220Z AUTO 21010KT 9999 FEW037 SCT050 BKN080 11/08 Q1006

LSGG Flight Activity (Flightaware)

Listeners: 0 out of 1672 total

Geneva ATIS: 135.575

LSGG Delta (VFR) (Archives)
Geneva, Switzerland

Feed Status: UP
Listen in your browser - HTML5 player(in browser, HTML5)
Click here to listen with your own player(launches your MP3 player)

LSGG 270220Z AUTO 21010KT 9999 FEW037 SCT050 BKN080 11/08 Q1006

LSGG Flight Activity (Flightaware)

Listeners: 0 out of 1672 total

Geneva Delta (VFR): 119.175

LSGG Departure (Archives)
Geneva, Switzerland

Feed Status: UP
Listen in your browser - HTML5 player(in browser, HTML5)
Click here to listen with your own player(launches your MP3 player)

LSGG 270220Z AUTO 21010KT 9999 FEW037 SCT050 BKN080 11/08 Q1006

LSGG Flight Activity (Flightaware)

Listeners: 0 out of 1672 total

Geneva Departure: 119.530

LSGG Glider (Archives)
Geneva, Switzerland

Feed Status: UP
Listen in your browser - HTML5 player(in browser, HTML5)
Click here to listen with your own player(launches your MP3 player)

LSGG 270220Z AUTO 21010KT 9999 FEW037 SCT050 BKN080 11/08 Q1006

LSGG Flight Activity (Flightaware)

Listeners: 0 out of 1672 total

Geneva Glider: 124.750

LSGG Info (VFR) (Archives)
Geneva, Switzerland

Feed Status: UP
Listen in your browser - HTML5 player(in browser, HTML5)
Click here to listen with your own player(launches your MP3 player)

LSGG 270220Z AUTO 21010KT 9999 FEW037 SCT050 BKN080 11/08 Q1006

LSGG Flight Activity (Flightaware)

Listeners: 0 out of 1672 total

Geneva Information (VFR): 126.350

LSGG Radar Ini N/E/S (Archives)
Geneva, Switzerland

Feed Status: UP
Listen in your browser - HTML5 player(in browser, HTML5)
Click here to listen with your own player(launches your MP3 player)

LSGG 270220Z AUTO 21010KT 9999 FEW037 SCT050 BKN080 11/08 Q1006

LSGG Flight Activity (Flightaware)

Listeners: 0 out of 1672 total

Geneva Radar Initial East: 128.905
Geneva Radar Initial North: 134.030
Geneva Radar Initial South: 124.225

LSGG Radar Initial East (Archives)
Geneva, Switzerland

Feed Status: UP
Listen in your browser - HTML5 player(in browser, HTML5)
Click here to listen with your own player(launches your MP3 player)

LSGG 270220Z AUTO 21010KT 9999 FEW037 SCT050 BKN080 11/08 Q1006

LSGG Flight Activity (Flightaware)

Listeners: 0 out of 1672 total

Geneva Radar Initial East: 128.905

LSGG Radar Initial North (Archives)
Geneva, Switzerland

Feed Status: UP
Listen in your browser - HTML5 player(in browser, HTML5)
Click here to listen with your own player(launches your MP3 player)

LSGG 270220Z AUTO 21010KT 9999 FEW037 SCT050 BKN080 11/08 Q1006

LSGG Flight Activity (Flightaware)

Listeners: 0 out of 1672 total

Geneva Radar Initial North: 134.030

LSGG Radar Initial South (Archives)
Geneva, Switzerland

Feed Status: UP
Listen in your browser - HTML5 player(in browser, HTML5)
Click here to listen with your own player(launches your MP3 player)

LSGG 270220Z AUTO 21010KT 9999 FEW037 SCT050 BKN080 11/08 Q1006

LSGG Flight Activity (Flightaware)

Listeners: 0 out of 1672 total

Geneva Radar Initial South: 124.225

LSGG Radar L1 250-280 (Archives)
Geneva, Switzerland

Feed Status: UP
Listen in your browser - HTML5 player(in browser, HTML5)
Click here to listen with your own player(launches your MP3 player)

LSGG 270220Z AUTO 21010KT 9999 FEW037 SCT050 BKN080 11/08 Q1006

LSGG Flight Activity (Flightaware)

Listeners: 0 out of 1672 total

Geneva Radar L1 FL250-280: 134.850

LSGG Radar L1/L2/L3/L4/L5 (Archives)
Geneva, Switzerland

Feed Status: UP
Listen in your browser - HTML5 player(in browser, HTML5)
Click here to listen with your own player(launches your MP3 player)

LSGG 270220Z AUTO 21010KT 9999 FEW037 SCT050 BKN080 11/08 Q1006

LSGG Flight Activity (Flightaware)

Listeners: 1 out of 1672 total

Geneva Radar L1 FL250-280: 134.850
Geneva Radar L2 FL290-310: 126.050
Geneva Radar L3 FL320-330: 134.315
Geneva Radar L3 FL320-330: 136.015
Geneva Radar L5 FL360-370: 128.155

LSGG Radar L2 290-310 (Archives)
Geneva, Switzerland

Feed Status: UP
Listen in your browser - HTML5 player(in browser, HTML5)
Click here to listen with your own player(launches your MP3 player)

LSGG 270220Z AUTO 21010KT 9999 FEW037 SCT050 BKN080 11/08 Q1006

LSGG Flight Activity (Flightaware)

Listeners: 0 out of 1672 total

Geneva Radar L2 FL290-310: 126.050

LSGG Radar L3 320-330 (Archives)
Geneva, Switzerland

Feed Status: UP
Listen in your browser - HTML5 player(in browser, HTML5)
Click here to listen with your own player(launches your MP3 player)

LSGG 270220Z AUTO 21010KT 9999 FEW037 SCT050 BKN080 11/08 Q1006

LSGG Flight Activity (Flightaware)

Listeners: 0 out of 1672 total

Geneva Radar L3 FL320-330: 134.315

LSGG Radar L4 340-350 (Archives)
Geneva, Switzerland

Feed Status: UP
Listen in your browser - HTML5 player(in browser, HTML5)
Click here to listen with your own player(launches your MP3 player)

LSGG 270220Z AUTO 21010KT 9999 FEW037 SCT050 BKN080 11/08 Q1006

LSGG Flight Activity (Flightaware)

Listeners: 0 out of 1672 total

Geneva Radar L4 FL340-350: 136.015

LSGG Radar L5 360-370 (Archives)
Geneva, Switzerland

Feed Status: UP
Listen in your browser - HTML5 player(in browser, HTML5)
Click here to listen with your own player(launches your MP3 player)

LSGG 270220Z AUTO 21010KT 9999 FEW037 SCT050 BKN080 11/08 Q1006

LSGG Flight Activity (Flightaware)

Listeners: 0 out of 1672 total

Geneva Radar L5 FL360-370: 128.155

LSGS Gnd/Twr/App (Archives)
Sion, Switzerland

Feed Status: UP
Listen in your browser - HTML5 player(in browser, HTML5)
Click here to listen with your own player(launches your MP3 player)

LSGS 270220Z AUTO VRB02KT CAVOK 10/08 Q1004

LSGS Flight Activity (Flightaware)

Listeners: 0 out of 1672 total

Alpine Jet Service Handling: 131.675
Sion Airport Handling: 131.475
Sion Approach (IFR ARR MIL OFF): 126.825
Sion Ground: 121.700
Sion Tower: 118.275

LSMD Tower (Archives)
Dubendorf, Switzerland

Feed Status: UP
Listen in your browser - HTML5 player(in browser, HTML5)
Click here to listen with your own player(launches your MP3 player)

LSZH 270220Z AUTO 25013KT 9999 -RA FEW012 SCT017 BKN050 10/08 Q1002 TEMPO SHRA

LSZH Flight Activity (Flightaware)

Listeners: 0 out of 1672 total

Dubendorf Tower: 118.975

LSMP Arrival (Archives)
Payerne, Switzerland

Feed Status: UP
Listen in your browser - HTML5 player(in browser, HTML5)
Click here to listen with your own player(launches your MP3 player)

LSMP 270220Z AUTO 24014KT 9999NDV -SHRA FEW036 SCT041 BKN048 11/08 Q1004 RMK

LSMP Flight Activity (Flightaware)

Listeners: 0 out of 1672 total

Payerne Arrival: 136.350

LSMP Arrival/Tower (Archives)
Payerne, Switzerland

Feed Status: UP
Listen in your browser - HTML5 player(in browser, HTML5)
Click here to listen with your own player(launches your MP3 player)

LSMP 270220Z AUTO 24014KT 9999NDV -SHRA FEW036 SCT041 BKN048 11/08 Q1004 RMK

LSMP Flight Activity (Flightaware)

Listeners: 0 out of 1672 total

Payerne Arrival: 136.350
Payerne Tower: 128.675

LSMP Tower (Archives)
Payerne, Switzerland

Feed Status: UP
Listen in your browser - HTML5 player(in browser, HTML5)
Click here to listen with your own player(launches your MP3 player)

LSMP 270220Z AUTO 24014KT 9999NDV -SHRA FEW036 SCT041 BKN048 11/08 Q1004 RMK

LSMP Flight Activity (Flightaware)

Listeners: 0 out of 1672 total

Payerne Tower: 128.675

LSPM AFIS (Archives)
Ambri, Switzerland

Feed Status: UP
Listen in your browser - HTML5 player(in browser, HTML5)
Click here to listen with your own player(launches your MP3 player)

LSPM Flight Activity (Flightaware)

Listeners: 0 out of 1672 total

Ambri AFIS: 118.525

LSZA Tower (Archives)
Agno, Switzerland

Feed Status: UP
Listen in your browser - HTML5 player(in browser, HTML5)
Click here to listen with your own player(launches your MP3 player)

LSZA 270220Z AUTO VRB01KT 9999 SCT043 11/11 Q1000

LSZA Flight Activity (Flightaware)

Listeners: 1 out of 1672 total

Lugano Tower: 120.250

LSZB App/Dep (Archives)
Bern, Switzerland

Feed Status: UP
Listen in your browser - HTML5 player(in browser, HTML5)
Click here to listen with your own player(launches your MP3 player)

LSZB 270220Z AUTO 28010KT 210V300 9999 FEW035 SCT043 BKN050 11/07 Q1003

LSZB Flight Activity (Flightaware)

Listeners: 0 out of 1672 total

Bern Arrival/Departure: 127.325

LSZB ATIS (Archives)
Bern, Switzerland

Feed Status: UP
Listen in your browser - HTML5 player(in browser, HTML5)
Click here to listen with your own player(launches your MP3 player)

LSZB 270220Z AUTO 28010KT 210V300 9999 FEW035 SCT043 BKN050 11/07 Q1003

LSZB Flight Activity (Flightaware)

Listeners: 0 out of 1672 total

Bern ATIS: 125.130

LSZB Clearance Delivery (Archives)
Bern, Switzerland

Feed Status: UP
Listen in your browser - HTML5 player(in browser, HTML5)
Click here to listen with your own player(launches your MP3 player)

LSZB 270220Z AUTO 28010KT 210V300 9999 FEW035 SCT043 BKN050 11/07 Q1003

LSZB Flight Activity (Flightaware)

Listeners: 0 out of 1672 total

Bern Clearance Delivery: 121.905

LSZB Del/Twr/App/Dep (Archives)
Bern, Switzerland

Feed Status: UP
Listen in your browser - HTML5 player(in browser, HTML5)
Click here to listen with your own player(launches your MP3 player)

LSZB 270220Z AUTO 28010KT 210V300 9999 FEW035 SCT043 BKN050 11/07 Q1003

LSZB Flight Activity (Flightaware)

Listeners: 0 out of 1672 total

Bern Arrival/Departure: 127.325
Bern Clearance Delivery: 121.905
Bern Tower: 121.025

LSZB Tower (Archives)
Bern, Switzerland

Feed Status: UP
Listen in your browser - HTML5 player(in browser, HTML5)
Click here to listen with your own player(launches your MP3 player)

LSZB 270220Z AUTO 28010KT 210V300 9999 FEW035 SCT043 BKN050 11/07 Q1003

LSZB Flight Activity (Flightaware)

Listeners: 0 out of 1672 total

Bern Tower: 121.025

LSZB Twr/App/Dep (Archives)
Bern, Switzerland

Feed Status: UP
Listen in your browser - HTML5 player(in browser, HTML5)
Click here to listen with your own player(launches your MP3 player)

LSZB 270220Z AUTO 28010KT 210V300 9999 FEW035 SCT043 BKN050 11/07 Q1003

LSZB Flight Activity (Flightaware)

Listeners: 0 out of 1672 total

Bern Arrival/Departure: 127.325
Bern Tower: 121.025

LSZG Tower (Archives)
Grenchen, Switzerland

Feed Status: UP
Listen in your browser - HTML5 player(in browser, HTML5)
Click here to listen with your own player(launches your MP3 player)

LSZG 270220Z AUTO 23006KT 9999 FEW029 SCT032 OVC048 10/09 Q1003

LSZG Flight Activity (Flightaware)

Listeners: 0 out of 1672 total

Grenchen Tower: 120.100

LSZH Approach (East) (Archives)
Zurich, Switzerland

Feed Status: UP
Listen in your browser - HTML5 player(in browser, HTML5)
Click here to listen with your own player(launches your MP3 player)

LSZH 270220Z AUTO 25013KT 9999 -RA FEW012 SCT017 BKN050 10/08 Q1002 TEMPO SHRA

LSZH Flight Activity (Flightaware)

Listeners: 0 out of 1672 total

Zurich Approach (East): 135.230

LSZH Approach (Final/125.325) (Archives)
Zurich, Switzerland

Feed Status: UP
Listen in your browser - HTML5 player(in browser, HTML5)
Click here to listen with your own player(launches your MP3 player)

LSZH 270220Z AUTO 25013KT 9999 -RA FEW012 SCT017 BKN050 10/08 Q1002 TEMPO SHRA

LSZH Flight Activity (Flightaware)

Listeners: 0 out of 1672 total

Zurich Approach (Final): 125.325

LSZH Apron (South) (Archives)
Zurich, Switzerland

Feed Status: UP
Listen in your browser - HTML5 player(in browser, HTML5)
Click here to listen with your own player(launches your MP3 player)

LSZH 270220Z AUTO 25013KT 9999 -RA FEW012 SCT017 BKN050 10/08 Q1002 TEMPO SHRA

LSZH Flight Activity (Flightaware)

Listeners: 2 out of 1672 total

Zurich Apron (South): 121.755

LSZH Apron (West) (Archives)
Zurich, Switzerland

Feed Status: UP
Listen in your browser - HTML5 player(in browser, HTML5)
Click here to listen with your own player(launches your MP3 player)

LSZH 270220Z AUTO 25013KT 9999 -RA FEW012 SCT017 BKN050 10/08 Q1002 TEMPO SHRA

LSZH Flight Activity (Flightaware)

Listeners: 0 out of 1672 total

Zurich Apron (West): 121.855

LSZH Clearance Delivery (Archives)
Zurich, Switzerland

Feed Status: UP
Listen in your browser - HTML5 player(in browser, HTML5)
Click here to listen with your own player(launches your MP3 player)

LSZH 270220Z AUTO 25013KT 9999 -RA FEW012 SCT017 BKN050 10/08 Q1002 TEMPO SHRA

LSZH Flight Activity (Flightaware)

Listeners: 1 out of 1672 total

Zurich Clearance Delivery: 121.925

LSZH Departure 125.950 (Archives)
Zurich, Switzerland

Feed Status: UP
Listen in your browser - HTML5 player(in browser, HTML5)
Click here to listen with your own player(launches your MP3 player)

LSZH 270220Z AUTO 25013KT 9999 -RA FEW012 SCT017 BKN050 10/08 Q1002 TEMPO SHRA

LSZH Flight Activity (Flightaware)

Listeners: 1 out of 1672 total

Zurich Departure: 125.950

LSZH Ground (Archives)
Zurich, Switzerland

Feed Status: UP
Listen in your browser - HTML5 player(in browser, HTML5)
Click here to listen with your own player(launches your MP3 player)

LSZH 270220Z AUTO 25013KT 9999 -RA FEW012 SCT017 BKN050 10/08 Q1002 TEMPO SHRA

LSZH Flight Activity (Flightaware)

Listeners: 0 out of 1672 total

Zurich Ground: 121.905

LSZH Radar East 133.905 (Archives)
Zurich, Switzerland

Feed Status: UP
Listen in your browser - HTML5 player(in browser, HTML5)
Click here to listen with your own player(launches your MP3 player)

LSZH 270220Z AUTO 25013KT 9999 -RA FEW012 SCT017 BKN050 10/08 Q1002 TEMPO SHRA

LSZH Flight Activity (Flightaware)

Listeners: 1 out of 1672 total

Zurich Radar (Below FL240 East): 133.905

LSZH Radar M1 133.050 (Archives)
Zurich, Switzerland

Feed Status: UP
Listen in your browser - HTML5 player(in browser, HTML5)
Click here to listen with your own player(launches your MP3 player)

LSZH 270220Z AUTO 25013KT 9999 -RA FEW012 SCT017 BKN050 10/08 Q1002 TEMPO SHRA

LSZH Flight Activity (Flightaware)

Listeners: 0 out of 1672 total

Zurich Radar M1: 133.050

LSZH Radar M2 133.405 (Archives)
Zurich, Switzerland

Feed Status: UP
Listen in your browser - HTML5 player(in browser, HTML5)
Click here to listen with your own player(launches your MP3 player)

LSZH 270220Z AUTO 25013KT 9999 -RA FEW012 SCT017 BKN050 10/08 Q1002 TEMPO SHRA

LSZH Flight Activity (Flightaware)

Listeners: 0 out of 1672 total

Zurich Radar M2: 133.405

LSZH Radar M3 132.815 (Archives)
Zurich, Switzerland

Feed Status: UP
Listen in your browser - HTML5 player(in browser, HTML5)
Click here to listen with your own player(launches your MP3 player)

LSZH 270220Z AUTO 25013KT 9999 -RA FEW012 SCT017 BKN050 10/08 Q1002 TEMPO SHRA

LSZH Flight Activity (Flightaware)

Listeners: 0 out of 1672 total

Zurich Radar: 132.815

LSZH Radar M4 134.605 (Archives)
Zurich, Switzerland

Feed Status: UP
Listen in your browser - HTML5 player(in browser, HTML5)
Click here to listen with your own player(launches your MP3 player)

LSZH 270220Z AUTO 25013KT 9999 -RA FEW012 SCT017 BKN050 10/08 Q1002 TEMPO SHRA

LSZH Flight Activity (Flightaware)

Listeners: 0 out of 1672 total

Zurich Radar M4: 134.605

LSZH Radar M5 132.835 (Archives)
Zurich, Switzerland

Feed Status: UP
Listen in your browser - HTML5 player(in browser, HTML5)
Click here to listen with your own player(launches your MP3 player)

LSZH 270220Z AUTO 25013KT 9999 -RA FEW012 SCT017 BKN050 10/08 Q1002 TEMPO SHRA

LSZH Flight Activity (Flightaware)

Listeners: 0 out of 1672 total

Zurich Radar M5: 132.835

LSZH Radar M6 133.690 (Archives)
Zurich, Switzerland

Feed Status: UP
Listen in your browser - HTML5 player(in browser, HTML5)
Click here to listen with your own player(launches your MP3 player)

LSZH 270220Z AUTO 25013KT 9999 -RA FEW012 SCT017 BKN050 10/08 Q1002 TEMPO SHRA

LSZH Flight Activity (Flightaware)

Listeners: 0 out of 1672 total

Zurich Radar M6: 133.690

LSZH Radar North 136.155 (Archives)
Zurich, Switzerland

Feed Status: UP
Listen in your browser - HTML5 player(in browser, HTML5)
Click here to listen with your own player(launches your MP3 player)

LSZH 270220Z AUTO 25013KT 9999 -RA FEW012 SCT017 BKN050 10/08 Q1002 TEMPO SHRA

LSZH Flight Activity (Flightaware)

Listeners: 0 out of 1672 total

Zurich Radar (Below FL240 North): 136.155

LSZH Radar West 135.680 (Archives)
Zurich, Switzerland

Feed Status: UP
Listen in your browser - HTML5 player(in browser, HTML5)
Click here to listen with your own player(launches your MP3 player)

LSZH 270220Z AUTO 25013KT 9999 -RA FEW012 SCT017 BKN050 10/08 Q1002 TEMPO SHRA

LSZH Flight Activity (Flightaware)

Listeners: 0 out of 1672 total


LSZH Tower (Archives)
Zurich, Switzerland

Feed Status: UP
Listen in your browser - HTML5 player(in browser, HTML5)
Click here to listen with your own player(launches your MP3 player)

LSZH 270220Z AUTO 25013KT 9999 -RA FEW012 SCT017 BKN050 10/08 Q1002 TEMPO SHRA

LSZH Flight Activity (Flightaware)

Listeners: 6 out of 1672 total

Zurich Tower: 118.100

LSZH Tower (14/32) (Archives)
Zurich, Switzerland

Feed Status: UP
Listen in your browser - HTML5 player(in browser, HTML5)
Click here to listen with your own player(launches your MP3 player)

LSZH 270220Z AUTO 25013KT 9999 -RA FEW012 SCT017 BKN050 10/08 Q1002 TEMPO SHRA

LSZH Flight Activity (Flightaware)

Listeners: 2 out of 1672 total

Zurich Tower (Rwy 14 App/32 Takeoff): 120.225

LSZH Twr/Gnd (backup) (Archives)
Zurich, Switzerland

Feed Status: UP
Listen in your browser - HTML5 player(in browser, HTML5)
Click here to listen with your own player(launches your MP3 player)

LSZH 270220Z AUTO 25013KT 9999 -RA FEW012 SCT017 BKN050 10/08 Q1002 TEMPO SHRA

LSZH Flight Activity (Flightaware)

Listeners: 0 out of 1672 total

Zurich Twr/Gnd (backup): 119.700

LSZL Tower (Archives)
Locarno, Switzerland

Feed Status: UP
Listen in your browser - HTML5 player(in browser, HTML5)
Click here to listen with your own player(launches your MP3 player)

LSZL 270220Z AUTO 00000KT 9999NDV FEW130 11/10 Q1000 RMK

LSZL Flight Activity (Flightaware)

Listeners: 1 out of 1672 total


LSZN CTAF
Zurich, Switzerland

Feed Status: DOWN
Offline since: 2022-09-21 07:19:39 UTC

Hausen am Albis CTAF: 130.755

LSZR Tower (Archives)
Altenrhein, Switzerland

Feed Status: UP
Listen in your browser - HTML5 player(in browser, HTML5)
Click here to listen with your own player(launches your MP3 player)

LSZR 270220Z AUTO VRB03KT 9999 -RA BKN050 10/09 Q1001

LSZR Flight Activity (Flightaware)

Listeners: 0 out of 1672 total

Altenrhein Tower: 135.425

LSZW CTAF (Archives)
Thun, Switzerland

Feed Status: UP
Listen in your browser - HTML5 player(in browser, HTML5)
Click here to listen with your own player(launches your MP3 player)

LSZW Flight Activity (Flightaware)

Listeners: 0 out of 1672 total

Thun CTAF/Info: 123.250

LTBA Gnd/Twr/App (Archives)
Istanbul, Turkey

Feed Status: UP
Listen in your browser - HTML5 player(in browser, HTML5)
Click here to listen with your own player(launches your MP3 player)

LTBA 270220Z 23008KT CAVOK 21/11 Q1008 RMK RWY23 25009KT

LTBA Flight Activity (Flightaware)

Listeners: 0 out of 1672 total

Istanbul Approach: 126.425
Istanbul Approach: 133.075
Istanbul Tower: 118.100
Istanbul Tower: 118.375

LTFJ Del/Gnd/Twr (Archives)
Istanbul, Turkey

Feed Status: UP
Listen in your browser - HTML5 player(in browser, HTML5)
Click here to listen with your own player(launches your MP3 player)

LTFJ 270220Z 35003KT 310V040 CAVOK 19/09 Q1009 NOSIG RMK RWY24 VRB02KT

LTFJ Flight Activity (Flightaware)

Listeners: 2 out of 1672 total

Pegasus Dispatch: 131.750

LTFM App/Dep
Istanbul, Turkey

Feed Status: DOWN
Offline since: 2022-09-13 11:29:39 UTC

LTFM 270220Z 18007KT CAVOK 18/12 Q1008 NOSIG RMK RWY17L VRB04KT RWY34L 21007KT RWY16R VRB01KT RWY36 18012KT RWY18 20011KT

Yesilkoy Approach: 130.300
Yesilkoy Approach: 118.950
Yesilkoy Radar: 132.475
Yesilkoy Radar: 132.050
Yesilkoy Radar: 131.125
Yesilkoy Radar: 132.325

LTFM Gnd/Twr (Archives)
Istanbul, Turkey

Feed Status: UP
Listen in your browser - HTML5 player(in browser, HTML5)
Click here to listen with your own player(launches your MP3 player)

LTFM 270220Z 18007KT CAVOK 18/12 Q1008 NOSIG RMK RWY17L VRB04KT RWY34L 21007KT RWY16R VRB01KT RWY36 18012KT RWY18 20011KT

LTFM Flight Activity (Flightaware)

Listeners: 0 out of 1672 total

Istanbul Ground : 122.600
Istanbul Ground: 124.425
Istanbul Tower: 118.075
Istanbul Tower: 122.700
Istanbul Tower: 127.500

LUKK ACC #1 (Archives)
Chisinau, Moldova

Feed Status: UP
Listen in your browser - HTML5 player(in browser, HTML5)
Click here to listen with your own player(launches your MP3 player)

LUKK 270230Z 23005KT 9999 -RA NSC 15/13 Q1004 NOSIG

LUKK Flight Activity (Flightaware)

Listeners: 0 out of 1672 total

Chisinau ACC: 130.975

LUKK ACC #2 (Archives)
Chisinau, Moldova

Feed Status: UP
Listen in your browser - HTML5 player(in browser, HTML5)
Click here to listen with your own player(launches your MP3 player)

LUKK 270230Z 23005KT 9999 -RA NSC 15/13 Q1004 NOSIG

LUKK Flight Activity (Flightaware)

Listeners: 0 out of 1672 total

Chisinau ACC: 128.975

LUKK Air to Air (Archives)
Chisinau, Moldova

Feed Status: UP
Listen in your browser - HTML5 player(in browser, HTML5)
Click here to listen with your own player(launches your MP3 player)

LUKK 270230Z 23005KT 9999 -RA NSC 15/13 Q1004 NOSIG

LUKK Flight Activity (Flightaware)

Listeners: 0 out of 1672 total

Chisinau Air to Air: 123.450

LUKK Alternate (Archives)
Chisinau, Moldova

Feed Status: UP
Listen in your browser - HTML5 player(in browser, HTML5)
Click here to listen with your own player(launches your MP3 player)

LUKK 270230Z 23005KT 9999 -RA NSC 15/13 Q1004 NOSIG

LUKK Flight Activity (Flightaware)

Listeners: 0 out of 1672 total

Chisinau Alternate: 129.725

LUKK Approach #1 (Archives)
Chisinau, Moldova

Feed Status: UP
Listen in your browser - HTML5 player(in browser, HTML5)
Click here to listen with your own player(launches your MP3 player)

LUKK 270230Z 23005KT 9999 -RA NSC 15/13 Q1004 NOSIG

LUKK Flight Activity (Flightaware)

Listeners: 0 out of 1672 total

Chisinau Approach: 133.300

LUKK Approach #2 (Archives)
Chisinau, Moldova

Feed Status: UP
Listen in your browser - HTML5 player(in browser, HTML5)
Click here to listen with your own player(launches your MP3 player)

LUKK 270230Z 23005KT 9999 -RA NSC 15/13 Q1004 NOSIG

LUKK Flight Activity (Flightaware)

Listeners: 0 out of 1672 total

Chisinau Approach: 133.300

LUKK Emergency/Guard (Archives)
Chisinau, Moldova

Feed Status: UP
Listen in your browser - HTML5 player(in browser, HTML5)
Click here to listen with your own player(launches your MP3 player)

LUKK 270230Z 23005KT 9999 -RA NSC 15/13 Q1004 NOSIG

LUKK Flight Activity (Flightaware)

Listeners: 0 out of 1672 total

Emergency/Guard: 121.500

LUKK Ground #2 (Archives)
Chisinau, Moldova

Feed Status: UP
Listen in your browser - HTML5 player(in browser, HTML5)
Click here to listen with your own player(launches your MP3 player)

LUKK 270230Z 23005KT 9999 -RA NSC 15/13 Q1004 NOSIG

LUKK Flight Activity (Flightaware)

Listeners: 0 out of 1672 total

Chisinau Ground: 121.800

LUKK Handling (Archives)
Chisinau, Moldova

Feed Status: UP
Listen in your browser - HTML5 player(in browser, HTML5)
Click here to listen with your own player(launches your MP3 player)

LUKK 270230Z 23005KT 9999 -RA NSC 15/13 Q1004 NOSIG

LUKK Flight Activity (Flightaware)

Listeners: 0 out of 1672 total

Chisinau Handling: 131.700

LUKK Tower #2 (Archives)
Chisinau, Moldova

Feed Status: UP
Listen in your browser - HTML5 player(in browser, HTML5)
Click here to listen with your own player(launches your MP3 player)

LUKK 270230Z 23005KT 9999 -RA NSC 15/13 Q1004 NOSIG

LUKK Flight Activity (Flightaware)

Listeners: 0 out of 1672 total

Chisinau Tower: 118.100

LWSK ACC (Lower) (Archives)
Petrovec, North Macedonia, Republic of

Feed Status: UP
Listen in your browser - HTML5 player(in browser, HTML5)
Click here to listen with your own player(launches your MP3 player)

LWSK 270230Z 00000KT 3000 -DZ FEW004 SCT013 BKN070 15/15 Q1006 NOSIG

LWSK Flight Activity (Flightaware)

Listeners: 0 out of 1672 total

Skopje Control (Lower): 119.375

LWSK ACC (Upper) (Archives)
Petrovec, North Macedonia, Republic of

Feed Status: UP
Listen in your browser - HTML5 player(in browser, HTML5)
Click here to listen with your own player(launches your MP3 player)

LWSK 270230Z 00000KT 3000 -DZ FEW004 SCT013 BKN070 15/15 Q1006 NOSIG

LWSK Flight Activity (Flightaware)

Listeners: 0 out of 1672 total

Skopje Control (Upper): 120.015

LWSK Approach (Archives)
Petrovec, North Macedonia, Republic of

Feed Status: UP
Listen in your browser - HTML5 player(in browser, HTML5)
Click here to listen with your own player(launches your MP3 player)

LWSK 270230Z 00000KT 3000 -DZ FEW004 SCT013 BKN070 15/15 Q1006 NOSIG

LWSK Flight Activity (Flightaware)

Listeners: 0 out of 1672 total

Skopje Approach/Departure: 120.300

LWSK ATIS (Archives)
Petrovec, North Macedonia, Republic of

Feed Status: UP
Listen in your browser - HTML5 player(in browser, HTML5)
Click here to listen with your own player(launches your MP3 player)

LWSK 270230Z 00000KT 3000 -DZ FEW004 SCT013 BKN070 15/15 Q1006 NOSIG

LWSK Flight Activity (Flightaware)

Listeners: 0 out of 1672 total

Skopje ATIS: 130.125

LWSK Tower (Archives)
Petrovec, North Macedonia, Republic of

Feed Status: UP
Listen in your browser - HTML5 player(in browser, HTML5)
Click here to listen with your own player(launches your MP3 player)

LWSK 270230Z 00000KT 3000 -DZ FEW004 SCT013 BKN070 15/15 Q1006 NOSIG

LWSK Flight Activity (Flightaware)

Listeners: 0 out of 1672 total

Skopje Tower: 118.500

LYNI Twr/App (Archives)
Nis, Serbia

Feed Status: UP
Listen in your browser - HTML5 player(in browser, HTML5)
Click here to listen with your own player(launches your MP3 player)

LYNI 270200Z VRB02KT 8000 FEW003 BKN014 15/15 Q1005 NOSIG

LYNI Flight Activity (Flightaware)

Listeners: 0 out of 1672 total

Nis Approach: 119.525
Nis Approach/Tower (Alternate): 136.075
Nis Tower: 118.950

LZKZ Gnd/Twr/App (Archives)
Kosice, Slovakia

Feed Status: UP
Listen in your browser - HTML5 player(in browser, HTML5)
Click here to listen with your own player(launches your MP3 player)

LZKZ 270230Z 35005KT 9999 BKN010 10/09 Q1003 NOSIG

LZKZ Flight Activity (Flightaware)

Listeners: 1 out of 1672 total

Kosice Approach: 129.350
Kosice Approach (backup): 119.850
Kosice Ground: 121.700
Kosice Handling: 131.850
Kosice Tower: 120.400

LZNI CTAF (Archives)
Nitra, Slovakia

Feed Status: UP
Listen in your browser - HTML5 player(in browser, HTML5)
Click here to listen with your own player(launches your MP3 player)

LZNI Flight Activity (Flightaware)

Listeners: 0 out of 1672 total

Nitra Traffic Radio: 123.405

LZPE CTAF/UNICOM (Archives)
Prievidza, Slovakia

Feed Status: UP
Listen in your browser - HTML5 player(in browser, HTML5)
Click here to listen with your own player(launches your MP3 player)

LZPE Flight Activity (Flightaware)

Listeners: 0 out of 1672 total

Prievidza CTAF/UNICOM: 123.055

LZPP Ground/Tower (Archives)
Piestany, Slovakia

Feed Status: UP
Listen in your browser - HTML5 player(in browser, HTML5)
Click here to listen with your own player(launches your MP3 player)

LZPP 270200Z AUTO 01004KT 0250 R01/0700N FG VV002 09/09 Q1002

LZPP Flight Activity (Flightaware)

Listeners: 0 out of 1672 total

Piestany Ground: 121.700
Piestany Tower: 118.575

LZPT CTAF (Archives)
Partizanske, Slovakia

Feed Status: UP
Listen in your browser - HTML5 player(in browser, HTML5)
Click here to listen with your own player(launches your MP3 player)

LZPT Flight Activity (Flightaware)

Listeners: 0 out of 1672 total

Male Bielice CTAF: 123.500

MDPP App/Dep (Archives)
Puerto Plata, Dominican Republic

Feed Status: UP
Listen in your browser - HTML5 player(in browser, HTML5)
Click here to listen with your own player(launches your MP3 player)

MDPP 270200Z 09006KT 9999 FEW018 27/24 Q1013

MDPP Flight Activity (Flightaware)

Listeners: 0 out of 1672 total

Puerto Plata Approach/Departure: 119.000

MDPP Ground/Center (Archives)
Puerto Plata, Dominican Republic

Feed Status: UP
Listen in your browser - HTML5 player(in browser, HTML5)
Click here to listen with your own player(launches your MP3 player)

MDPP 270200Z 09006KT 9999 FEW018 27/24 Q1013

MDPP Flight Activity (Flightaware)

Listeners: 0 out of 1672 total

Puerto Plata Ground: 121.900
Santo Domingo Center: 124.300

MDPP Ground/Tower/Center (Archives)
Puerto Plata, Dominican Republic

Feed Status: UP
Listen in your browser - HTML5 player(in browser, HTML5)
Click here to listen with your own player(launches your MP3 player)

MDPP 270200Z 09006KT 9999 FEW018 27/24 Q1013

MDPP Flight Activity (Flightaware)

Listeners: 0 out of 1672 total

Puerto Plata Ground: 121.900
Puerto Plata Tower: 118.000
Santo Domingo Center: 124.300

MDPP Tower (Archives)
Puerto Plata, Dominican Republic

Feed Status: UP
Listen in your browser - HTML5 player(in browser, HTML5)
Click here to listen with your own player(launches your MP3 player)

MDPP 270200Z 09006KT 9999 FEW018 27/24 Q1013

MDPP Flight Activity (Flightaware)

Listeners: 0 out of 1672 total

Puerto Plata Tower: 118.000

MHLC Gnd/Twr/Center (Archives)
La Ceiba, Honduras

Feed Status: UP
Listen in your browser - HTML5 player(in browser, HTML5)
Click here to listen with your own player(launches your MP3 player)

MHLC 270200Z VRB02KT 9999 FEW028CB SCT080 24/23 Q1009 A2980 NOSIG

MHLC Flight Activity (Flightaware)

Listeners: 0 out of 1672 total

CENAMER: 123.900
CENAMER: 124.300
Goloson Ground: 121.900
Goloson Tower: 118.500
La Ceiba Radio: 128.900

MHLM Gnd/Twr/App
San Pedro Sula, Honduras

Feed Status: DOWN
Offline since: 2022-09-01 21:06:05 UTC

MHLM 270200Z 36006KT 9999 FEW026 26/23 Q1009 A2980 NOSIG

La Mesa Ground: 121.900
La Mesa Tower: 118.200
San Pedro Sula Approach: 119.700

MHRO Gnd/Twr/App/Center
Roatan, Honduras

Feed Status: DOWN
Offline since: 2022-08-26 18:13:22 UTC

MHRO 270200Z 32004KT 9999 FEW020 26/24 Q1009 A2980 NOSIG

CENAMER (Center): 124.300
La Ceiba Radio: 128.900
Roatan Ground: 121.600
Roatan Tower: 118.100

MHTG ATIS (Archives)
Tegucigalpa, Honduras

Feed Status: UP
Listen in your browser - HTML5 player(in browser, HTML5)
Click here to listen with your own player(launches your MP3 player)

MHTG 270200Z 19004KT 150V220 9999 FEW025 SCT032 22/19 Q1016 A3000 NOSIG

MHTG Flight Activity (Flightaware)

Listeners: 0 out of 1672 total

Toncontin ATIS: 127.750

MHTG Gnd/Twr/App/Ctr/Ops (Archives)
Tegucigalpa, Honduras

Feed Status: UP
Listen in your browser - HTML5 player(in browser, HTML5)
Click here to listen with your own player(launches your MP3 player)

MHTG 270200Z 19004KT 150V220 9999 FEW025 SCT032 22/19 Q1016 A3000 NOSIG

MHTG Flight Activity (Flightaware)

Listeners: 0 out of 1672 total

American Airlines Ops: 130.700
ARINC ACARS: 131.550
Cenamer Center: 123.900
Cenamer Center: 124.300
Cenamer Center: 124.100
CMP Ops: 129.925
Continental Airlines Ops: 129.925
FAH Ground: 122.900
Palmerola (MHPR) Tower: 118.900
Taca Ops: 131.300
Taca Ops Sal: 130.300
Tecnologias Unidas: 133.000
Tegucigalpa RDO: 126.700
Toncontin Approach: 119.100
Toncontin Ground: 121.900
Toncontin Tower: 118.700

MMAN Tower (Archives)
Monterrey, Mexico

Feed Status: UP
Listen in your browser - HTML5 player(in browser, HTML5)
Click here to listen with your own player(launches your MP3 player)

MMAN 270140Z 00000KT 7SM FEW008 BKN030 20/20 A3013 RMK 8/500 OCNL DROPS

MMAN Flight Activity (Flightaware)

Listeners: 0 out of 1672 total

Monterrey Tower: 118.600

MMCU ATIS (Archives)
Chihuahua, Mexico

Feed Status: UP
Listen in your browser - HTML5 player(in browser, HTML5)
Click here to listen with your own player(launches your MP3 player)

MMCU 270146Z 00000KT 10SM SCT080 20/14 A3022 RMK 8/060 ISOL TCU/CI

MMCU Flight Activity (Flightaware)

Listeners: 0 out of 1672 total

Chihuahua ATIS: 127.900

MMCU Twr/App (Archives)
Chihuahua, Mexico

Feed Status: UP
Listen in your browser - HTML5 player(in browser, HTML5)
Click here to listen with your own player(launches your MP3 player)

MMCU 270146Z 00000KT 10SM SCT080 20/14 A3022 RMK 8/060 ISOL TCU/CI

MMCU Flight Activity (Flightaware)

Listeners: 0 out of 1672 total

Chihuahua Approach: 121.000
Chihuahua Tower: 118.400

MMGL Twr/App (Archives)
Guadalajara, Mexico

Feed Status: UP
Listen in your browser - HTML5 player(in browser, HTML5)
Click here to listen with your own player(launches your MP3 player)

MMGL 270140Z 00000KT 8SM SCT090 21/14 A3006 RMK 8/030 SC CI

MMGL Flight Activity (Flightaware)

Listeners: 9 out of 1672 total

Guadalajara Approach: 120.800
Guadalajara Tower: 118.100

MMHO App/Dep (Archives)
Hermosillo, Mexico

Feed Status: UP
Listen in your browser - HTML5 player(in browser, HTML5)
Click here to listen with your own player(launches your MP3 player)

MMHO 270140Z 18004KT 10SM FEW040 SCT200 34/25 A2978 RMK 8/408 HZY

MMHO Flight Activity (Flightaware)

Listeners: 0 out of 1672 total

Hermosillo Approach/Departure: 121.400

MMHO Info (Archives)
Hermosillo, Mexico

Feed Status: UP
Listen in your browser - HTML5 player(in browser, HTML5)
Click here to listen with your own player(launches your MP3 player)

MMHO 270140Z 18004KT 10SM FEW040 SCT200 34/25 A2978 RMK 8/408 HZY

MMHO Flight Activity (Flightaware)

Listeners: 0 out of 1672 total

Hermosillo Info: 122.300

MMHO Tower (Archives)
Hermosillo, Mexico

Feed Status: UP
Listen in your browser - HTML5 player(in browser, HTML5)
Click here to listen with your own player(launches your MP3 player)

MMHO 270140Z 18004KT 10SM FEW040 SCT200 34/25 A2978 RMK 8/408 HZY

MMHO Flight Activity (Flightaware)

Listeners: 0 out of 1672 total

Hermosillo Tower: 118.700

MMHO Twr/App (Archives)
Hermosillo, Mexico

Feed Status: UP
Listen in your browser - HTML5 player(in browser, HTML5)
Click here to listen with your own player(launches your MP3 player)

MMHO 270140Z 18004KT 10SM FEW040 SCT200 34/25 A2978 RMK 8/408 HZY

MMHO Flight Activity (Flightaware)

Listeners: 0 out of 1672 total

Hermosillo Approach/Departure: 121.400
Hermosillo Info: 122.300
Hermosillo Tower: 118.700

MMLP Twr/App (Archives)
La Paz, Mexico

Feed Status: UP
Listen in your browser - HTML5 player(in browser, HTML5)
Click here to listen with your own player(launches your MP3 player)

MMLP 270142Z 20008KT 10SM SKC 31/18 A2976 NOSIG

MMLP Flight Activity (Flightaware)

Listeners: 0 out of 1672 total

La Paz Approach: 120.600
La Paz Tower: 118.100

MMMD App/Dep (Archives)
Merida, Mexico

Feed Status: UP
Listen in your browser - HTML5 player(in browser, HTML5)
Click here to listen with your own player(launches your MP3 player)

MMMD 270144Z 36003KT 7SM FEW015 FEW070 SCT300 27/23 A2983 RMK 8/578

MMMD Flight Activity (Flightaware)

Listeners: 2 out of 1672 total

Merida Approach: 121.200

MMMD Merida Center 125.2/128.2 (Archives)
Merida, Mexico

Feed Status: UP
Listen in your browser - HTML5 player(in browser, HTML5)
Click here to listen with your own player(launches your MP3 player)

MMMD 270144Z 36003KT 7SM FEW015 FEW070 SCT300 27/23 A2983 RMK 8/578

MMMD Flight Activity (Flightaware)

Listeners: 2 out of 1672 total

Merida Center: 125.200
Merida Center: 128.200

MMMD Merida Center 125.8/123.75 (Archives)
Merida, Mexico

Feed Status: UP
Listen in your browser - HTML5 player(in browser, HTML5)
Click here to listen with your own player(launches your MP3 player)

MMMD 270144Z 36003KT 7SM FEW015 FEW070 SCT300 27/23 A2983 RMK 8/578

MMMD Flight Activity (Flightaware)

Listeners: 0 out of 1672 total

Merida Center: 125.800
Merida Center: 123.750

MMMD Tower (Archives)
Merida, Mexico

Feed Status: UP
Listen in your browser - HTML5 player(in browser, HTML5)
Click here to listen with your own player(launches your MP3 player)

MMMD 270144Z 36003KT 7SM FEW015 FEW070 SCT300 27/23 A2983 RMK 8/578

MMMD Flight Activity (Flightaware)

Listeners: 2 out of 1672 total

Merida Tower: 118.300

MMMM Tower (Archives)
Morelia, Mexico

Feed Status: UP
Listen in your browser - HTML5 player(in browser, HTML5)
Click here to listen with your own player(launches your MP3 player)

MMMM 270140Z 02006KT 8SM FEW040 FEW090 18/12 A3013 RMK 8/430 CI

MMMM Flight Activity (Flightaware)

Listeners: 0 out of 1672 total

Morelia Tower: 118.500

MMMX Aeromexico Ops (Archives)
Mexico City, Mexico

Feed Status: UP
Listen in your browser - HTML5 player(in browser, HTML5)
Click here to listen with your own player(launches your MP3 player)

MMMX 270147Z 04016KT 8SM BKN020 17/10 A3028 NOSIG RMK 8/400 HZY AC DSNT PCPN S SW

MMMX Flight Activity (Flightaware)

Listeners: 1 out of 1672 total

Aeromexico Ops: 131.000

MMMX Approach (Archives)
Mexico City, Mexico

Feed Status: UP
Listen in your browser - HTML5 player(in browser, HTML5)
Click here to listen with your own player(launches your MP3 player)

MMMX 270147Z 04016KT 8SM BKN020 17/10 A3028 NOSIG RMK 8/400 HZY AC DSNT PCPN S SW

MMMX Flight Activity (Flightaware)

Listeners: 3 out of 1672 total

Mexico City Approach: 121.200

MMMX Approach (CVJ/PBC) (Archives)
Mexico City, Mexico

Feed Status: UP
Listen in your browser - HTML5 player(in browser, HTML5)
Click here to listen with your own player(launches your MP3 player)

MMMX 270147Z 04016KT 8SM BKN020 17/10 A3028 NOSIG RMK 8/400 HZY AC DSNT PCPN S SW

MMMX Flight Activity (Flightaware)

Listeners: 0 out of 1672 total

Mexico City Approach (CVJ/PBC): 119.250

MMMX Approach (Final) (Archives)
Mexico City, Mexico

Feed Status: UP
Listen in your browser - HTML5 player(in browser, HTML5)
Click here to listen with your own player(launches your MP3 player)

MMMX 270147Z 04016KT 8SM BKN020 17/10 A3028 NOSIG RMK 8/400 HZY AC DSNT PCPN S SW

MMMX Flight Activity (Flightaware)

Listeners: 1 out of 1672 total

Mexico City Approach (Final): 119.750

MMMX Arrival (North) (Archives)
Mexico City, Mexico

Feed Status: UP
Listen in your browser - HTML5 player(in browser, HTML5)
Click here to listen with your own player(launches your MP3 player)

MMMX 270147Z 04016KT 8SM BKN020 17/10 A3028 NOSIG RMK 8/400 HZY AC DSNT PCPN S SW

MMMX Flight Activity (Flightaware)

Listeners: 0 out of 1672 total

Mexico City Arrival (North): 129.650

MMMX Arrival (North/South) (Archives)
Mexico City, Mexico

Feed Status: UP
Listen in your browser - HTML5 player(in browser, HTML5)
Click here to listen with your own player(launches your MP3 player)

MMMX 270147Z 04016KT 8SM BKN020 17/10 A3028 NOSIG RMK 8/400 HZY AC DSNT PCPN S SW

MMMX Flight Activity (Flightaware)

Listeners: 0 out of 1672 total

Mexico City Arrival (North): 129.650
Mexico City Arrival (South): 119.100

MMMX Arrival (South) (Archives)
Mexico City, Mexico

Feed Status: UP
Listen in your browser - HTML5 player(in browser, HTML5)
Click here to listen with your own player(launches your MP3 player)

MMMX 270147Z 04016KT 8SM BKN020 17/10 A3028 NOSIG RMK 8/400 HZY AC DSNT PCPN S SW

MMMX Flight Activity (Flightaware)

Listeners: 1 out of 1672 total

Mexico City Arrival (South): 119.100

MMMX ATIS (Archives)
Mexico City, Mexico

Feed Status: UP
Listen in your browser - HTML5 player(in browser, HTML5)
Click here to listen with your own player(launches your MP3 player)

MMMX 270147Z 04016KT 8SM BKN020 17/10 A3028 NOSIG RMK 8/400 HZY AC DSNT PCPN S SW

MMMX Flight Activity (Flightaware)

Listeners: 0 out of 1672 total

Mexico City ATIS: 127.650

MMMX Center (Southeast) (Archives)
Mexico City, Mexico

Feed Status: UP
Listen in your browser - HTML5 player(in browser, HTML5)
Click here to listen with your own player(launches your MP3 player)

MMMX 270147Z 04016KT 8SM BKN020 17/10 A3028 NOSIG RMK 8/400 HZY AC DSNT PCPN S SW

MMMX Flight Activity (Flightaware)

Listeners: 0 out of 1672 total

Mexico Center (Southeast): 128.250

MMMX Center (West) (Archives)
Mexico City, Mexico

Feed Status: UP
Listen in your browser - HTML5 player(in browser, HTML5)
Click here to listen with your own player(launches your MP3 player)

MMMX 270147Z 04016KT 8SM BKN020 17/10 A3028 NOSIG RMK 8/400 HZY AC DSNT PCPN S SW

MMMX Flight Activity (Flightaware)

Listeners: 1 out of 1672 total

Mexico Center (West): 125.100

MMMX Clearance Delivery (Archives)
Mexico City, Mexico

Feed Status: UP
Listen in your browser - HTML5 player(in browser, HTML5)
Click here to listen with your own player(launches your MP3 player)

MMMX 270147Z 04016KT 8SM BKN020 17/10 A3028 NOSIG RMK 8/400 HZY AC DSNT PCPN S SW

MMMX Flight Activity (Flightaware)

Listeners: 0 out of 1672 total

Mexico City Clearance Delivery: 122.100

MMMX Departure (North) (Archives)
Mexico City, Mexico

Feed Status: UP
Listen in your browser - HTML5 player(in browser, HTML5)
Click here to listen with your own player(launches your MP3 player)

MMMX 270147Z 04016KT 8SM BKN020 17/10 A3028 NOSIG RMK 8/400 HZY AC DSNT PCPN S SW

MMMX Flight Activity (Flightaware)

Listeners: 0 out of 1672 total

Mexico City Departure (North): 120.500

MMMX Departure (South) (Archives)
Mexico City, Mexico

Feed Status: UP
Listen in your browser - HTML5 player(in browser, HTML5)
Click here to listen with your own player(launches your MP3 player)

MMMX 270147Z 04016KT 8SM BKN020 17/10 A3028 NOSIG RMK 8/400 HZY AC DSNT PCPN S SW

MMMX Flight Activity (Flightaware)

Listeners: 0 out of 1672 total

Mexico City Departure (South): 129.100

MMMX Ground (North) (Archives)
Mexico City, Mexico

Feed Status: UP
Listen in your browser - HTML5 player(in browser, HTML5)
Click here to listen with your own player(launches your MP3 player)

MMMX 270147Z 04016KT 8SM BKN020 17/10 A3028 NOSIG RMK 8/400 HZY AC DSNT PCPN S SW

MMMX Flight Activity (Flightaware)

Listeners: 0 out of 1672 total

Mexico City Ground (North): 121.850

MMMX Ground (North/South) (Archives)
Mexico City, Mexico

Feed Status: UP
Listen in your browser - HTML5 player(in browser, HTML5)
Click here to listen with your own player(launches your MP3 player)

MMMX 270147Z 04016KT 8SM BKN020 17/10 A3028 NOSIG RMK 8/400 HZY AC DSNT PCPN S SW

MMMX Flight Activity (Flightaware)

Listeners: 0 out of 1672 total

Mexico City Ground (North): 121.850
Mexico City Ground (South): 121.000

MMMX Ground (South) (Archives)
Mexico City, Mexico

Feed Status: UP
Listen in your browser - HTML5 player(in browser, HTML5)
Click here to listen with your own player(launches your MP3 player)

MMMX 270147Z 04016KT 8SM BKN020 17/10 A3028 NOSIG RMK 8/400 HZY AC DSNT PCPN S SW

MMMX Flight Activity (Flightaware)

Listeners: 0 out of 1672 total

Mexico City Ground (South): 121.000

MMMX Mexico Center North (Archives)
Mexico City, Mexico

Feed Status: UP
Listen in your browser - HTML5 player(in browser, HTML5)
Click here to listen with your own player(launches your MP3 player)

MMMX 270147Z 04016KT 8SM BKN020 17/10 A3028 NOSIG RMK 8/400 HZY AC DSNT PCPN S SW

MMMX Flight Activity (Flightaware)

Listeners: 0 out of 1672 total

Mexico Center North: 133.100

MMMX Tower (Archives)
Mexico City, Mexico

Feed Status: UP
Listen in your browser - HTML5 player(in browser, HTML5)
Click here to listen with your own player(launches your MP3 player)

MMMX 270147Z 04016KT 8SM BKN020 17/10 A3028 NOSIG RMK 8/400 HZY AC DSNT PCPN S SW

MMMX Flight Activity (Flightaware)

Listeners: 0 out of 1672 total

Mexico City Tower: 118.550

MMMX Tower (Helicopters) (Archives)
Mexico City, Mexico

Feed Status: UP
Listen in your browser - HTML5 player(in browser, HTML5)
Click here to listen with your own player(launches your MP3 player)

MMMX 270147Z 04016KT 8SM BKN020 17/10 A3028 NOSIG RMK 8/400 HZY AC DSNT PCPN S SW

MMMX Flight Activity (Flightaware)

Listeners: 0 out of 1672 total

Mexico City Tower (Helicopters): 118.150

MMMX Twr/App #1 (Archives)
Mexico City, Mexico

Feed Status: UP
Listen in your browser - HTML5 player(in browser, HTML5)
Click here to listen with your own player(launches your MP3 player)

MMMX 270147Z 04016KT 8SM BKN020 17/10 A3028 NOSIG RMK 8/400 HZY AC DSNT PCPN S SW

MMMX Flight Activity (Flightaware)

Listeners: 7 out of 1672 total

Mexico City Approach: 121.200
Mexico City Arrival (North): 129.650
Mexico City Arrival (South): 119.100
Mexico City Final Approach: 119.750
Mexico City Tower: 118.550

MMMX Twr/App #2
Mexico City, Mexico

Feed Status: DOWN
Offline since: 2022-09-25 08:27:23 UTC

MMMX 270147Z 04016KT 8SM BKN020 17/10 A3028 NOSIG RMK 8/400 HZY AC DSNT PCPN S SW

Mexico City Approach: 121.200

MMMX UNICOM (Archives)
Mexico City, Mexico

Feed Status: UP
Listen in your browser - HTML5 player(in browser, HTML5)
Click here to listen with your own player(launches your MP3 player)

MMMX 270147Z 04016KT 8SM BKN020 17/10 A3028 NOSIG RMK 8/400 HZY AC DSNT PCPN S SW

MMMX Flight Activity (Flightaware)

Listeners: 0 out of 1672 total

Mexico City UNICOM: 122.500

MMMX Volaris Ops (Archives)
Mexico City, Mexico

Feed Status: UP
Listen in your browser - HTML5 player(in browser, HTML5)
Click here to listen with your own player(launches your MP3 player)

MMMX 270147Z 04016KT 8SM BKN020 17/10 A3028 NOSIG RMK 8/400 HZY AC DSNT PCPN S SW

MMMX Flight Activity (Flightaware)

Listeners: 0 out of 1672 total

Volaris Ops: 130.375

MMMY Tower/Approach (Archives)
Monterrey, Mexico

Feed Status: UP
Listen in your browser - HTML5 player(in browser, HTML5)
Click here to listen with your own player(launches your MP3 player)

MMMY 270140Z 29004KT 6SM SCT015 BKN070 21/21 A3007 RMK 60045 8/460 OCNL DROPS

MMMY Flight Activity (Flightaware)

Listeners: 0 out of 1672 total

Monterrey Approach/Departure: 119.750
Monterrey Tower: 118.100

MMPC CTAF (Archives)
Pachuca, Mexico

Feed Status: UP
Listen in your browser - HTML5 player(in browser, HTML5)
Click here to listen with your own player(launches your MP3 player)

MMPC Flight Activity (Flightaware)

Listeners: 0 out of 1672 total

Pachuca CTAF/AFIS: 122.900

MMQT Tower/App
Queretaro, Mexico

Feed Status: DOWN
Offline since: 2021-10-10 15:21:05 UTC

MMQT 270141Z 08007KT 8SM SCT020 17/12 A3025 RMK 8/500

Queretaro Approach: 127.200
Queretaro Tower: 118.950

MMMX Departure (North) (Archives)
Santa Lucia, Mexico

Feed Status: UP
Listen in your browser - HTML5 player(in browser, HTML5)
Click here to listen with your own player(launches your MP3 player)

MMMX 270147Z 04016KT 8SM BKN020 17/10 A3028 NOSIG RMK 8/400 HZY AC DSNT PCPN S SW

MMMX Flight Activity (Flightaware)

Listeners: 0 out of 1672 total

Mexico City Departure (North): 120.500

MMSM Approach (119.0) (Archives)
Santa Lucia, Mexico

Feed Status: UP
Listen in your browser - HTML5 player(in browser, HTML5)
Click here to listen with your own player(launches your MP3 player)

MMMX 270147Z 04016KT 8SM BKN020 17/10 A3028 NOSIG RMK 8/400 HZY AC DSNT PCPN S SW

MMMX Flight Activity (Flightaware)

Listeners: 0 out of 1672 total

Santa Lucia Approach: 119.000

MMSM Approach (128.85) (Archives)
Santa Lucia, Mexico

Feed Status: UP
Listen in your browser - HTML5 player(in browser, HTML5)
Click here to listen with your own player(launches your MP3 player)

MMMX 270147Z 04016KT 8SM BKN020 17/10 A3028 NOSIG RMK 8/400 HZY AC DSNT PCPN S SW

MMMX Flight Activity (Flightaware)

Listeners: 0 out of 1672 total

Santa Lucia Approach: 128.850

MMSM ATIS (Archives)
Santa Lucia, Mexico

Feed Status: UP
Listen in your browser - HTML5 player(in browser, HTML5)
Click here to listen with your own player(launches your MP3 player)

MMMX 270147Z 04016KT 8SM BKN020 17/10 A3028 NOSIG RMK 8/400 HZY AC DSNT PCPN S SW

MMMX Flight Activity (Flightaware)

Listeners: 0 out of 1672 total

Santa Lucia ATIS:

MMSM Clearance Delivery (Archives)
Santa Lucia, Mexico

Feed Status: UP
Listen in your browser - HTML5 player(in browser, HTML5)
Click here to listen with your own player(launches your MP3 player)

MMMX 270147Z 04016KT 8SM BKN020 17/10 A3028 NOSIG RMK 8/400 HZY AC DSNT PCPN S SW

MMMX Flight Activity (Flightaware)

Listeners: 0 out of 1672 total

Santa Lucia Clearance Delivery: 121.900

MMSM Ground (Archives)
Santa Lucia, Mexico

Feed Status: UP
Listen in your browser - HTML5 player(in browser, HTML5)
Click here to listen with your own player(launches your MP3 player)

MMMX 270147Z 04016KT 8SM BKN020 17/10 A3028 NOSIG RMK 8/400 HZY AC DSNT PCPN S SW

MMMX Flight Activity (Flightaware)

Listeners: 0 out of 1672 total

Santa Lucia Ground: 121.800

MMSM Tower (Archives)
Santa Lucia, Mexico

Feed Status: UP
Listen in your browser - HTML5 player(in browser, HTML5)
Click here to listen with your own player(launches your MP3 player)

MMMX 270147Z 04016KT 8SM BKN020 17/10 A3028 NOSIG RMK 8/400 HZY AC DSNT PCPN S SW

MMMX Flight Activity (Flightaware)

Listeners: 0 out of 1672 total

Santa Lucia Tower: 118.300

MMTC Twr/App/Center (Archives)
Torreon, Mexico

Feed Status: UP
Listen in your browser - HTML5 player(in browser, HTML5)
Click here to listen with your own player(launches your MP3 player)

MMTC 270140Z 09012KT 8SM SCT030 SCT100 27/13 A3010 RMK 8/460

MMTC Flight Activity (Flightaware)

Listeners: 0 out of 1672 total

Mazatlan Center: 124.200
Mazatlan Center: 124.400
Mazatlan Center: 128.000
Mexico Center: 123.900
Monterrey Center: 125.600
Monterrey Center: 125.425
Monterrey Center: 127.400
Torreon Approach: 119.500
Torreon Tower: 118.500

MMTJ Approach (Archives)
Tijuana, Mexico

Feed Status: UP
Listen in your browser - HTML5 player(in browser, HTML5)
Click here to listen with your own player(launches your MP3 player)

MMTJ 270142Z 30007KT 10SM SKC 23/20 A2987 RMK HZY

MMTJ Flight Activity (Flightaware)

Listeners: 1 out of 1672 total

Tijuana Approach: 120.300

MMTJ Twr/Ramp (Archives)
Tijuana, Mexico

Feed Status: UP
Listen in your browser - HTML5 player(in browser, HTML5)
Click here to listen with your own player(launches your MP3 player)

MMTJ 270142Z 30007KT 10SM SKC 23/20 A2987 RMK HZY

MMTJ Flight Activity (Flightaware)

Listeners: 2 out of 1672 total

Tijuana Ramp: 126.100
Tijuana Tower: 118.100

MPMG Ground
Panama City, Panama

Feed Status: DOWN
Offline since: 2022-06-17 22:46:22 UTC

MPMG 270200Z 26003KT 230V300 9999 FEW016 SCT080 27/25 Q1010 NOSIG

Gelabert Ground: 121.700

MPMG Tower
Panama City, Panama

Feed Status: DOWN
Offline since: 2022-06-17 22:46:22 UTC

MPMG 270200Z 26003KT 230V300 9999 FEW016 SCT080 27/25 Q1010 NOSIG

Gelabert Tower: 118.300

Panama App/Dep #2 (Archives)
Panama City, Panama

Feed Status: UP
Listen in your browser - HTML5 player(in browser, HTML5)
Click here to listen with your own player(launches your MP3 player)

MPPA 270200Z 00000KT(E) 9999 FEW018 25/25 Q1009

MPPA Flight Activity (Flightaware)

Listeners: 1 out of 1672 total

Panama Approach: 119.700
Panama Departure: 119.200

Panama App/Dep #3
Panama City, Panama

Feed Status: DOWN
Offline since: 2022-06-20 10:58:23 UTC

MPTO 270200Z 25003KT 9999 SCT017 26/24 Q1009 NOSIG

Panama Approach: 119.700
Panama Departure: 119.200

Panama Approach #1
Panama City, Panama

Feed Status: DOWN
Offline since: 2022-06-17 22:46:22 UTC

MPMG 270200Z 26003KT 230V300 9999 FEW016 SCT080 27/25 Q1010 NOSIG

Panama Approach: 119.700

Panama Center #1
Panama City, Panama

Feed Status: DOWN
Offline since: 2021-11-29 18:41:05 UTC

MPMG 270200Z 26003KT 230V300 9999 FEW016 SCT080 27/25 Q1010 NOSIG

Panama Center: 134.900
Panama Center (North): 133.300
Panama Center (North): 125.500
Panama Center (South): 123.300
Panama Center (South): 133.000

Panama Center #2 (Archives)
Panama City, Panama

Feed Status: UP
Listen in your browser - HTML5 player(in browser, HTML5)
Click here to listen with your own player(launches your MP3 player)

MPPA 270200Z 00000KT(E) 9999 FEW018 25/25 Q1009

MPPA Flight Activity (Flightaware)

Listeners: 2 out of 1672 total

Panama Center: 134.900
Panama Center (North): 125.500
Panama Center (North): 133.300
Panama Center (South): 123.300
Panama Center (South): 133.000

Panama Radio #1
Panama City, Panama

Feed Status: DOWN
Offline since: 2021-12-17 13:13:39 UTC

MPMG 270200Z 26003KT 230V300 9999 FEW016 SCT080 27/25 Q1010 NOSIG

Panama Radio: 123.600
Panama Radio: 126.900

Panama Traffic Advisory #1
Panama City, Panama

Feed Status: DOWN
Offline since: 2022-06-17 22:46:22 UTC

MPMG 270200Z 26003KT 230V300 9999 FEW016 SCT080 27/25 Q1010 NOSIG

Panama Traffic Advisory: 121.200

MPPA Ground (Archives)
Panama City, Panama

Feed Status: UP
Listen in your browser - HTML5 player(in browser, HTML5)
Click here to listen with your own player(launches your MP3 player)

MPPA 270200Z 00000KT(E) 9999 FEW018 25/25 Q1009

MPPA Flight Activity (Flightaware)

Listeners: 0 out of 1672 total

Pacifico Ground: 121.100

MPPA Ground/Tower (Archives)
Panama City, Panama

Feed Status: UP
Listen in your browser - HTML5 player(in browser, HTML5)
Click here to listen with your own player(launches your MP3 player)

MPPA 270200Z 00000KT(E) 9999 FEW018 25/25 Q1009

MPPA Flight Activity (Flightaware)

Listeners: 0 out of 1672 total

Pacifico Ground: 121.100
Pacifico Tower: 118.900

MPPA Tower (Archives)
Panama City, Panama

Feed Status: UP
Listen in your browser - HTML5 player(in browser, HTML5)
Click here to listen with your own player(launches your MP3 player)

MPPA 270200Z 00000KT(E) 9999 FEW018 25/25 Q1009

MPPA Flight Activity (Flightaware)

Listeners: 0 out of 1672 total

Pacifico Tower: 118.900

Panama App/Dep #2 (Archives)
Panama City, Panama

Feed Status: UP
Listen in your browser - HTML5 player(in browser, HTML5)
Click here to listen with your own player(launches your MP3 player)

MPPA 270200Z 00000KT(E) 9999 FEW018 25/25 Q1009

MPPA Flight Activity (Flightaware)

Listeners: 1 out of 1672 total

Panama Approach: 119.700
Panama Departure: 119.200

Panama App/Dep #3
Panama City, Panama

Feed Status: DOWN
Offline since: 2022-06-20 10:58:23 UTC

MPTO 270200Z 25003KT 9999 SCT017 26/24 Q1009 NOSIG

Panama Approach: 119.700
Panama Departure: 119.200

Panama Approach #1
Panama City, Panama

Feed Status: DOWN
Offline since: 2022-06-17 22:46:22 UTC

MPMG 270200Z 26003KT 230V300 9999 FEW016 SCT080 27/25 Q1010 NOSIG

Panama Approach: 119.700

Panama Center #1
Panama City, Panama

Feed Status: DOWN
Offline since: 2021-11-29 18:41:05 UTC

MPMG 270200Z 26003KT 230V300 9999 FEW016 SCT080 27/25 Q1010 NOSIG

Panama Center: 134.900
Panama Center (North): 133.300
Panama Center (North): 125.500
Panama Center (South): 123.300
Panama Center (South): 133.000

Panama Center #2 (Archives)
Panama City, Panama

Feed Status: UP
Listen in your browser - HTML5 player(in browser, HTML5)
Click here to listen with your own player(launches your MP3 player)

MPPA 270200Z 00000KT(E) 9999 FEW018 25/25 Q1009

MPPA Flight Activity (Flightaware)

Listeners: 2 out of 1672 total

Panama Center: 134.900
Panama Center (North): 125.500
Panama Center (North): 133.300
Panama Center (South): 123.300
Panama Center (South): 133.000

Panama Radio #1
Panama City, Panama

Feed Status: DOWN
Offline since: 2021-12-17 13:13:39 UTC

MPMG 270200Z 26003KT 230V300 9999 FEW016 SCT080 27/25 Q1010 NOSIG

Panama Radio: 123.600
Panama Radio: 126.900

Panama Traffic Advisory #1
Panama City, Panama

Feed Status: DOWN
Offline since: 2022-06-17 22:46:22 UTC

MPMG 270200Z 26003KT 230V300 9999 FEW016 SCT080 27/25 Q1010 NOSIG

Panama Traffic Advisory: 121.200

MPTO ATIS
Panama City, Panama

Feed Status: DOWN
Offline since: 2022-04-27 11:11:23 UTC

MPTO 270200Z 25003KT 9999 SCT017 26/24 Q1009 NOSIG

Panama ATIS: 127.700

MPTO Clearance Delivery
Panama City, Panama

Feed Status: DOWN
Offline since: 2022-04-27 11:11:23 UTC

MPTO 270200Z 25003KT 9999 SCT017 26/24 Q1009 NOSIG

Panama Clearance Delivery: 129.800

MPTO Del/Ground (Archives)
Panama City, Panama

Feed Status: UP
Listen in your browser - HTML5 player(in browser, HTML5)
Click here to listen with your own player(launches your MP3 player)

MPTO 270200Z 25003KT 9999 SCT017 26/24 Q1009 NOSIG

MPTO Flight Activity (Flightaware)

Listeners: 1 out of 1672 total

Panama Clearance Delivery: 129.800
Panama Ground: 121.900

MPTO Ground (Archives)
Panama City, Panama

Feed Status: UP
Listen in your browser - HTML5 player(in browser, HTML5)
Click here to listen with your own player(launches your MP3 player)

MPTO 270200Z 25003KT 9999 SCT017 26/24 Q1009 NOSIG

MPTO Flight Activity (Flightaware)

Listeners: 0 out of 1672 total

Panama Ground: 121.900

MPTO Ground/Tower (Archives)
Panama City, Panama

Feed Status: UP
Listen in your browser - HTML5 player(in browser, HTML5)
Click here to listen with your own player(launches your MP3 player)

MPTO 270200Z 25003KT 9999 SCT017 26/24 Q1009 NOSIG

MPTO Flight Activity (Flightaware)

Listeners: 0 out of 1672 total

Panama Ground: 121.900
Panama Tower: 118.100

MPTO Tower (Archives)
Panama City, Panama

Feed Status: UP
Listen in your browser - HTML5 player(in browser, HTML5)
Click here to listen with your own player(launches your MP3 player)

MPTO 270200Z 25003KT 9999 SCT017 26/24 Q1009 NOSIG

MPTO Flight Activity (Flightaware)

Listeners: 1 out of 1672 total

Panama Tower: 118.100

Panama App/Dep #2 (Archives)
Panama City, Panama

Feed Status: UP
Listen in your browser - HTML5 player(in browser, HTML5)
Click here to listen with your own player(launches your MP3 player)

MPPA 270200Z 00000KT(E) 9999 FEW018 25/25 Q1009

MPPA Flight Activity (Flightaware)

Listeners: 1 out of 1672 total

Panama Approach: 119.700
Panama Departure: 119.200

Panama App/Dep #3
Panama City, Panama

Feed Status: DOWN
Offline since: 2022-06-20 10:58:23 UTC

MPTO 270200Z 25003KT 9999 SCT017 26/24 Q1009 NOSIG

Panama Approach: 119.700
Panama Departure: 119.200

Panama Approach #1
Panama City, Panama

Feed Status: DOWN
Offline since: 2022-06-17 22:46:22 UTC

MPMG 270200Z 26003KT 230V300 9999 FEW016 SCT080 27/25 Q1010 NOSIG

Panama Approach: 119.700

Panama Center #1
Panama City, Panama

Feed Status: DOWN
Offline since: 2021-11-29 18:41:05 UTC

MPMG 270200Z 26003KT 230V300 9999 FEW016 SCT080 27/25 Q1010 NOSIG

Panama Center: 134.900
Panama Center (North): 133.300
Panama Center (North): 125.500
Panama Center (South): 123.300
Panama Center (South): 133.000

Panama Center #2 (Archives)
Panama City, Panama

Feed Status: UP
Listen in your browser - HTML5 player(in browser, HTML5)
Click here to listen with your own player(launches your MP3 player)

MPPA 270200Z 00000KT(E) 9999 FEW018 25/25 Q1009

MPPA Flight Activity (Flightaware)

Listeners: 2 out of 1672 total

Panama Center: 134.900
Panama Center (North): 125.500
Panama Center (North): 133.300
Panama Center (South): 123.300
Panama Center (South): 133.000

Panama Radio #1
Panama City, Panama

Feed Status: DOWN
Offline since: 2021-12-17 13:13:39 UTC

MPMG 270200Z 26003KT 230V300 9999 FEW016 SCT080 27/25 Q1010 NOSIG

Panama Radio: 123.600
Panama Radio: 126.900

Panama Traffic Advisory #1
Panama City, Panama

Feed Status: DOWN
Offline since: 2022-06-17 22:46:22 UTC

MPMG 270200Z 26003KT 230V300 9999 FEW016 SCT080 27/25 Q1010 NOSIG

Panama Traffic Advisory: 121.200

CENAMER/Panama ACC
San Jose, Costa Rica

Feed Status: DOWN
Offline since: 2022-08-26 21:34:23 UTC

MROC 270200Z 23002KT 9999 4500S BCFG FEW001 BKN025 20/20 A3007 NOSIG

Central American Center (CENAMER Control): 124.100
Central American Center (CENAMER Control): 123.900
Panama Center: 133.000

MROC Del/Gnd/Twr
San Jose, Costa Rica

Feed Status: DOWN
Offline since: 2022-06-30 09:49:39 UTC

MROC 270200Z 23002KT 9999 4500S BCFG FEW001 BKN025 20/20 A3007 NOSIG

Coco Clearance Delivery/Ground: 121.900
Coco Tower: 118.600

MROC Del/Gnd/Twr/App/Center/Misc
San Jose, Costa Rica

Feed Status: DOWN
Offline since: 2022-08-26 21:34:23 UTC

MROC 270200Z 23002KT 9999 4500S BCFG FEW001 BKN025 20/20 A3007 NOSIG

Coco Center (Control over CR Airspace): 119.600
Coco Clearance Delivery: 121.300
Coco Ground: 121.900
Coco Terminal Control: 120.500
Coco Tower: 118.600
Coco UNICOM: 126.800

MROC Gnd/Twr/App/Center (Archives)
San Jose, Costa Rica

Feed Status: UP
Listen in your browser - HTML5 player(in browser, HTML5)
Click here to listen with your own player(launches your MP3 player)

MROC 270200Z 23002KT 9999 4500S BCFG FEW001 BKN025 20/20 A3007 NOSIG

MROC Flight Activity (Flightaware)

Listeners: 3 out of 1672 total

Central American Center (CENAMER Control): 124.100
Coco Center (Control over CR Airspace): 119.600
Coco Ground: 121.900
Coco Terminal Control: 120.500
Coco Tower: 118.600

MRPV Ground/Tower
San Jose, Costa Rica

Feed Status: DOWN
Offline since: 2022-08-26 21:34:23 UTC


Pavas Ground: 121.700
Pavas Tower: 118.300

MSLP Gnd/Twr/App
San Salvador, El Salvador

Feed Status: DOWN
Offline since: 2022-07-24 00:46:06 UTC

MSLP 270150Z VRB02KT 9999 SCT020 25/24 Q1010 A2982 NOSIG

Comalapa Ground: 121.700
Comalapa Tower: 118.000
Compalapa Approach: 119.900

MSLP Gnd/Twr/App/Center (Archives)
San Salvador, El Salvador

Feed Status: UP
Listen in your browser - HTML5 player(in browser, HTML5)
Click here to listen with your own player(launches your MP3 player)

MSLP 270150Z VRB02KT 9999 SCT020 25/24 Q1010 A2982 NOSIG

MSLP Flight Activity (Flightaware)

Listeners: 0 out of 1672 total

Avianca Ops: 123.500
CCA: 119.300
CENAMER: 124.100
Comalapa Authorizations: 121.250
Comalapa Departure: 123.900
Comalapa Ground: 121.700
Comalapa Tower: 118.000
Compalapa Approach: 119.900
Ilopango Tower: 118.300
TACA Ops: 130.500

MSSS Tower
San Salvador, El Salvador

Feed Status: DOWN
Offline since: 2021-09-02 04:27:22 UTC


Ilopango Tower: 118.300

MUFH Havana FIR (App/Center) (Archives)
Havana, Cuba

Feed Status: UP
Listen in your browser - HTML5 player(in browser, HTML5)
Click here to listen with your own player(launches your MP3 player)

MUFH Flight Activity (Flightaware)

Listeners: 4 out of 1672 total

Hava Approach: 120.300
Havana Center: 120.250
Havana Center: 123.700
Havana Center: 124.550
Havana Center: 133.700
Havana Center: 135.100

OBBI Gnd/Twr/App (Archives)
Muharraq, Bahrain

Feed Status: UP
Listen in your browser - HTML5 player(in browser, HTML5)
Click here to listen with your own player(launches your MP3 player)

OBBI 270230Z 30009KT CAVOK 30/22 Q1007 NOSIG


Listeners: 3 out of 1672 total

Bahrain Arrival: 127.850
Bahrain Control (Low Central): 124.300
Bahrain Control (Low East): 125.700
Bahrain Control (Low North): 126.700
Bahrain Departure: 119.100
Bahrain Ground: 121.850
Bahrain Tower: 118.500

OKBK Gnd/Twr/App/Radar (Archives)
Kuwait City, Kuwait

Feed Status: UP
Listen in your browser - HTML5 player(in browser, HTML5)
Click here to listen with your own player(launches your MP3 player)

OKBK 270159Z 23004KT CAVOK 21/M02 Q1009 NOSIG


Listeners: 4 out of 1672 total

Kuwait Approach: 121.300
Kuwait Approach: 124.800
Kuwait Ground: 121.700
Kuwait Radar (Center): 125.300
Kuwait Tower: 118.300

OPKC Gnd/Twr/Radar (Archives)
Karachi, Pakistan

Feed Status: UP
Listen in your browser - HTML5 player(in browser, HTML5)
Click here to listen with your own player(launches your MP3 player)

OPKC 270230Z 25005KT 5000 FU BKN030 27/24 Q1009 NOSIG


Listeners: 1 out of 1672 total

Karachi Ground: 121.600
Karachi Radar: 125.500
Karachi Tower: 118.300

OPLA ATIS
Lahore, Pakistan

Feed Status: DOWN
Offline since: 2022-09-09 11:14:23 UTC

OPLA 270225Z 18003KT 1500 BR NSC 25/22 Q1008 RMK QFE983 A29.78

Lahore ATIS: 126.300

OPLA/OPLH Gnd/Twr/App
Lahore, Pakistan

Feed Status: DOWN
Offline since: 2022-09-09 11:14:23 UTC

OPLA 270225Z 18003KT 1500 BR NSC 25/22 Q1008 RMK QFE983 A29.78

Lahore Approach: 121.300
Lahore Approach: 125.300
Lahore Control: 127.500
Lahore Ground: 118.400
Lahore Tower: 118.100
Lahore Tower: 121.800
Walton (OPLH) Tower: 119.400

RCSS Tower/App/Dep (Archives)
Taipei, Taiwan

Feed Status: UP
Listen in your browser - HTML5 player(in browser, HTML5)
Click here to listen with your own player(launches your MP3 player)

RCSS 270200Z 07013KT 9999 FEW022 SCT040 32/23 Q1010 NOSIG RMK A2983

RCSS Flight Activity (Flightaware)

Listeners: 4 out of 1672 total

Emergency/Guard: 121.500
FIR Service (North of Taiwan): 125.500
Songshan Ground: 121.900
Songshan Tower: 118.100
Taipei Arrival/Departure: 119.700
Taipei Arrival/Departure: 119.600
Taipei Arrival/Departure (RCTP): 125.100

RJAA Approach (Archives)
Tokyo, Japan

Feed Status: UP
Listen in your browser - HTML5 player(in browser, HTML5)
Click here to listen with your own player(launches your MP3 player)

RJAA 270200Z 04007KT 350V080 9999 FEW020 BKN030 26/20 Q1015 NOSIG RMK 1CU020 6CU030 A2997

RJAA Flight Activity (Flightaware)

Listeners: 14 out of 1672 total

Tokyo Approach: 124.400
Tokyo Approach: 127.700

RJAA ATIS (Archives)
Tokyo, Japan

Feed Status: UP
Listen in your browser - HTML5 player(in browser, HTML5)
Click here to listen with your own player(launches your MP3 player)

RJAA 270200Z 04007KT 350V080 9999 FEW020 BKN030 26/20 Q1015 NOSIG RMK 1CU020 6CU030 A2997

RJAA Flight Activity (Flightaware)

Listeners: 1 out of 1672 total

Narita ATIS: 128.250

RJAA Clearance Delivery (Archives)
Tokyo, Japan

Feed Status: UP
Listen in your browser - HTML5 player(in browser, HTML5)
Click here to listen with your own player(launches your MP3 player)

RJAA 270200Z 04007KT 350V080 9999 FEW020 BKN030 26/20 Q1015 NOSIG RMK 1CU020 6CU030 A2997

RJAA Flight Activity (Flightaware)

Listeners: 4 out of 1672 total

Narita Clearance Delivery (Asia/Pacific): 121.650
Narita Clearance Delivery (US/Europe): 121.900

RJAA Clearance Delivery #1 (Archives)
Tokyo, Japan

Feed Status: UP
Listen in your browser - HTML5 player(in browser, HTML5)
Click here to listen with your own player(launches your MP3 player)

RJAA 270200Z 04007KT 350V080 9999 FEW020 BKN030 26/20 Q1015 NOSIG RMK 1CU020 6CU030 A2997

RJAA Flight Activity (Flightaware)

Listeners: 0 out of 1672 total

Narita Clearance Delivery (Asia/Pacific): 121.650

RJAA Clearance Delivery #2 (Archives)
Tokyo, Japan

Feed Status: UP
Listen in your browser - HTML5 player(in browser, HTML5)
Click here to listen with your own player(launches your MP3 player)

RJAA 270200Z 04007KT 350V080 9999 FEW020 BKN030 26/20 Q1015 NOSIG RMK 1CU020 6CU030 A2997

RJAA Flight Activity (Flightaware)

Listeners: 0 out of 1672 total

Narita Clearance Delivery (US/Europe): 121.900

RJAA Company Channels (Archives)
Tokyo, Japan

Feed Status: UP
Listen in your browser - HTML5 player(in browser, HTML5)
Click here to listen with your own player(launches your MP3 player)

RJAA 270200Z 04007KT 350V080 9999 FEW020 BKN030 26/20 Q1015 NOSIG RMK 1CU020 6CU030 A2997

RJAA Flight Activity (Flightaware)

Listeners: 0 out of 1672 total

Ops: 130.450
Ops: 130.550
Ops: 130.900
Ops: 131.025
Ops: 131.100
Ops: 131.200
Ops: 131.700
Ops: 131.750

RJAA Departure (Archives)
Tokyo, Japan

Feed Status: UP
Listen in your browser - HTML5 player(in browser, HTML5)
Click here to listen with your own player(launches your MP3 player)

RJAA 270200Z 04007KT 350V080 9999 FEW020 BKN030 26/20 Q1015 NOSIG RMK 1CU020 6CU030 A2997

RJAA Flight Activity (Flightaware)

Listeners: 2 out of 1672 total

Tokyo Departure: 119.600
Tokyo Departure: 124.200

RJAA Departure #1 (Archives)
Tokyo, Japan

Feed Status: UP
Listen in your browser - HTML5 player(in browser, HTML5)
Click here to listen with your own player(launches your MP3 player)

RJAA 270200Z 04007KT 350V080 9999 FEW020 BKN030 26/20 Q1015 NOSIG RMK 1CU020 6CU030 A2997

RJAA Flight Activity (Flightaware)

Listeners: 1 out of 1672 total

Tokyo Departure: 124.200

RJAA Departure #2 (Archives)
Tokyo, Japan

Feed Status: UP
Listen in your browser - HTML5 player(in browser, HTML5)
Click here to listen with your own player(launches your MP3 player)

RJAA 270200Z 04007KT 350V080 9999 FEW020 BKN030 26/20 Q1015 NOSIG RMK 1CU020 6CU030 A2997

RJAA Flight Activity (Flightaware)

Listeners: 0 out of 1672 total

Tokyo Departure: 119.600

RJAA Emergency/Guard (Archives)
Tokyo, Japan

Feed Status: UP
Listen in your browser - HTML5 player(in browser, HTML5)
Click here to listen with your own player(launches your MP3 player)

RJAA 270200Z 04007KT 350V080 9999 FEW020 BKN030 26/20 Q1015 NOSIG RMK 1CU020 6CU030 A2997

RJAA Flight Activity (Flightaware)

Listeners: 1 out of 1672 total

Emergency/Guard: 121.500

RJAA Ground #1 (Archives)
Tokyo, Japan

Feed Status: UP
Listen in your browser - HTML5 player(in browser, HTML5)
Click here to listen with your own player(launches your MP3 player)

RJAA 270200Z 04007KT 350V080 9999 FEW020 BKN030 26/20 Q1015 NOSIG RMK 1CU020 6CU030 A2997

RJAA Flight Activity (Flightaware)

Listeners: 3 out of 1672 total

Narita Ground: 121.850

RJAA Ground #2 (Archives)
Tokyo, Japan

Feed Status: UP
Listen in your browser - HTML5 player(in browser, HTML5)
Click here to listen with your own player(launches your MP3 player)

RJAA 270200Z 04007KT 350V080 9999 FEW020 BKN030 26/20 Q1015 NOSIG RMK 1CU020 6CU030 A2997

RJAA Flight Activity (Flightaware)

Listeners: 2 out of 1672 total

Narita Ground: 121.950

RJAA Radar 119.025 (Archives)
Tokyo, Japan

Feed Status: UP
Listen in your browser - HTML5 player(in browser, HTML5)
Click here to listen with your own player(launches your MP3 player)

RJAA 270200Z 04007KT 350V080 9999 FEW020 BKN030 26/20 Q1015 NOSIG RMK 1CU020 6CU030 A2997

RJAA Flight Activity (Flightaware)

Listeners: 3 out of 1672 total

Tokyo Radar: 119.025

RJAA Radar 120.2 (Archives)
Tokyo, Japan

Feed Status: UP
Listen in your browser - HTML5 player(in browser, HTML5)
Click here to listen with your own player(launches your MP3 player)

RJAA 270200Z 04007KT 350V080 9999 FEW020 BKN030 26/20 Q1015 NOSIG RMK 1CU020 6CU030 A2997

RJAA Flight Activity (Flightaware)

Listeners: 1 out of 1672 total

Tokyo Radar: 120.200

RJAA Radar 120.6 (Archives)
Tokyo, Japan

Feed Status: UP
Listen in your browser - HTML5 player(in browser, HTML5)
Click here to listen with your own player(launches your MP3 player)

RJAA 270200Z 04007KT 350V080 9999 FEW020 BKN030 26/20 Q1015 NOSIG RMK 1CU020 6CU030 A2997

RJAA Flight Activity (Flightaware)

Listeners: 1 out of 1672 total

Tokyo Radar: 120.600

RJAA Radar 132.1 (Archives)
Tokyo, Japan

Feed Status: UP
Listen in your browser - HTML5 player(in browser, HTML5)
Click here to listen with your own player(launches your MP3 player)

RJAA 270200Z 04007KT 350V080 9999 FEW020 BKN030 26/20 Q1015 NOSIG RMK 1CU020 6CU030 A2997

RJAA Flight Activity (Flightaware)

Listeners: 1 out of 1672 total

Tokyo Radar: 132.100

RJAA Radar 133.35 (Archives)
Tokyo, Japan

Feed Status: UP
Listen in your browser - HTML5 player(in browser, HTML5)
Click here to listen with your own player(launches your MP3 player)

RJAA 270200Z 04007KT 350V080 9999 FEW020 BKN030 26/20 Q1015 NOSIG RMK 1CU020 6CU030 A2997

RJAA Flight Activity (Flightaware)

Listeners: 1 out of 1672 total

Tokyo Radar: 133.350

RJAA Ramp #1 (Archives)
Tokyo, Japan

Feed Status: UP
Listen in your browser - HTML5 player(in browser, HTML5)
Click here to listen with your own player(launches your MP3 player)

RJAA 270200Z 04007KT 350V080 9999 FEW020 BKN030 26/20 Q1015 NOSIG RMK 1CU020 6CU030 A2997

RJAA Flight Activity (Flightaware)

Listeners: 0 out of 1672 total

Narita Ramp: 121.600

RJAA Ramp #2 (Archives)
Tokyo, Japan

Feed Status: UP
Listen in your browser - HTML5 player(in browser, HTML5)
Click here to listen with your own player(launches your MP3 player)

RJAA 270200Z 04007KT 350V080 9999 FEW020 BKN030 26/20 Q1015 NOSIG RMK 1CU020 6CU030 A2997

RJAA Flight Activity (Flightaware)

Listeners: 2 out of 1672 total

Narita Ramp: 121.750

RJAA TCA (Archives)
Tokyo, Japan

Feed Status: UP
Listen in your browser - HTML5 player(in browser, HTML5)
Click here to listen with your own player(launches your MP3 player)

RJAA 270200Z 04007KT 350V080 9999 FEW020 BKN030 26/20 Q1015 NOSIG RMK 1CU020 6CU030 A2997

RJAA Flight Activity (Flightaware)

Listeners: 0 out of 1672 total

Tokyo TCA (Terminal Control Area): 119.450

RJAA Tokyo Control (Archives)
Tokyo, Japan

Feed Status: UP
Listen in your browser - HTML5 player(in browser, HTML5)
Click here to listen with your own player(launches your MP3 player)

RJAA 270200Z 04007KT 350V080 9999 FEW020 BKN030 26/20 Q1015 NOSIG RMK 1CU020 6CU030 A2997

RJAA Flight Activity (Flightaware)

Listeners: 2 out of 1672 total

Tokyo Control: 125.900

RJAA Tower #1 (Archives)
Tokyo, Japan

Feed Status: UP
Listen in your browser - HTML5 player(in browser, HTML5)
Click here to listen with your own player(launches your MP3 player)

RJAA 270200Z 04007KT 350V080 9999 FEW020 BKN030 26/20 Q1015 NOSIG RMK 1CU020 6CU030 A2997

RJAA Flight Activity (Flightaware)

Listeners: 5 out of 1672 total

Narita Tower (Rwy 16R/34L): 118.200

RJAA Tower #2 (Archives)
Tokyo, Japan

Feed Status: UP
Listen in your browser - HTML5 player(in browser, HTML5)
Click here to listen with your own player(launches your MP3 player)

RJAA 270200Z 04007KT 350V080 9999 FEW020 BKN030 26/20 Q1015 NOSIG RMK 1CU020 6CU030 A2997

RJAA Flight Activity (Flightaware)

Listeners: 3 out of 1672 total

Narita Tower (Rwy 16L/34R): 118.350

RJAA Tower (Both) (Archives)
Tokyo, Japan

Feed Status: UP
Listen in your browser - HTML5 player(in browser, HTML5)
Click here to listen with your own player(launches your MP3 player)

RJAA 270200Z 04007KT 350V080 9999 FEW020 BKN030 26/20 Q1015 NOSIG RMK 1CU020 6CU030 A2997

RJAA Flight Activity (Flightaware)

Listeners: 1 out of 1672 total

Narita Tower (Rwy 16L/34R): 118.350
Narita Tower (Rwy 16R/34L): 118.200

RJOO Tower (Archives)
Osaka, Japan

Feed Status: UP
Listen in your browser - HTML5 player(in browser, HTML5)
Click here to listen with your own player(launches your MP3 player)

RJOO 270200Z 07007KT 360V110 9999 FEW025 SCT120 BKN/// 28/19 Q1012 RMK 1CU025 3AC120 A2991

RJOO Flight Activity (Flightaware)

Listeners: 50 out of 1672 total

Osaka Tower: 118.100

RJSF RDO (Archives)
Sukagawa, Japan

Feed Status: UP
Listen in your browser - HTML5 player(in browser, HTML5)
Click here to listen with your own player(launches your MP3 player)

RJSF 270200Z 01003KT 320V080 9999 FEW020 BKN/// 23/17 Q1016

RJSF Flight Activity (Flightaware)

Listeners: 2 out of 1672 total

Fukushima Radio: 118.050

RJTT App/Dep (Archives)
Tokyo, Japan

Feed Status: UP
Listen in your browser - HTML5 player(in browser, HTML5)
Click here to listen with your own player(launches your MP3 player)

RJTT 270200Z 08005KT 9999 FEW020 25/21 Q1014 NOSIG RMK 1CU020 A2997

RJTT Flight Activity (Flightaware)

Listeners: 26 out of 1672 total

Tokyo Approach: 119.100
Tokyo Approach: 119.400
Tokyo Departure: 120.800
Tokyo Departure: 126.000

RJTT Approach (Archives)
Tokyo, Japan

Feed Status: UP
Listen in your browser - HTML5 player(in browser, HTML5)
Click here to listen with your own player(launches your MP3 player)

RJTT 270200Z 08005KT 9999 FEW020 25/21 Q1014 NOSIG RMK 1CU020 A2997

RJTT Flight Activity (Flightaware)

Listeners: 6 out of 1672 total

Tokyo Approach: 119.100
Tokyo Approach: 119.400

RJTT ATIS (Archives)
Tokyo, Japan

Feed Status: UP
Listen in your browser - HTML5 player(in browser, HTML5)
Click here to listen with your own player(launches your MP3 player)

RJTT 270200Z 08005KT 9999 FEW020 25/21 Q1014 NOSIG RMK 1CU020 A2997

RJTT Flight Activity (Flightaware)

Listeners: 2 out of 1672 total

Tokyo ATIS: 128.800

RJTT Company Channels (Archives)
Tokyo, Japan

Feed Status: UP
Listen in your browser - HTML5 player(in browser, HTML5)
Click here to listen with your own player(launches your MP3 player)

RJTT 270200Z 08005KT 9999 FEW020 25/21 Q1014 NOSIG RMK 1CU020 A2997

RJTT Flight Activity (Flightaware)

Listeners: 17 out of 1672 total

Company TBD: 128.500
Company TBD: 131.850
Company TBD: 129.725
Company TBD: 129.700
Company TBD: 131.900
Company TBD: 129.850
Company TBD: 128.975
Company TBD: 123.675
Company TBD: 132.075

RJTT Del/Ground (Archives)
Tokyo, Japan

Feed Status: UP
Listen in your browser - HTML5 player(in browser, HTML5)
Click here to listen with your own player(launches your MP3 player)

RJTT 270200Z 08005KT 9999 FEW020 25/21 Q1014 NOSIG RMK 1CU020 A2997

RJTT Flight Activity (Flightaware)

Listeners: 4 out of 1672 total

Tokyo Clearance Delivery: 121.825
Tokyo Ground: 121.700
Tokyo Ground: 118.225
Tokyo Ground: 121.625
Tokyo Ground: 121.975

RJTT Del/Twr/TCA/Gnd (Archives)
Tokyo, Japan

Feed Status: UP
Listen in your browser - HTML5 player(in browser, HTML5)
Click here to listen with your own player(launches your MP3 player)

RJTT 270200Z 08005KT 9999 FEW020 25/21 Q1014 NOSIG RMK 1CU020 A2997

RJTT Flight Activity (Flightaware)

Listeners: 6 out of 1672 total

Tokyo Clearance Delivery: 121.825
Tokyo Ground: 121.975
Tokyo Ground: 121.625
Tokyo Ground: 121.700
Tokyo Ground: 118.225
Tokyo TCA: 124.750
Tokyo Tower: 118.100
Tokyo Tower: 118.575
Tokyo Tower: 118.725
Tokyo Tower: 124.350

RJTT Departure (Archives)
Tokyo, Japan

Feed Status: UP
Listen in your browser - HTML5 player(in browser, HTML5)
Click here to listen with your own player(launches your MP3 player)

RJTT 270200Z 08005KT 9999 FEW020 25/21 Q1014 NOSIG RMK 1CU020 A2997

RJTT Flight Activity (Flightaware)

Listeners: 4 out of 1672 total

Tokyo Departure: 120.800
Tokyo Departure: 126.000

RJTT Tokyo Control (Archives)
Tokyo, Japan

Feed Status: UP
Listen in your browser - HTML5 player(in browser, HTML5)
Click here to listen with your own player(launches your MP3 player)

RJTT 270200Z 08005KT 9999 FEW020 25/21 Q1014 NOSIG RMK 1CU020 A2997

RJTT Flight Activity (Flightaware)

Listeners: 35 out of 1672 total

Tokyo Control: 133.700
Tokyo Control: 125.900
Tokyo Control: 120.500

RJTT Twr/TCA (Archives)
Tokyo, Japan

Feed Status: UP
Listen in your browser - HTML5 player(in browser, HTML5)
Click here to listen with your own player(launches your MP3 player)

RJTT 270200Z 08005KT 9999 FEW020 25/21 Q1014 NOSIG RMK 1CU020 A2997

RJTT Flight Activity (Flightaware)

Listeners: 21 out of 1672 total

Tokyo TCA: 124.750
Tokyo Tower: 118.100
Tokyo Tower: 118.575
Tokyo Tower: 118.725
Tokyo Tower: 124.350

RJTY Approach (Archives)
Tokyo, Japan

Feed Status: UP
Listen in your browser - HTML5 player(in browser, HTML5)
Click here to listen with your own player(launches your MP3 player)

RJTY 270156Z 11003KT 10SM FEW031 SCT036 BKN100 26/17 A3000 RMK AO2A SLP159 T02550171

RJTY Flight Activity (Flightaware)

Listeners: 7 out of 1672 total

Yokota Approach: 118.300
Yokota APproach: 123.800
Yokota Approach: 120.700

RJTY ATIS (Archives)
Tokyo, Japan

Feed Status: UP
Listen in your browser - HTML5 player(in browser, HTML5)
Click here to listen with your own player(launches your MP3 player)

RJTY 270156Z 11003KT 10SM FEW031 SCT036 BKN100 26/17 A3000 RMK AO2A SLP159 T02550171

RJTY Flight Activity (Flightaware)

Listeners: 1 out of 1672 total

Yokota ATIS: 126.400

RJTY Ground (Archives)
Tokyo, Japan

Feed Status: UP
Listen in your browser - HTML5 player(in browser, HTML5)
Click here to listen with your own player(launches your MP3 player)

RJTY 270156Z 11003KT 10SM FEW031 SCT036 BKN100 26/17 A3000 RMK AO2A SLP159 T02550171

RJTY Flight Activity (Flightaware)

Listeners: 1 out of 1672 total

Yokota Ground: 133.200

RJTY Ground/Tower (Archives)
Tokyo, Japan

Feed Status: UP
Listen in your browser - HTML5 player(in browser, HTML5)
Click here to listen with your own player(launches your MP3 player)

RJTY 270156Z 11003KT 10SM FEW031 SCT036 BKN100 26/17 A3000 RMK AO2A SLP159 T02550171

RJTY Flight Activity (Flightaware)

Listeners: 5 out of 1672 total

Yokota Ground: 133.200
Yokota Tower: 134.300

RJTY Tower (Archives)
Tokyo, Japan

Feed Status: UP
Listen in your browser - HTML5 player(in browser, HTML5)
Click here to listen with your own player(launches your MP3 player)

RJTY 270156Z 11003KT 10SM FEW031 SCT036 BKN100 26/17 A3000 RMK AO2A SLP159 T02550171

RJTY Flight Activity (Flightaware)

Listeners: 6 out of 1672 total

Yokota Tower: 134.300

RPLL App/Dep 124.4 (Archives)
Manila, Philippines

Feed Status: UP
Listen in your browser - HTML5 player(in browser, HTML5)
Click here to listen with your own player(launches your MP3 player)

RPLL 270200Z 11006KT 070V160 9999 FEW025 SCT300 31/25 Q1006 NOSIG RMK A2971

RPLL Flight Activity (Flightaware)

Listeners: 0 out of 1672 total

Manila Approach/.Departure: 124.400

RPLL App/Dep 124.8 (Archives)
Manila, Philippines

Feed Status: UP
Listen in your browser - HTML5 player(in browser, HTML5)
Click here to listen with your own player(launches your MP3 player)

RPLL 270200Z 11006KT 070V160 9999 FEW025 SCT300 31/25 Q1006 NOSIG RMK A2971

RPLL Flight Activity (Flightaware)

Listeners: 1 out of 1672 total

Manila Approach/.Departure: 124.800

RPLL Ground (Archives)
Manila, Philippines

Feed Status: UP
Listen in your browser - HTML5 player(in browser, HTML5)
Click here to listen with your own player(launches your MP3 player)

RPLL 270200Z 11006KT 070V160 9999 FEW025 SCT300 31/25 Q1006 NOSIG RMK A2971

RPLL Flight Activity (Flightaware)

Listeners: 1 out of 1672 total

Manila Ground: 121.800

RPLL Ramp T3 (Archives)
Manila, Philippines

Feed Status: UP
Listen in your browser - HTML5 player(in browser, HTML5)
Click here to listen with your own player(launches your MP3 player)

RPLL 270200Z 11006KT 070V160 9999 FEW025 SCT300 31/25 Q1006 NOSIG RMK A2971

RPLL Flight Activity (Flightaware)

Listeners: 1 out of 1672 total

Manila Ramp/Taxi: 121.350

RPLL Ramp T4 (Archives)
Manila, Philippines

Feed Status: UP
Listen in your browser - HTML5 player(in browser, HTML5)
Click here to listen with your own player(launches your MP3 player)

RPLL 270200Z 11006KT 070V160 9999 FEW025 SCT300 31/25 Q1006 NOSIG RMK A2971

RPLL Flight Activity (Flightaware)

Listeners: 1 out of 1672 total

Manila Ramp T4: 123.250

RPLL Ramp/Taxi 121.7 (Archives)
Manila, Philippines

Feed Status: UP
Listen in your browser - HTML5 player(in browser, HTML5)
Click here to listen with your own player(launches your MP3 player)

RPLL 270200Z 11006KT 070V160 9999 FEW025 SCT300 31/25 Q1006 NOSIG RMK A2971

RPLL Flight Activity (Flightaware)

Listeners: 1 out of 1672 total

Manila Ramp/Taxi: 121.700

RPLL Tower (Archives)
Manila, Philippines

Feed Status: UP
Listen in your browser - HTML5 player(in browser, HTML5)
Click here to listen with your own player(launches your MP3 player)

RPLL 270200Z 11006KT 070V160 9999 FEW025 SCT300 31/25 Q1006 NOSIG RMK A2971

RPLL Flight Activity (Flightaware)

Listeners: 8 out of 1672 total

Manila Tower: 118.100

SANT Tower/Apps (Archives)
Tucuman, Argentina

Feed Status: UP
Listen in your browser - HTML5 player(in browser, HTML5)
Click here to listen with your own player(launches your MP3 player)

SANT 270200Z 23003KT 6000 BKN099 21/07 Q1013 RMK PP000

SANT Flight Activity (Flightaware)

Listeners: 0 out of 1672 total

Aeroclub Tucuman: 119.000
Aerolineas Argentinas SOC Salta: 131.100
Aerolineas Argentinas SOC Tucuman: 131.950
Air To Air: 123.450
Andes Lineas Aereas: 132.000
Campo Arenal: 130.950
Catamarca Tower: 118.150
Copa Airlines: 129.400
Cordoba Centro Norte: 125.100
Cordoba Centro Sur: 126.500
Emergency/Guard: 121.500
Lan Argentina Operaciones: 131.700
Lan Peru: 131.300
Salta Tower: 128.850
Santiago del Estero Tower: 118.700
Taca Peru: 126.450
Termas de Rio Hondo: 118.200
Termas de Rio Hondo: 119.850
Tucuman Ground: 121.750
Tucuman Ground: 121.750
Tucuman Tower: 118.350
Tucuman Tower: 119.500

SASA Twr/App (Archives)
Salta, Argentina

Feed Status: UP
Listen in your browser - HTML5 player(in browser, HTML5)
Click here to listen with your own player(launches your MP3 player)

SASA 270200Z 22004KT 200V290 9999 FEW100 14/03 Q1017 RMK PP000

SASA Flight Activity (Flightaware)

Listeners: 1 out of 1672 total

Cordoba Approach (North): 125.100
Salta Approach: 124.600
Salta Tower: 126.000
Salta Tower/Ground: 128.850

SAZN Tower (Archives)
Neuquen, Argentina

Feed Status: UP
Listen in your browser - HTML5 player(in browser, HTML5)
Click here to listen with your own player(launches your MP3 player)

SAZN 270200Z 23009KT CAVOK 14/01 Q1019

SAZN Flight Activity (Flightaware)

Listeners: 0 out of 1672 total

Neuquen Tower/Approach: 119.800

SAZS Gnd/Twr/App (Archives)
Rio Negro, Argentina

Feed Status: UP
Listen in your browser - HTML5 player(in browser, HTML5)
Click here to listen with your own player(launches your MP3 player)

SAZS 270200Z 29008KT CAVOK 05/M03 Q1021 RMK PP///

SAZS Flight Activity (Flightaware)

Listeners: 1 out of 1672 total

Bariloche Twr/App: 119.100
Comodoro Rivadavia Control: 125.500
Ezeiza South: 125.200

SBBE Twr/App/SBAZ (Archives)
Belem, Brazil

Feed Status: UP
Listen in your browser - HTML5 player(in browser, HTML5)
Click here to listen with your own player(launches your MP3 player)

SBBE 270200Z 07009KT CAVOK 26/23 Q1013

SBBE Flight Activity (Flightaware)

Listeners: 0 out of 1672 total

Amazonica FIR (SBAZ): 126.500
Amazonica FIR (SBAZ): 128.000
Amazonica FIR (SBAZ): 123.950
Amazonica FIR (SBAZ): 126.150
Amazonica FIR (SBAZ): 126.650
Amazonica FIR (SBAZ): 133.700
Belem Approach: 119.050
Belem Approach: 119.500
Belem Tower: 118.700

SBBR Approach (Archives)
Brasilia, Brazil

Feed Status: UP
Listen in your browser - HTML5 player(in browser, HTML5)
Click here to listen with your own player(launches your MP3 player)

SBBR 270200Z 19004KT CAVOK 23/15 Q1020

SBBR Flight Activity (Flightaware)

Listeners: 0 out of 1672 total

Brasilia Approach: 120.650
Brasilia Approach: 129.150
Brasilia Approach: 129.600
Brasilia Approach (Final): 119.200
Brasilia Departure: 119.500
Brasilia Departure: 119.700

SBBR Ground (Archives)
Brasilia, Brazil

Feed Status: UP
Listen in your browser - HTML5 player(in browser, HTML5)
Click here to listen with your own player(launches your MP3 player)

SBBR 270200Z 19004KT CAVOK 23/15 Q1020

SBBR Flight Activity (Flightaware)

Listeners: 0 out of 1672 total

Brasilia Ground: 121.950
Brasilia Ground: 121.800

SBBR Tower (Archives)
Brasilia, Brazil

Feed Status: UP
Listen in your browser - HTML5 player(in browser, HTML5)
Click here to listen with your own player(launches your MP3 player)

SBBR 270200Z 19004KT CAVOK 23/15 Q1020

SBBR Flight Activity (Flightaware)

Listeners: 0 out of 1672 total

Brasilia Tower: 118.100
Brasilia Tower: 181.750
Brasilia Tower: 118.450

SBCT Gnd/Twr/App (Archives)
Curitiba, Brazil

Feed Status: UP
Listen in your browser - HTML5 player(in browser, HTML5)
Click here to listen with your own player(launches your MP3 player)

SBCT 270200Z 13003KT 8000 SCT035 BKN100 14/13 Q1019

SBCT Flight Activity (Flightaware)

Listeners: 1 out of 1672 total

Curitiba Approach: 119.950
Curitiba Ground: 121.900
Curitiba Tower: 118.150
Curitiba Tower: 118.900

SBDN Twr/App
Presidente Prudente/Sao Paulo, Brazil

Feed Status: DOWN
Offline since: 2022-09-06 23:40:39 UTC

SBDN 270200Z 05012KT 9999 VCTS SCT045 FEW060CB BKN100 18/16 Q1017

Air-to-Air: 123.450
Curitiba Sector 13: 133.595
Prudente Approach: 118.450
Prudente Tower: 125.450

SBEG Tower/App (Archives)
Manaus, Brazil

Feed Status: UP
Listen in your browser - HTML5 player(in browser, HTML5)
Click here to listen with your own player(launches your MP3 player)

SBEG 270200Z 36004KT CAVOK 29/24 Q1011

SBEG Flight Activity (Flightaware)

Listeners: 3 out of 1672 total

Emergency/Guard: 121.500
Manaus Approach : 119.250
Manaus Approach: 120.400
Manaus Approach: 119.700
Manaus Tower: 118.300

SBFZ ACC/Misc
Fortaleza, Brazil

Feed Status: DOWN
Offline since: 2022-09-26 10:56:23 UTC

SBFZ 270200Z 10010KT 9999 SCT020 27/22 Q1014

Ait to Air: 123.450
SBAC: 131.250
SBJE: 131.050
SBJU: 131.750
SBMS: 125.800
SBPB: 126.600
SBRF ACC: 135.250
SBRF ACC: 133.500
SBRF ACC: 126.350
SBRF ACC: 125.150

SBFZ Twr/App/Center
Fortaleza, Brazil

Feed Status: DOWN
Offline since: 2022-09-04 13:13:40 UTC

SBFZ 270200Z 10010KT 9999 SCT020 27/22 Q1014

ACC-RE (Fortaleza Sector): 125.150
ACC-RE (Fortaleza Sector): 126.350
ACC-RE (Fortaleza Sector): 135.250
Fortaleza Approach: 133.000
Fortaleza Tower: 129.000

SBGO Gnd/Twr/App (Archives)
Goiania, Brazil

Feed Status: UP
Listen in your browser - HTML5 player(in browser, HTML5)
Click here to listen with your own player(launches your MP3 player)

SBGO 270200Z 13011KT CAVOK 24/20 Q1018

SBGO Flight Activity (Flightaware)

Listeners: 4 out of 1672 total

Anapolis Approach: 119.150
Anapolis Approach: 120.550
Anapolis Approach: 133.000
Anapolis Approach: 129.450
Emergency/Guard: 121.500
Goiania Ground: 121.700
Goiania Tower: 118.700
Goiania Tower: 121.050

SBJP Tower (Archives)
Joao Pessoa, Brazil

Feed Status: UP
Listen in your browser - HTML5 player(in browser, HTML5)
Click here to listen with your own player(launches your MP3 player)

SBJP 270200Z 15004KT CAVOK 24/21 Q1016

SBJP Flight Activity (Flightaware)

Listeners: 0 out of 1672 total

Joao Pessoa Tower: 118.300

SBJP Twr/Control/Airlines (Archives)
Joao Pessoa, Brazil

Feed Status: UP
Listen in your browser - HTML5 player(in browser, HTML5)
Click here to listen with your own player(launches your MP3 player)

SBJP 270200Z 15004KT CAVOK 24/21 Q1016

SBJP Flight Activity (Flightaware)

Listeners: 0 out of 1672 total

AZUL: 130.900
GOL: 131.225
Joao Pessoa Tower: 118.300
Recife Control: 119.500
TAM: 130.500

SBJU Tower/Center (Archives)
Juazeiro do Norte, Brazil

Feed Status: UP
Listen in your browser - HTML5 player(in browser, HTML5)
Click here to listen with your own player(launches your MP3 player)

SBJU 270200Z 00000KT 9999 BKN022 27/15 Q1018

SBJU Flight Activity (Flightaware)

Listeners: 1 out of 1672 total

Pilot-to-Pilot: 123.450
Radio Juazeiro: 131.750
Recife Center: 135.250
Recife Center: 125.150

SBKP Approach
Campinas, Brazil

Feed Status: DOWN
Offline since: 2022-08-25 10:44:39 UTC

SBKP 270200Z 12002KT 9999 FEW040 BKN100 17/15 Q1020

Campinas Approach: 132.100
Campinas Approach: 135.750

SBKP Tower #1 (Archives)
Campinas, Brazil

Feed Status: UP
Listen in your browser - HTML5 player(in browser, HTML5)
Click here to listen with your own player(launches your MP3 player)

SBKP 270200Z 12002KT 9999 FEW040 BKN100 17/15 Q1020

SBKP Flight Activity (Flightaware)

Listeners: 2 out of 1672 total

Campinas Tower: 118.250

SBKP Tower #2 (Archives)
Campinas, Brazil

Feed Status: UP
Listen in your browser - HTML5 player(in browser, HTML5)
Click here to listen with your own player(launches your MP3 player)

SBKP 270200Z 12002KT 9999 FEW040 BKN100 17/15 Q1020

SBKP Flight Activity (Flightaware)

Listeners: 0 out of 1672 total

Campinas Tower: 118.250

SBLO Twr/App/Center (Archives)
Londrina, Brazil

Feed Status: UP
Listen in your browser - HTML5 player(in browser, HTML5)
Click here to listen with your own player(launches your MP3 player)

SBLO 270200Z 01003KT 6000 BKN006 OVC090 17/17 Q1018

SBLO Flight Activity (Flightaware)

Listeners: 1 out of 1672 total

Curitiba Center: 128.350
Curitiba Center: 135.100
Curitiba Center: 125.800
Curitiba Center: 126.950
Emergency/Guard: 121.500
Londrina Approach: 129.700
Londrina Tower: 118.400
UNICOM: 123.450

SBMG Twr/App (Archives)
Maringa, Brazil

Feed Status: UP
Listen in your browser - HTML5 player(in browser, HTML5)
Click here to listen with your own player(launches your MP3 player)

SBMG 270200Z 07010KT CAVOK 16/15 Q1015

SBMG Flight Activity (Flightaware)

Listeners: 4 out of 1672 total

Londrina Approach: 129.700
Maringa Tower: 118.750
UNICOM: 123.450

SBMK RDO/Center (Archives)
Montes Claros, Brazil

Feed Status: UP
Listen in your browser - HTML5 player(in browser, HTML5)
Click here to listen with your own player(launches your MP3 player)

SBMK Flight Activity (Flightaware)

Listeners: 0 out of 1672 total

Brasilia Center (Sector 15): 127.300
Montes Claros RDO: 131.700

SBMQ Tower/App/Center (Archives)
Macapa, Brazil

Feed Status: UP
Listen in your browser - HTML5 player(in browser, HTML5)
Click here to listen with your own player(launches your MP3 player)

SBMQ 270200Z 05005KT 9999 FEW013 28/24 Q1013

SBMQ Flight Activity (Flightaware)

Listeners: 0 out of 1672 total

Amazonico Center: 123.950
Amazonico Center: 128.000
Macapa Approach: 119.000
Macapa Tower: 118.000

SBMT Tower
Sao Paulo, Brazil

Feed Status: DOWN
Offline since: 2022-02-08 12:31:22 UTC

Marte Tower: 133.350

SBNF Tower
Navegantes, Brazil

Feed Status: DOWN
Offline since: 2022-07-24 11:29:40 UTC

SBNF 270200Z 26008KT CAVOK 17/16 Q1015

Navegantes Tower: 118.200

SBPA Gnd/Twr/App/Center (Archives)
Porto Alegre, Brazil

Feed Status: UP
Listen in your browser - HTML5 player(in browser, HTML5)
Click here to listen with your own player(launches your MP3 player)

SBPA 270200Z 08006KT CAVOK 19/17 Q1014

SBPA Flight Activity (Flightaware)

Listeners: 1 out of 1672 total

BACO (Canoas) Ground: 121.700
BACO (Canoas) Tower: 118.500
BACO (Canoas) Tower (Mil): 122.800
Curitiba Center (Sector 1/South SBPA): 126.750
Curitiba Center (Sector 1/South SBPA): 127.400
Curitiba Center (Sector 2): 123.725
Curitiba Center (Sector 2): 135.900
Curitiba Center (Sector 3/West SBFL): 127.500
Curitiba Center (Sector 3/West SBFL): 126.100
Curitiba Center (Sector 4/South SBFL): 135.850
Curitiba Center (Sector 4/South SBFL): 128.450
Curitiba Center (Sector 5/East SBCT): 124.400
Curitiba Center (Sector 5/East SBCT): 125.400
Curitiba Center (Sector 6/East SBCT Atlantico): 128.400
Curitiba Center (Sector 6/East SBCT Atlantico): 127.050
Curitiba Center (Sector 9/North SBCT): 132.800
Curitiba Center (Sector 9/North SBCT): 126.500
Emergency/Guard: 121.500
Porto Alegre Approach Sector 1: 120.100
Porto Alegre Approach Sector 2: 120.550
Porto Alegre Approach Sector 3: 128.900
Porto Alegre Approach Sector 4: 119.000
Salgado Filho Ground: 121.900
Salgado Filho Tower: 118.100

SBPB Info (Archives)
Parnaiba, Brazil

Feed Status: UP
Listen in your browser - HTML5 player(in browser, HTML5)
Click here to listen with your own player(launches your MP3 player)


SBPB Flight Activity (Flightaware)

Listeners: 0 out of 1672 total

Parnaiba Info: 126.600

SBPL RDO/ACC (Archives)
Petrolina, Brazil

Feed Status: UP
Listen in your browser - HTML5 player(in browser, HTML5)
Click here to listen with your own player(launches your MP3 player)

SBPL 270200Z 17007KT CAVOK 26/12 Q1016

SBPL Flight Activity (Flightaware)

Listeners: 3 out of 1672 total

ACC RE Sector 5: 127.500
ACC RE Sector 5: 128.450
ACC RE Sector 6: 125.400
ACC RE Sector 6: 134.900
Air to Air/UNICOM: 123.450
Emergency/Guard: 121.500
Misc: 123.400
Petrolina RDO: 125.700
Recife FIS: 123.625

SBRF App 129.60 (Archives)
Recife, Brazil

Feed Status: UP
Listen in your browser - HTML5 player(in browser, HTML5)
Click here to listen with your own player(launches your MP3 player)

SBRF 270200Z 14007KT 9999 SCT025 26/20 Q1016

SBRF Flight Activity (Flightaware)

Listeners: 5 out of 1672 total

Recife Approach: 129.600

SBRF Gol Ops (Archives)
Recife, Brazil

Feed Status: UP
Listen in your browser - HTML5 player(in browser, HTML5)
Click here to listen with your own player(launches your MP3 player)

SBRF 270200Z 14007KT 9999 SCT025 26/20 Q1016

SBRF Flight Activity (Flightaware)

Listeners: 0 out of 1672 total

Gol Ops: 131.225

SBRF Ground (Archives)
Recife, Brazil

Feed Status: UP
Listen in your browser - HTML5 player(in browser, HTML5)
Click here to listen with your own player(launches your MP3 player)

SBRF 270200Z 14007KT 9999 SCT025 26/20 Q1016

SBRF Flight Activity (Flightaware)

Listeners: 1 out of 1672 total

Recife Ground: 121.850

SBRF LATAM Ops (Archives)
Recife, Brazil

Feed Status: UP
Listen in your browser - HTML5 player(in browser, HTML5)
Click here to listen with your own player(launches your MP3 player)

SBRF 270200Z 14007KT 9999 SCT025 26/20 Q1016

SBRF Flight Activity (Flightaware)

Listeners: 0 out of 1672 total

LATAM Ops: 130.500

SBRF Recife ACC (Archives)
Recife, Brazil

Feed Status: UP
Listen in your browser - HTML5 player(in browser, HTML5)
Click here to listen with your own player(launches your MP3 player)

SBRF 270200Z 14007KT 9999 SCT025 26/20 Q1016

SBRF Flight Activity (Flightaware)

Listeners: 1 out of 1672 total

Recife Center: 128.700
Recife Center: 133.650
Recife Center: 134.800

SBRF Tower (Archives)
Recife, Brazil

Feed Status: UP
Listen in your browser - HTML5 player(in browser, HTML5)
Click here to listen with your own player(launches your MP3 player)

SBRF 270200Z 14007KT 9999 SCT025 26/20 Q1016

SBRF Flight Activity (Flightaware)

Listeners: 2 out of 1672 total

Recife Tower: 125.250
Recife Tower: 118.350
Recife Tower: 118.900

SBRP Tower/Center
Ribeirao Preto, Brazil

Feed Status: DOWN
Offline since: 2022-07-07 10:21:40 UTC

SBRP 270200Z 12004KT 090V160 9999 FEW030 OVC080 18/16 Q1020

Leite Lopes Tower: 118.000
Pirassununga Center (North): 119.550

SBSL Twr/App/FIR
Sao Luis, Brazil

Feed Status: DOWN
Offline since: 2022-09-04 20:25:06 UTC

SBSL 270200Z 04008KT CAVOK 27/23 Q1013

Amazonica Center: 133.700
Sao Luis Approach: 119.100
Sao Luis Tower: 118.900

SBSN Twr/App/ACC (Archives)
Santarem, Brazil

Feed Status: UP
Listen in your browser - HTML5 player(in browser, HTML5)
Click here to listen with your own player(launches your MP3 player)

SBSN 270200Z 14005KT 9999 FEW015 26/25 Q1011

SBSN Flight Activity (Flightaware)

Listeners: 0 out of 1672 total

Brasilia Center/ACC: 123.650
Brasilia Center/ACC: 125.050
Santarem Approach: 119.300
Santarem Tower: 118.100

SBSR AFIS/App/Center (Archives)
Sao Jose do Rio Preto, Brazil

Feed Status: UP
Listen in your browser - HTML5 player(in browser, HTML5)
Click here to listen with your own player(launches your MP3 player)

SBSR 270200Z 15007KT 9999 FEW010 BKN070 18/17 Q1019

SBSR Flight Activity (Flightaware)

Listeners: 8 out of 1672 total

Academia Approach (North Sector): 119.750
Academia Approach (North Sector): 120.400
Brasilia Center: 135.150
Rio Preto Radio AFIS: 130.850

SBTE Twr/App (Archives)
Teresina, Brazil

Feed Status: UP
Listen in your browser - HTML5 player(in browser, HTML5)
Click here to listen with your own player(launches your MP3 player)

SBTE 270200Z 36008KT CAVOK 29/20 Q1012

SBTE Flight Activity (Flightaware)

Listeners: 3 out of 1672 total

Teresina Approach: 119.600
Teresina Tower: 118.800

SBRE Recife ACC (Archives)
Paulo Afonso, Brazil

Feed Status: UP
Listen in your browser - HTML5 player(in browser, HTML5)
Click here to listen with your own player(launches your MP3 player)

SBRE Flight Activity (Flightaware)

Listeners: 0 out of 1672 total

Recife Center (ACC): 125.400
Recife Center (ACC): 125.450
Recife Center (ACC): 126.850
Recife Center (ACC): 133.650
Recife Center (ACC): 134.500
Recife Center (ACC): 134.900

SBUF AFIS/Center (Archives)
Paulo Afonso, Brazil

Feed Status: UP
Listen in your browser - HTML5 player(in browser, HTML5)
Click here to listen with your own player(launches your MP3 player)


SBUF Flight Activity (Flightaware)

Listeners: 0 out of 1672 total

Paulo Afonso Radio: 125.850
Recife Center: 133.650
Recife Center: 134.500
Recife Center: 125.450

SBQV AFIS
Vitoria da Conquista, Brazil

Feed Status: DOWN
Offline since: 2022-08-27 02:12:06 UTC

Conquista AFIS: 130.850
Despacho Azul: 131.875
Despacho Passaredo: 132.000

SCEL Gnd/Twr/Radar
Santiago, Chile

Feed Status: DOWN
Offline since: 2022-06-13 17:47:06 UTC

SCEL 270200Z 15005KT 9999 BKN180 BKN200 13/07 Q1018 NOSIG

Santiago Authorizations: 121.700
Santiago Control (Lat 3323S North): 128.100
Santiago Control (Lat 3323S South): 126.300
Santiago Ground (Primary): 122.200
Santiago Ground (Secondary): 122.500
Santiago Radar: 125.400
Santiago Radar: 135.400
Santiago Radar (Arrival, Primary): 129.700
Santiago Radar (Arrival, Secondary): 119.700
Santiago Radar (Arrival, Secondary): 123.800
Santiago Radar (Departure, Primary): 121.100
Santiago Radar (Departure, Secondary): 123.800
Santiago Radar (Information, Primary): 122.400
Santiago Radar (Information, Secondary): 120.800
Santiago Radar (Information, Secondary): 123.800
Santiago Tower (Primary): 118.100
Santiago Tower (Secondary): 118.350
SCTB Tobalaba Tower: 118.700

SEGU App/Dep/Info (Archives)
Guayaquil, Ecuador

Feed Status: UP
Listen in your browser - HTML5 player(in browser, HTML5)
Click here to listen with your own player(launches your MP3 player)

SEGU 270200Z 22010KT 9999 SCT030 SCT100 23/19 Q1011 NOSIG RMK A2988

SEGU Flight Activity (Flightaware)

Listeners: 0 out of 1672 total

Guayaquil Approach: 120.700
Guayaquil Approach (Secondary): 119.300
Guayaquil Info: 126.900

SEGU Gnd/Twr (Archives)
Guayaquil, Ecuador

Feed Status: UP
Listen in your browser - HTML5 player(in browser, HTML5)
Click here to listen with your own player(launches your MP3 player)

SEGU 270200Z 22010KT 9999 SCT030 SCT100 23/19 Q1011 NOSIG RMK A2988

SEGU Flight Activity (Flightaware)

Listeners: 0 out of 1672 total

Guayaquil Ground: 121.900
Guayaquil Ground (Secondary): 121.700
Guayaquil Tower: 118.300
Guayaquil Tower (Secondary): 118.900

SEGU Gnd/Twr/App (Archives)
Guayaquil, Ecuador

Feed Status: UP
Listen in your browser - HTML5 player(in browser, HTML5)
Click here to listen with your own player(launches your MP3 player)

SEGU 270200Z 22010KT 9999 SCT030 SCT100 23/19 Q1011 NOSIG RMK A2988

SEGU Flight Activity (Flightaware)

Listeners: 0 out of 1672 total

Guayaquil Approach: 120.700
Guayaquil Ground: 121.900
Guayaquil Tower: 118.300

SEGU Guayaquil Center (Archives)
Guayaquil, Ecuador

Feed Status: UP
Listen in your browser - HTML5 player(in browser, HTML5)
Click here to listen with your own player(launches your MP3 player)

SEGU 270200Z 22010KT 9999 SCT030 SCT100 23/19 Q1011 NOSIG RMK A2988

SEGU Flight Activity (Flightaware)

Listeners: 0 out of 1672 total

Guayaquil Center: 127.950
Guayaquil Center: 128.300
Guayaquil Center (Secondary): 128.000
Guayaquil Center (Secondary): 123.900

SEQM ATIS (Archives)
Quito, Ecuador

Feed Status: UP
Listen in your browser - HTML5 player(in browser, HTML5)
Click here to listen with your own player(launches your MP3 player)

SEQM 270200Z 08004KT 9999 FEW005 12/10 Q1026 NOSIG RMK A3031

SEQM Flight Activity (Flightaware)

Listeners: 0 out of 1672 total

Quito ATIS: 118.700

SEQM Gnd/Twr/App (Archives)
Quito, Ecuador

Feed Status: UP
Listen in your browser - HTML5 player(in browser, HTML5)
Click here to listen with your own player(launches your MP3 player)

SEQM 270200Z 08004KT 9999 FEW005 12/10 Q1026 NOSIG RMK A3031

SEQM Flight Activity (Flightaware)

Listeners: 0 out of 1672 total

Quito Approach/Departure: 119.700
Quito Approach/Departure: 121.200
Quito Ground: 121.900
Quito Tower: 118.100
Quito Tower (Secondary): 118.350

SEQM Tower (Archives)
Quito, Ecuador

Feed Status: UP
Listen in your browser - HTML5 player(in browser, HTML5)
Click here to listen with your own player(launches your MP3 player)

SEQM 270200Z 08004KT 9999 FEW005 12/10 Q1026 NOSIG RMK A3031

SEQM Flight Activity (Flightaware)

Listeners: 0 out of 1672 total

Quito Tower: 118.100
Quito Tower (Secondary): 118.350

SKBO Del/Gnd/Twr/App
Bogota, Colombia

Feed Status: DOWN
Offline since: 2020-09-01 16:38:05 UTC

SKBO 270200Z 04004KT 9999 FEW017 12/07 Q1028 NOSIG RMK A3037

Bogota Approach: 119.500
Bogota Clearance Delivery: 121.600
Bogota Departure (North): 121.300
Bogota Departure (South): 119.650
Bogota Ground (North): 121.800
Bogota Ground (South): 122.750
Bogota Information: 126.900
Bogota Tower (North): 118.100
Bogota Tower (South): 118.250
Guaymaral Ground: 121.700
Guaymaral Tower: 118.800

SNRZ Area (Archives)
Oliveira, Brazil

Feed Status: UP
Listen in your browser - HTML5 player(in browser, HTML5)
Click here to listen with your own player(launches your MP3 player)

SNRZ Flight Activity (Flightaware)

Listeners: 0 out of 1672 total

Azul: 130.900
Brasilia ACC-BS (Air Control Center): 133.450
Brasilia ACC-BS (Air Control Center): 135.550
Brasilia ACC-BS (Air Control Center): 126.150
Brasilia ACC-BS (Air Control Center): 126.800
Brasilia ACC-BS (Air Control Center): 125.050
Brasilia ACC-BS (Air Control Center): 126.500
Brasilia ACC-BS (Air Control Center): 122.650
Brasilia ACC-BS (Air Control Center): 126.550
Brasilia ACC-BS (Air Control Center): 123.350
Brasilia ACC-BS (Air Control Center): 124.750
Brasilia ACC-BS (Air Control Center): 134.750
Brasilia ACC-BS (Air Control Center): 133.600
Brasilia ACC-BS (Air Control Center): 124.800
Brasilia ACC-BS (Air Control Center): 124.250
Brasilia ACC-BS (Air Control Center): 127.300
Brasilia ACC-BS (Air Control Center): 127.000
Brasilia ACC-BS (Air Control Center): 124.250
Brasilia ACC-BS (Air Control Center): 127.300
Brasilia ACC-BS (Air Control Center): 127.000
Brasilia ACC-BS (Air Control Center): 133.450
Brasilia ACC-BS (Air Control Center): 135.550
Brasilia ACC-BS (Air Control Center): 126.150
Brasilia ACC-BS (Air Control Center): 126.800
Brasilia ACC-BS (Air Control Center): 125.050
Brasilia ACC-BS (Air Control Center): 126.500
Brasilia ACC-BS (Air Control Center): 122.650
Brasilia ACC-BS (Air Control Center): 126.550
Brasilia ACC-BS (Air Control Center): 123.350
Brasilia ACC-BS (Air Control Center): 124.750
Brasilia ACC-BS (Air Control Center): 134.750
Brasilia ACC-BS (Air Control Center): 133.600
Brasilia ACC-BS (Air Control Center): 124.800
Curitiba ACC-CW: 126.500
Curitiba ACC-CW: 134.750
Curitiba ACC-CW: 124.000
Curitiba ACC-CW: 125.350
Emergency: 121.500
Emergency: 121.500
GOL Coordination: 131.225
TAM Coordination: 130.500
TAM Maintenance: 130.600
Trip Coordination: 131.375

SPJC Approach (Archives)
Lima, Peru

Feed Status: UP
Listen in your browser - HTML5 player(in browser, HTML5)
Click here to listen with your own player(launches your MP3 player)

SPJC 270200Z 18004KT 9999 OVC020 16/12 Q1015 NOSIG RMK PP000

SPJC Flight Activity (Flightaware)

Listeners: 1 out of 1672 total

Lima Approach: 119.700

SPJC Ground (Archives)
Lima, Peru

Feed Status: UP
Listen in your browser - HTML5 player(in browser, HTML5)
Click here to listen with your own player(launches your MP3 player)

SPJC 270200Z 18004KT 9999 OVC020 16/12 Q1015 NOSIG RMK PP000

SPJC Flight Activity (Flightaware)

Listeners: 0 out of 1672 total

Lima Ground: 121.900

SPJC Tower (Archives)
Lima, Peru

Feed Status: UP
Listen in your browser - HTML5 player(in browser, HTML5)
Click here to listen with your own player(launches your MP3 player)

SPJC 270200Z 18004KT 9999 OVC020 16/12 Q1015 NOSIG RMK PP000

SPJC Flight Activity (Flightaware)

Listeners: 2 out of 1672 total

Lima Tower: 118.100

SPQU Radar (Archives)
Arequipa, Peru

Feed Status: UP
Listen in your browser - HTML5 player(in browser, HTML5)
Click here to listen with your own player(launches your MP3 player)

SPQU 270200Z VRB01KT CAVOK 12/M11 Q1027 NOSIG RMK PP000

SPQU Flight Activity (Flightaware)

Listeners: 1 out of 1672 total

Radar Sur-dos: 128.800

SPST Tower
Tarapoto, Peru

Feed Status: DOWN
Offline since: 2022-09-27 02:42:23 UTC

SPST 270200Z 30003KT 9999 FEW025 26/21 Q1010 RMK BIRD HAZARD RWY 17/35 PP000

Tarapoto Tower: 118.400

SSBL Air to Air (Archives)
Blumenau, Brazil

Feed Status: UP
Listen in your browser - HTML5 player(in browser, HTML5)
Click here to listen with your own player(launches your MP3 player)

SSBL Flight Activity (Flightaware)

Listeners: 0 out of 1672 total

Air to Air: 123.450

SUAA Tower (Archives)
Montevideo, Uruguay

Feed Status: UP
Listen in your browser - HTML5 player(in browser, HTML5)
Click here to listen with your own player(launches your MP3 player)


SUAA Flight Activity (Flightaware)

Listeners: 0 out of 1672 total

Adami Tower: 118.400
Adami Tower (backup): 122.100
Emergency/Guard: 121.500

SUCM AFIS/SUCA/SADF Twr (Archives)
Carmelo, Uruguay

Feed Status: UP
Listen in your browser - HTML5 player(in browser, HTML5)
Click here to listen with your own player(launches your MP3 player)


SUCM Flight Activity (Flightaware)

Listeners: 0 out of 1672 total

Carmelo AFIS: 122.100
Colonia Tower (SUCA): 120.800
San Fernando Tower (SADF): 120.700

SUDU Twr/App/FIR (Archives)
Durazno, Uruguay

Feed Status: UP
Listen in your browser - HTML5 player(in browser, HTML5)
Click here to listen with your own player(launches your MP3 player)


SUDU Flight Activity (Flightaware)

Listeners: 0 out of 1672 total

Durazno Twr/App: 120.400
Durazno Twr/App: 126.200
Montevideo Control - Centro (Central): 126.300

SUGA Twr/Info (Archives)
Pando, Uruguay

Feed Status: UP
Listen in your browser - HTML5 player(in browser, HTML5)
Click here to listen with your own player(launches your MP3 player)

SUGA Flight Activity (Flightaware)

Listeners: 0 out of 1672 total

SUGA Info: 126.200
SUGA Tower: 118.500

SULS Tower (Archives)
Punta del Este, Uruguay

Feed Status: UP
Listen in your browser - HTML5 player(in browser, HTML5)
Click here to listen with your own player(launches your MP3 player)

SULS 270200Z 33004KT 9999 2000W BR FEW010 13/12 Q1014

SULS Flight Activity (Flightaware)

Listeners: 0 out of 1672 total

Air to Air: 123.450
SULS A/G: 122.100
SULS Tower: 118.300

SUMO Tower (Archives)
Melo, Uruguay

Feed Status: UP
Listen in your browser - HTML5 player(in browser, HTML5)
Click here to listen with your own player(launches your MP3 player)


SUMO Flight Activity (Flightaware)

Listeners: 0 out of 1672 total

Melo Ramp: 122.100
Melo Tower: 118.600

Montevideo Control (Antena Este) (Archives)
Montevideo, Uruguay

Feed Status: UP
Listen in your browser - HTML5 player(in browser, HTML5)
Click here to listen with your own player(launches your MP3 player)

SUMU 270218Z 32003KT 0700 R19/1400U R24/1100N FG BKN005 11/11 Q1015 TEMPO FG

SUMU Flight Activity (Flightaware)

Listeners: 0 out of 1672 total

Montevideo Control: 128.500
Montevideo Control: 126.300

SUMU App/Dep (Archives)
Montevideo, Uruguay

Feed Status: UP
Listen in your browser - HTML5 player(in browser, HTML5)
Click here to listen with your own player(launches your MP3 player)

SUMU 270218Z 32003KT 0700 R19/1400U R24/1100N FG BKN005 11/11 Q1015 TEMPO FG

SUMU Flight Activity (Flightaware)

Listeners: 0 out of 1672 total

SUMU Approach: 119.200
SUMU Approach: 120.200
SUMU Control: 128.500

SUMU Twr/App (Archives)
Montevideo, Uruguay

Feed Status: UP
Listen in your browser - HTML5 player(in browser, HTML5)
Click here to listen with your own player(launches your MP3 player)

SUMU 270218Z 32003KT 0700 R19/1400U R24/1100N FG BKN005 11/11 Q1015 TEMPO FG

SUMU Flight Activity (Flightaware)

Listeners: 0 out of 1672 total

SUMU Approach: 119.200
SUMU Tower: 118.100

SUMU Twr/Info (Archives)
Montevideo, Uruguay

Feed Status: UP
Listen in your browser - HTML5 player(in browser, HTML5)
Click here to listen with your own player(launches your MP3 player)

SUMU 270218Z 32003KT 0700 R19/1400U R24/1100N FG BKN005 11/11 Q1015 TEMPO FG

SUMU Flight Activity (Flightaware)

Listeners: 0 out of 1672 total

SUMU Info: 121.800
SUMU Tower: 118.100

SUPE CTAF (Archives)
Punta del Este, Uruguay

Feed Status: UP
Listen in your browser - HTML5 player(in browser, HTML5)
Click here to listen with your own player(launches your MP3 player)

SULS 270200Z 33004KT 9999 2000W BR FEW010 13/12 Q1014

SULS Flight Activity (Flightaware)

Listeners: 0 out of 1672 total

SUPE CTAF: 118.700

SUPU AFIS (Archives)
Paysandu, Uruguay

Feed Status: UP
Listen in your browser - HTML5 player(in browser, HTML5)
Click here to listen with your own player(launches your MP3 player)


SUPU Flight Activity (Flightaware)

Listeners: 0 out of 1672 total

Paysandu AFIS: 118.200
Paysandu AFIS: 118.700

SURV Tower/Ramp (Archives)
Rivera, Uruguay

Feed Status: UP
Listen in your browser - HTML5 player(in browser, HTML5)
Click here to listen with your own player(launches your MP3 player)


SURV Flight Activity (Flightaware)

Listeners: 0 out of 1672 total

Rivera Flying Club Ops: 118.100
Rivera Ramp/Tower: 118.000
Rivera Ramp/Tower: 122.100

SUSO Tower/Ramp (Archives)
Salto, Uruguay

Feed Status: UP
Listen in your browser - HTML5 player(in browser, HTML5)
Click here to listen with your own player(launches your MP3 player)


SUSO Flight Activity (Flightaware)

Listeners: 0 out of 1672 total


SVPR Twr/App/FIR (Archives)
Ciudad Guayana, Venezuela

Feed Status: UP
Listen in your browser - HTML5 player(in browser, HTML5)
Click here to listen with your own player(launches your MP3 player)

SVPR Flight Activity (Flightaware)

Listeners: 0 out of 1672 total

Emergency/Guard: 121.500
FIR 6: 126.000
Guayana Approach (Primary): 119.500
Guayana Approach (Secondary): 120.300
Guayana Tower (Primary): 118.000
Guayana Tower (Secondary): 123.500
SMC: 121.900

TBPB Gnd/Twr/Radar/Center (Archives)
Bridgetown, Barbados

Feed Status: UP
Listen in your browser - HTML5 player(in browser, HTML5)
Click here to listen with your own player(launches your MP3 player)

TBPB 270200Z 12013KT 9999 -SHRA SCT014 BKN036 27/25 Q1013 NOSIG

TBPB Flight Activity (Flightaware)

Listeners: 0 out of 1672 total

Adams Approach/Departure: 129.350
Adams Approach/Departure: 128.850
Adams Ground: 121.900
Adams Tower: 118.700
Piarco Center: 123.700

TNCA Twr/App/Apron (Archives)
Oranjestad, Aruba

Feed Status: UP
Listen in your browser - HTML5 player(in browser, HTML5)
Click here to listen with your own player(launches your MP3 player)

TNCA 270200Z 09013KT 9999 FEW018 29/25 Q1011 NOSIG

TNCA Flight Activity (Flightaware)

Listeners: 0 out of 1672 total

Beatrix Ground (Apron): 121.600
Beatrix Tower: 118.000
Beatrix Twr/App: 120.900
Emergency/Guard: 121.500
Search/Rescue: 123.100

TNCB ATIS (Archives)
Kralendijk, Bonaire

Feed Status: UP
Listen in your browser - HTML5 player(in browser, HTML5)
Click here to listen with your own player(launches your MP3 player)

TNCB 270155Z AUTO 10010KT 9999 NCD 29/25 Q1011

TNCB Flight Activity (Flightaware)

Listeners: 0 out of 1672 total

Bonaire ATIS: 132.300

TNCB Tower (Archives)
Kralendijk, Bonaire

Feed Status: UP
Listen in your browser - HTML5 player(in browser, HTML5)
Click here to listen with your own player(launches your MP3 player)

TNCB 270155Z AUTO 10010KT 9999 NCD 29/25 Q1011

TNCB Flight Activity (Flightaware)

Listeners: 0 out of 1672 total

Bonaire Tower: 118.700

TNCC ATIS (Archives)
Willemstad, Curacao

Feed Status: UP
Listen in your browser - HTML5 player(in browser, HTML5)
Click here to listen with your own player(launches your MP3 player)

TNCC 270200Z 10011KT 9999 FEW019 29/24 Q1011 NOSIG

TNCC Flight Activity (Flightaware)

Listeners: 0 out of 1672 total

Hato ATIS: 132.600

TNCC Control (Archives)
Willemstad, Curacao

Feed Status: UP
Listen in your browser - HTML5 player(in browser, HTML5)
Click here to listen with your own player(launches your MP3 player)

TNCC 270200Z 10011KT 9999 FEW019 29/24 Q1011 NOSIG

TNCC Flight Activity (Flightaware)

Listeners: 0 out of 1672 total

Curacao Control: 124.100
Curacao Control: 127.100

TNCC Radar (Archives)
Willemstad, Curacao

Feed Status: UP
Listen in your browser - HTML5 player(in browser, HTML5)
Click here to listen with your own player(launches your MP3 player)

TNCC 270200Z 10011KT 9999 FEW019 29/24 Q1011 NOSIG

TNCC Flight Activity (Flightaware)

Listeners: 0 out of 1672 total

Hato Radar (1700-2300Z): 119.800

TNCC Tower (Archives)
Willemstad, Curacao

Feed Status: UP
Listen in your browser - HTML5 player(in browser, HTML5)
Click here to listen with your own player(launches your MP3 player)

TNCC 270200Z 10011KT 9999 FEW019 29/24 Q1011 NOSIG

TNCC Flight Activity (Flightaware)

Listeners: 0 out of 1672 total

Hato Tower: 118.300

TNCC Twr/Radar/Control (Archives)
Willemstad, Curacao

Feed Status: UP
Listen in your browser - HTML5 player(in browser, HTML5)
Click here to listen with your own player(launches your MP3 player)

TNCC 270200Z 10011KT 9999 FEW019 29/24 Q1011 NOSIG

TNCC Flight Activity (Flightaware)

Listeners: 0 out of 1672 total

Curacao Control: 127.100
Hato Radar: 119.600
Hato Tower: 118.300

TNCE Info (Archives)
Oranjestad, Sint Eustatius

Feed Status: UP
Listen in your browser - HTML5 player(in browser, HTML5)
Click here to listen with your own player(launches your MP3 player)

TNCE 270155Z AUTO 08015KT 050V110 //// // ///////// 28/24 Q1014 RE//

TNCE Flight Activity (Flightaware)

Listeners: 0 out of 1672 total

Statia Info: 118.100

TNCM App/Dep (Archives)
Philipsburg, Saint Martin

Feed Status: UP
Listen in your browser - HTML5 player(in browser, HTML5)
Click here to listen with your own player(launches your MP3 player)

TNCM 270200Z 07012KT 9999 SCT018 29/24 Q1016

TNCM Flight Activity (Flightaware)

Listeners: 0 out of 1672 total

Juliana Approach (only when busy): 128.950

TNCM Clearance Delivery (Archives)
Philipsburg, Saint Martin

Feed Status: UP
Listen in your browser - HTML5 player(in browser, HTML5)
Click here to listen with your own player(launches your MP3 player)

TNCM 270200Z 07012KT 9999 SCT018 29/24 Q1016

TNCM Flight Activity (Flightaware)

Listeners: 0 out of 1672 total

Juliana Clearance Delivery: 121.650

TNCM Tower (Archives)
Philipsburg, Saint Martin

Feed Status: UP
Listen in your browser - HTML5 player(in browser, HTML5)
Click here to listen with your own player(launches your MP3 player)

TNCM 270200Z 07012KT 9999 SCT018 29/24 Q1016

TNCM Flight Activity (Flightaware)

Listeners: 0 out of 1672 total

Juliana Tower (TNCM): 118.700

TNCS Info (Archives)
Hell's Gate, Saba

Feed Status: UP
Listen in your browser - HTML5 player(in browser, HTML5)
Click here to listen with your own player(launches your MP3 player)

TNCS Flight Activity (Flightaware)

Listeners: 0 out of 1672 total

Saba Tower: 118.250

TQPF Tower (Archives)
The Valley, Anguilla

Feed Status: UP
Listen in your browser - HTML5 player(in browser, HTML5)
Click here to listen with your own player(launches your MP3 player)

TNCM 270200Z 07012KT 9999 SCT018 29/24 Q1016

TNCM Flight Activity (Flightaware)

Listeners: 0 out of 1672 total

Anguilla Tower: 118.500

TTCP Gnd/Twr/App (Archives)
Scarborough, Trinidad and Tobago

Feed Status: UP
Listen in your browser - HTML5 player(in browser, HTML5)
Click here to listen with your own player(launches your MP3 player)

TTCP 270200Z 09003KT 9999 FEW016 26/23 Q1012 NOSIG

TTCP Flight Activity (Flightaware)

Listeners: 0 out of 1672 total

Piarco Approach: 119.000
Robinson Ground: 121.700
Robinson Tower: 118.400

TTPP Apron/Gnd/Twr (Archives)
Port of Spain, Trinidad and Tobago

Feed Status: UP
Listen in your browser - HTML5 player(in browser, HTML5)
Click here to listen with your own player(launches your MP3 player)

TTPP 270200Z 12005KT 9999 FEW016 25/24 Q1012 NOSIG

TTPP Flight Activity (Flightaware)

Listeners: 0 out of 1672 total

Piarco Apron: 121.750
Piarco Ground: 121.900
Piarco Tower: 118.100

TTPP Piarco App/Center
Port of Spain, Trinidad and Tobago

Feed Status: DOWN
Offline since: 2022-09-25 23:30:23 UTC

TTPP 270200Z 12005KT 9999 FEW016 25/24 Q1012 NOSIG

Piarco Approach: 119.550
Piarco Approach: 119.000
Piarco Approach (backup): 124.000
Piarco Center: 123.700
Piarco Center (Oceanic): 126.500
Piarco Center (South Sector): 125.400
Piarco Center Oceanic (Backup): 133.100

TXKF ATIS (Archives)
Hamilton, Bermuda

Feed Status: UP
Listen in your browser - HTML5 player(in browser, HTML5)
Click here to listen with your own player(launches your MP3 player)

TXKF 270214Z 17010KT 9999 BKN009 BKN018 BKN250 25/24 Q1019

TXKF Flight Activity (Flightaware)

Listeners: 0 out of 1672 total

Bermuda ATIS: 119.600

TXKF Del/Gnd (Archives)
Hamilton, Bermuda

Feed Status: UP
Listen in your browser - HTML5 player(in browser, HTML5)
Click here to listen with your own player(launches your MP3 player)

TXKF 270214Z 17010KT 9999 BKN009 BKN018 BKN250 25/24 Q1019

TXKF Flight Activity (Flightaware)

Listeners: 0 out of 1672 total

Bermuda Ground/Clearance: 124.500

TXKF Del/Gnd/Twr/CTAF (Archives)
Hamilton, Bermuda

Feed Status: UP
Listen in your browser - HTML5 player(in browser, HTML5)
Click here to listen with your own player(launches your MP3 player)

TXKF 270214Z 17010KT 9999 BKN009 BKN018 BKN250 25/24 Q1019

TXKF Flight Activity (Flightaware)

Listeners: 0 out of 1672 total

Bermuda CTAF: 122.800
Bermuda Ground/Clearance: 124.500
Bermuda Tower: 118.100

TXKF Tower (Archives)
Hamilton, Bermuda

Feed Status: UP
Listen in your browser - HTML5 player(in browser, HTML5)
Click here to listen with your own player(launches your MP3 player)

TXKF 270214Z 17010KT 9999 BKN009 BKN018 BKN250 25/24 Q1019

TXKF Flight Activity (Flightaware)

Listeners: 0 out of 1672 total

Bermuda Tower: 118.100

ZNY Sector 81 (Bermuda)/App (Archives)
Hamilton, Bermuda

Feed Status: UP
Listen in your browser - HTML5 player(in browser, HTML5)
Click here to listen with your own player(launches your MP3 player)

TXKF 270214Z 17010KT 9999 BKN009 BKN018 BKN250 25/24 Q1019

TXKF Flight Activity (Flightaware)

Listeners: 0 out of 1672 total

New York Approach: 119.100
New York Center (BDA81 Bermuda Sector): 128.500

UNNT Gnd/Twr/App/Radar/Misc (Archives)
Novosibirsk, Russia

Feed Status: UP
Listen in your browser - HTML5 player(in browser, HTML5)
Click here to listen with your own player(launches your MP3 player)

UNNT 270200Z 03004MPS 9999 OVC044 02/M00 Q1007 R25/290070 R34/////// NOSIG RMK QFE745/0994

UNNT Flight Activity (Flightaware)

Listeners: 8 out of 1672 total

ACC_Novosibirsk-Control [5th military channel]: 128.500
ACC_Novosibirsk-Control [Southeast]: 126.100
ACC_Novosibirsk-Control [West]: 127.000
GPA_Kristallik [Severniy airfield]: 123.425
GPA_Sernisiy [Chkalovskiy airfield]: 124.750
GPA_Tomsk Information 1: 134.500
MIL_3 [3rd military channel]: 130.750
MIL_Larek [Shilovo facility]: 123.750
MIL_Maneken [Chkalovskiy airfield]: 123.550
MIL_Novosibirsk-1 [1st military channel]: 124.000
MIL_Noyabr' 31: 124.900
MIL_Trimaran: 124.500
SP_Air-to-Air: 123.450
SP_Air-to-Air 2: 123.400
SP_Common backup frequency: 129.000
SP_Emergency: 121.500
SP_Emergency 2: 123.100
SP_Flyoff: 124.375
SURF_Boarding: 163.425
SURF_Duty chart: 163.800
SURF_O&D Service: 163.325
SURF_Search & Rescue: 164.000
SURF_Security: 163.750
SURF_Tower surf: 163.650
SURF_Vehicles: 163.850
UNNT_Backup frequency: 127.100
UNNT_Novosibirsk-Approach: 127.500
UNNT_Novosibirsk-Ground: 121.700
UNNT_Novosibirsk-Radar: 122.000
UNNT_Novosibirsk-Tower: 118.500
UNNT_Novosibirsk-Transit: 131.600
UNNT_S7 FOCC: 131.925

UNOO Gnd/Tower/App (Archives)
Omsk, Russia

Feed Status: UP
Listen in your browser - HTML5 player(in browser, HTML5)
Click here to listen with your own player(launches your MP3 player)

UNOO 270200Z 07005MPS 6000 -SHSN BKN003 BKN030CB M00/M00 Q1008 R07/290050 NOSIG RMK QBB090 OBST OBSC QFE747

UNOO Flight Activity (Flightaware)

Listeners: 0 out of 1672 total

Aerodrom Kalachevo: 123.300
Aerodrom Marianovka: 123.000
Emergency/Guard: 121.500
Novosibirsk Control (Sector 7): 132.500
Novosibirsk Control (Sector 8): 132.900
Omsk Approach (FL060-FL265): 131.200
Omsk Apron: 118.800
Omsk Start/Radar: 119.000
Omsk Taxiing: 121.700
Omsk Transit: 131.700
UNOS/OMSK-Severny: 124.000

UNTT Gnd/Info/Radar/Control (Archives)
Tomsk, Russia

Feed Status: UP
Listen in your browser - HTML5 player(in browser, HTML5)
Click here to listen with your own player(launches your MP3 player)

UNTT Flight Activity (Flightaware)

Listeners: 0 out of 1672 total

Common Backup Frequency: 129.000
Emergency/Guard: 121.500
Kemerovo Approach: 125.500
Novosibirsk Control (Sector 3): 129.300
Novosibirsk Control (Sector 5): 132.300
Novosibirsk Control (Sector 9): 134.400
Tomsk Ground: 118.800
Tomsk Information (Sector 3): 129.800
Tomsk Tower: 127.300
Tomsk Transit: 131.875
Troynik (Golovino): 122.400

URSS Gnd/Twr/App (Archives)
Sochi, Russia

Feed Status: UP
Listen in your browser - HTML5 player(in browser, HTML5)
Click here to listen with your own player(launches your MP3 player)

URSS 270200Z 04008MPS 9999 NSC 14/06 Q1013 R02/010070 R06/010070 NOSIG RMK R06/08007MPS QFE758

URSS Flight Activity (Flightaware)

Listeners: 2 out of 1672 total

Sochi Approach: 118.300
Sochi Approach: 119.700
Sochi District (Small Aircraft): 118.500
Sochi Start: 121.200
Sochi Taxi: 119.000
Sochi Tower: 124.600

USDD Gnd/Twr/App/Control (Archives)
Salekhard, Russia

Feed Status: UP
Listen in your browser - HTML5 player(in browser, HTML5)
Click here to listen with your own player(launches your MP3 player)


USDD Flight Activity (Flightaware)

Listeners: 0 out of 1672 total

Salekhard Control: 132.300
Salekhard Ground: 118.800
Salekhard Info: 125.200
Salekhard Krug: 120.800
Salekhard Tower: 118.600
Salekhard Transit: 131.700

USTR Gnd/Twr/App (Archives)
Tyumen, Russia

Feed Status: UP
Listen in your browser - HTML5 player(in browser, HTML5)
Click here to listen with your own player(launches your MP3 player)

USTR 270200Z 02004MPS 9999 BKN036 00/M06 Q1016 R03/CLRD65 R12/CLRD65 NOSIG

USTR Flight Activity (Flightaware)

Listeners: 0 out of 1672 total

Tyumen Approach: 126.100
Tyumen Control: 132.600
Tyumen Control: 133.600
Tyumen Info (Regional): 133.400
Tyumen Start: 118.200
Tyumen Transit: 131.800

UUEE Twr/App/Radar (Archives)
Moscow, Russia

Feed Status: UP
Listen in your browser - HTML5 player(in browser, HTML5)
Click here to listen with your own player(launches your MP3 player)

UUEE 270200Z 27001MPS 0450 0150SW R06R/0450D R06C/0500D FG VV001 03/03 Q1012 R06R/CLRD62 R06C/CLRD62 TEMPO 0200 FG RMK QBB050

UUEE Flight Activity (Flightaware)

Listeners: 3 out of 1672 total

Sheremetyevo Radar (low altitude): 119.300
Sheremetyevo Radar/Arrival: 122.700
Sheremetyevo Radar/Departure: 126.600
Sheremetyevo Tower: 131.500

VHHH App/Dep/Dir/Zone (Archives)
Hong Kong, Hong Kong

Feed Status: UP
Listen in your browser - HTML5 player(in browser, HTML5)
Click here to listen with your own player(launches your MP3 player)

VHHH 270230Z 09014G24KT 9999 FEW022 SCT035 32/22 Q1009 NOSIG

VHHH Flight Activity (Flightaware)

Listeners: 4 out of 1672 total

Emergency/Guard: 121.500
Hong Kong Approach: 119.100
Hong Kong Approach: 119.350
Hong Kong Departure: 123.800
Hong Kong Departure: 122.000
Hong Kong Departure: 124.050
Hong Kong Director: 119.500
Hong Kong Director: 119.350
Hong Kong Zone: 120.600

VTBS Approach (East) (Archives)
Bangkok, Thailand

Feed Status: UP
Listen in your browser - HTML5 player(in browser, HTML5)
Click here to listen with your own player(launches your MP3 player)

VTBS 270200Z 35003KT 310V020 5000 BR SCT008 BKN080 27/26 Q1009 NOSIG

VTBS Flight Activity (Flightaware)

Listeners: 2 out of 1672 total

Bangkok Approach (East): 122.350

VTBS Approach 119.1 (Archives)
Bangkok, Thailand

Feed Status: UP
Listen in your browser - HTML5 player(in browser, HTML5)
Click here to listen with your own player(launches your MP3 player)

VTBS 270200Z 35003KT 310V020 5000 BR SCT008 BKN080 27/26 Q1009 NOSIG

VTBS Flight Activity (Flightaware)

Listeners: 1 out of 1672 total

Bangkok Approach: 119.100

VTBS Approach 119.4 (Archives)
Bangkok, Thailand

Feed Status: UP
Listen in your browser - HTML5 player(in browser, HTML5)
Click here to listen with your own player(launches your MP3 player)

VTBS 270200Z 35003KT 310V020 5000 BR SCT008 BKN080 27/26 Q1009 NOSIG

VTBS Flight Activity (Flightaware)

Listeners: 1 out of 1672 total

Bangkok Approach: 119.400

VTBS Approach 120.3 (Archives)
Bangkok, Thailand

Feed Status: UP
Listen in your browser - HTML5 player(in browser, HTML5)
Click here to listen with your own player(launches your MP3 player)

VTBS 270200Z 35003KT 310V020 5000 BR SCT008 BKN080 27/26 Q1009 NOSIG

VTBS Flight Activity (Flightaware)

Listeners: 1 out of 1672 total

Bangkok Approach: 120.300

VTBS Approach/Arrival (Archives)
Bangkok, Thailand

Feed Status: UP
Listen in your browser - HTML5 player(in browser, HTML5)
Click here to listen with your own player(launches your MP3 player)

VTBS 270200Z 35003KT 310V020 5000 BR SCT008 BKN080 27/26 Q1009 NOSIG

VTBS Flight Activity (Flightaware)

Listeners: 5 out of 1672 total

Bangkok Approach: 124.350
Bangkok Approach: 125.200
Bangkok Approach: 126.300
Bangkok Approach (North): 128.950
Bangkok Arrival (VTBD): 133.000

VTBS Arrival 121.1 (Archives)
Bangkok, Thailand

Feed Status: UP
Listen in your browser - HTML5 player(in browser, HTML5)
Click here to listen with your own player(launches your MP3 player)

VTBS 270200Z 35003KT 310V020 5000 BR SCT008 BKN080 27/26 Q1009 NOSIG

VTBS Flight Activity (Flightaware)

Listeners: 1 out of 1672 total

Bangkok Arrival: 121.100

VTBS ATIS (Archives)
Bangkok, Thailand

Feed Status: UP
Listen in your browser - HTML5 player(in browser, HTML5)
Click here to listen with your own player(launches your MP3 player)

VTBS 270200Z 35003KT 310V020 5000 BR SCT008 BKN080 27/26 Q1009 NOSIG

VTBS Flight Activity (Flightaware)

Listeners: 1 out of 1672 total

Bangkok D-ATIS: 127.650

VTBS Departure (Archives)
Bangkok, Thailand

Feed Status: UP
Listen in your browser - HTML5 player(in browser, HTML5)
Click here to listen with your own player(launches your MP3 player)

VTBS 270200Z 35003KT 310V020 5000 BR SCT008 BKN080 27/26 Q1009 NOSIG

VTBS Flight Activity (Flightaware)

Listeners: 1 out of 1672 total

Bangkok Departure: 119.250

VTBS Ground (All) (Archives)
Bangkok, Thailand

Feed Status: UP
Listen in your browser - HTML5 player(in browser, HTML5)
Click here to listen with your own player(launches your MP3 player)

VTBS 270200Z 35003KT 310V020 5000 BR SCT008 BKN080 27/26 Q1009 NOSIG

VTBS Flight Activity (Flightaware)

Listeners: 1 out of 1672 total

Bangkok Ground (East): 121.650
Bangkok Ground (Main): 121.750
Bangkok Ground (West): 121.950

VTBS Ground (East) (Archives)
Bangkok, Thailand

Feed Status: UP
Listen in your browser - HTML5 player(in browser, HTML5)
Click here to listen with your own player(launches your MP3 player)

VTBS 270200Z 35003KT 310V020 5000 BR SCT008 BKN080 27/26 Q1009 NOSIG

VTBS Flight Activity (Flightaware)

Listeners: 1 out of 1672 total

Bangkok Ground (East): 121.650

VTBS Ground (Main) (Archives)
Bangkok, Thailand

Feed Status: UP
Listen in your browser - HTML5 player(in browser, HTML5)
Click here to listen with your own player(launches your MP3 player)

VTBS 270200Z 35003KT 310V020 5000 BR SCT008 BKN080 27/26 Q1009 NOSIG

VTBS Flight Activity (Flightaware)

Listeners: 1 out of 1672 total

Bangkok Ground (Main): 121.750

VTBS Ground (West) (Archives)
Bangkok, Thailand

Feed Status: UP
Listen in your browser - HTML5 player(in browser, HTML5)
Click here to listen with your own player(launches your MP3 player)

VTBS 270200Z 35003KT 310V020 5000 BR SCT008 BKN080 27/26 Q1009 NOSIG

VTBS Flight Activity (Flightaware)

Listeners: 1 out of 1672 total

Bangkok Ground (West): 121.950

VTBS Tower (Archives)
Bangkok, Thailand

Feed Status: UP
Listen in your browser - HTML5 player(in browser, HTML5)
Click here to listen with your own player(launches your MP3 player)

VTBS 270200Z 35003KT 310V020 5000 BR SCT008 BKN080 27/26 Q1009 NOSIG

VTBS Flight Activity (Flightaware)

Listeners: 1 out of 1672 total

Bangkok Tower (Rwy 01L/19R): 119.000
Bangkok Tower (Rwy 01R/19L): 118.200

VTBS Tower (Rwy 01L/19R) (Archives)
Bangkok, Thailand

Feed Status: UP
Listen in your browser - HTML5 player(in browser, HTML5)
Click here to listen with your own player(launches your MP3 player)

VTBS 270200Z 35003KT 310V020 5000 BR SCT008 BKN080 27/26 Q1009 NOSIG

VTBS Flight Activity (Flightaware)

Listeners: 1 out of 1672 total

Bangkok Tower (Rwy 01L/19R): 119.000

VTBS Tower (Rwy 01R/19L) (Archives)
Bangkok, Thailand

Feed Status: UP
Listen in your browser - HTML5 player(in browser, HTML5)
Click here to listen with your own player(launches your MP3 player)

VTBS 270200Z 35003KT 310V020 5000 BR SCT008 BKN080 27/26 Q1009 NOSIG

VTBS Flight Activity (Flightaware)

Listeners: 1 out of 1672 total

Bangkok Tower (Rwy 01R/19L): 118.200

VTSS Approach (Archives)
Songkhla, Thailand

Feed Status: UP
Listen in your browser - HTML5 player(in browser, HTML5)
Click here to listen with your own player(launches your MP3 player)

VTSS 270200Z 00000KT 9999 FEW020 SCT100 27/25 Q1010 NOSIG

VTSS Flight Activity (Flightaware)

Listeners: 1 out of 1672 total

Hat Yai Approach: 126.700

WAHH Approach
Yogyakarta, Indonesia

Feed Status: DOWN
Offline since: 2019-01-09 17:03:03 UTC

Adisutjipto Approach: 123.400

WBKK Gnd/Twr/Radar/Control (Archives)
Kota Kinabalu, Malaysia

Feed Status: UP
Listen in your browser - HTML5 player(in browser, HTML5)
Click here to listen with your own player(launches your MP3 player)

WBKK 270200Z VRB02KT 9000 -RA FEW013 SCT035 26/24 Q1010 NOSIG


Listeners: 6 out of 1672 total

Kinabalu Director: 119.100
Kinabalu Ground: 121.600
Kinabalu Radar: 126.100
Kinabalu Radar: 132.450
Kinabalu Radar: 128.300
Kinabalu Tower: 118.300

WBKS Approach
Sandakan, Malaysia

Feed Status: DOWN
Offline since: 2022-09-25 16:20:05 UTC

WBKS 270200Z VRB02KT 9999 FEW016 29/24 Q1009

Sandakan Approach/Departure: 123.200

WBKS Emergency/Guard
Sandakan, Malaysia

Feed Status: DOWN
Offline since: 2022-09-25 16:20:05 UTC

WBKS 270200Z VRB02KT 9999 FEW016 29/24 Q1009

Emergency/Guard: 121.500

WBKS Gnd/Twr/App/Guard
Sandakan, Malaysia

Feed Status: DOWN
Offline since: 2022-09-25 16:20:05 UTC

WBKS 270200Z VRB02KT 9999 FEW016 29/24 Q1009

Emergency/Guard: 121.500
Sandakan Approach/Departure: 123.200
Sandakan Ground: 121.900
Sandakan Tower: 122.050

WBKS Ground
Sandakan, Malaysia

Feed Status: DOWN
Offline since: 2022-09-25 16:20:05 UTC

WBKS 270200Z VRB02KT 9999 FEW016 29/24 Q1009

Sandakan Ground: 121.900

WBKS Tower
Sandakan, Malaysia

Feed Status: DOWN
Offline since: 2022-09-25 16:20:05 UTC

WBKS 270200Z VRB02KT 9999 FEW016 29/24 Q1009

Sandakan Tower: 122.050

WMKB Radar (Archives)
Penang, Malaysia

Feed Status: UP
Listen in your browser - HTML5 player(in browser, HTML5)
Click here to listen with your own player(launches your MP3 player)

WMKB 270200Z 19005KT 150V240 8000 -RA FEW020 26/24 Q1010 NOSIG


Listeners: 4 out of 1672 total

Butterworth Radar: 125.800

YADG CTAF (Archives)
Sellicks Hill, South Australia, Australia

Feed Status: UP
Listen in your browser - HTML5 player(in browser, HTML5)
Click here to listen with your own player(launches your MP3 player)

YADG Flight Activity (Flightaware)

Listeners: 0 out of 1672 total

Aldinga CTAF: 127.150

YBAF Gnd/Twr #2 (Archives)
Brisbane, Queensland, Australia

Feed Status: UP
Listen in your browser - HTML5 player(in browser, HTML5)
Click here to listen with your own player(launches your MP3 player)

YBAF Flight Activity (Flightaware)

Listeners: 5 out of 1672 total

Brisbane Ground: 119.900
Brisbane Tower (North): 123.600
Brisbane Tower/CTAF (South): 118.100

YBAS Tower/Center (Archives)
Alice Springs, Northern Territory, Australia

Feed Status: UP
Listen in your browser - HTML5 player(in browser, HTML5)
Click here to listen with your own player(launches your MP3 player)

YBAS 270200Z AUTO 10013KT 9999 // OVC093 15/09 Q1020 RF00.0/000.8

YBAS Flight Activity (Flightaware)

Listeners: 3 out of 1672 total

Alice Tower/CTAF: 118.300
Melbourne Center (above FL280): 128.850
Melbourne Center (below FL280): 119.800

Brisbane Center (128.6/YSSY) (Archives)
Brisbane, Queensland, Australia

Feed Status: UP
Listen in your browser - HTML5 player(in browser, HTML5)
Click here to listen with your own player(launches your MP3 player)

YSSY 270200Z 11003KT 9999 FEW040 BKN100 20/14 Q1012

YSSY Flight Activity (Flightaware)

Listeners: 3 out of 1672 total

Brisbane Center: 128.600

YBBN Center
Brisbane, Queensland, Australia

Feed Status: DOWN
Offline since: 2022-07-30 00:45:06 UTC

YBBN 270200Z 02010KT 9999 FEW038 BKN180 23/16 Q1014

Brisbane Center (East): 132.850
Brisbane Center (North): 123.000
Brisbane Center (South): 128.150
Brisbane Center (West): 134.300

YBBN Twr/App/Center (Archives)
Brisbane, Queensland, Australia

Feed Status: UP
Listen in your browser - HTML5 player(in browser, HTML5)
Click here to listen with your own player(launches your MP3 player)

YBBN 270200Z 02010KT 9999 FEW038 BKN180 23/16 Q1014

YBBN Flight Activity (Flightaware)

Listeners: 3 out of 1672 total

Brisbane Center (East): 134.300
Brisbane Center (West): 135.600
YBBN Approach North-West: 124.700
YBBN Approach South-East: 125.600
YBBN Tower 01L/19R (Northern Runway): 118.000
YBBN Tower 01R/19L (Southern Runway): 120.500

YBBN Twr/App/Dep (Archives)
Brisbane, Queensland, Australia

Feed Status: UP
Listen in your browser - HTML5 player(in browser, HTML5)
Click here to listen with your own player(launches your MP3 player)

YBBN 270200Z 02010KT 9999 FEW038 BKN180 23/16 Q1014

YBBN Flight Activity (Flightaware)

Listeners: 3 out of 1672 total

Brisbane Approach: 123.500
Brisbane Approach/Departure (North): 124.700
Brisbane Approach/Departure (South): 125.600
Brisbane Departure: 128.300
Brisbane Departure: 133.450
Brisbane Tower: 120.500

YBCG Approach (Archives)
Gold Coast City, Queensland, Australia

Feed Status: UP
Listen in your browser - HTML5 player(in browser, HTML5)
Click here to listen with your own player(launches your MP3 player)

YBCG 270200Z AUTO 35018KT 9999 // NCD 25/14 Q1013 RF00.0/000.0

YBCG Flight Activity (Flightaware)

Listeners: 1 out of 1672 total

Brisbane Approach: 123.500

YBCG Area CTAF (Archives)
Gold Coast City, Queensland, Australia

Feed Status: UP
Listen in your browser - HTML5 player(in browser, HTML5)
Click here to listen with your own player(launches your MP3 player)

YBCG 270200Z AUTO 35018KT 9999 // NCD 25/14 Q1013 RF00.0/000.0

YBCG Flight Activity (Flightaware)

Listeners: 2 out of 1672 total

YBCG Training/YTYH/YMUR : 127.550

YBCG Brisbane Centre (Archives)
Gold Coast City, Queensland, Australia

Feed Status: UP
Listen in your browser - HTML5 player(in browser, HTML5)
Click here to listen with your own player(launches your MP3 player)

YBCG 270200Z AUTO 35018KT 9999 // NCD 25/14 Q1013 RF00.0/000.0

YBCG Flight Activity (Flightaware)

Listeners: 3 out of 1672 total

Brisbane Centre/Radar: 119.500

YBCG Ground (Archives)
Gold Coast City, Queensland, Australia

Feed Status: UP
Listen in your browser - HTML5 player(in browser, HTML5)
Click here to listen with your own player(launches your MP3 player)

YBCG 270200Z AUTO 35018KT 9999 // NCD 25/14 Q1013 RF00.0/000.0

YBCG Flight Activity (Flightaware)

Listeners: 1 out of 1672 total

Gold Coast Ground: 121.800

YBCG Ground/Tower (Archives)
Gold Coast City, Queensland, Australia

Feed Status: UP
Listen in your browser - HTML5 player(in browser, HTML5)
Click here to listen with your own player(launches your MP3 player)

YBCG 270200Z AUTO 35018KT 9999 // NCD 25/14 Q1013 RF00.0/000.0

YBCG Flight Activity (Flightaware)

Listeners: 1 out of 1672 total

Gold Coast Ground: 121.800
Gold Coast Tower: 118.700

YBCG Tower (Archives)
Gold Coast City, Queensland, Australia

Feed Status: UP
Listen in your browser - HTML5 player(in browser, HTML5)
Click here to listen with your own player(launches your MP3 player)

YBCG 270200Z AUTO 35018KT 9999 // NCD 25/14 Q1013 RF00.0/000.0

YBCG Flight Activity (Flightaware)

Listeners: 1 out of 1672 total

Gold Coast Tower: 118.700

YBCS App/Dep #1 (Archives)
Cairns, Queensland, Australia

Feed Status: UP
Listen in your browser - HTML5 player(in browser, HTML5)
Click here to listen with your own player(launches your MP3 player)

YBCS 270200Z AUTO 09010KT 9999 // SCT043 SCT049 31/18 Q1012

YBCS Flight Activity (Flightaware)

Listeners: 1 out of 1672 total

Cairns Approach/Departure: 118.400

YBCS App/Dep #2 (Archives)
Cairns, Queensland, Australia

Feed Status: UP
Listen in your browser - HTML5 player(in browser, HTML5)
Click here to listen with your own player(launches your MP3 player)

YBCS 270200Z AUTO 09010KT 9999 // SCT043 SCT049 31/18 Q1012

YBCS Flight Activity (Flightaware)

Listeners: 1 out of 1672 total

Cairns Approach/Departure: 126.100

YBCS App/Dep (all) (Archives)
Cairns, Queensland, Australia

Feed Status: UP
Listen in your browser - HTML5 player(in browser, HTML5)
Click here to listen with your own player(launches your MP3 player)

YBCS 270200Z AUTO 09010KT 9999 // SCT043 SCT049 31/18 Q1012

YBCS Flight Activity (Flightaware)

Listeners: 3 out of 1672 total

Cairns Approach/Departure: 126.100
Cairns Approach/Departure: 118.400

YBCS Brisbane Centre (Archives)
Cairns, Queensland, Australia

Feed Status: UP
Listen in your browser - HTML5 player(in browser, HTML5)
Click here to listen with your own player(launches your MP3 player)

YBCS 270200Z AUTO 09010KT 9999 // SCT043 SCT049 31/18 Q1012

YBCS Flight Activity (Flightaware)

Listeners: 4 out of 1672 total

Brisbane Centre: 121.200

YBCS Emergency/Guard (Archives)
Cairns, Queensland, Australia

Feed Status: UP
Listen in your browser - HTML5 player(in browser, HTML5)
Click here to listen with your own player(launches your MP3 player)

YBCS 270200Z AUTO 09010KT 9999 // SCT043 SCT049 31/18 Q1012

YBCS Flight Activity (Flightaware)

Listeners: 1 out of 1672 total

Emergency/Guard: 121.500

YBCS Ground (Archives)
Cairns, Queensland, Australia

Feed Status: UP
Listen in your browser - HTML5 player(in browser, HTML5)
Click here to listen with your own player(launches your MP3 player)

YBCS 270200Z AUTO 09010KT 9999 // SCT043 SCT049 31/18 Q1012

YBCS Flight Activity (Flightaware)

Listeners: 1 out of 1672 total

Cairns Ground: 121.700

YBCS Ground/Tower (Archives)
Cairns, Queensland, Australia

Feed Status: UP
Listen in your browser - HTML5 player(in browser, HTML5)
Click here to listen with your own player(launches your MP3 player)

YBCS 270200Z AUTO 09010KT 9999 // SCT043 SCT049 31/18 Q1012

YBCS Flight Activity (Flightaware)

Listeners: 1 out of 1672 total

Cairns Ground: 121.700
Cairns Tower: 124.900

YBCS Tower (Archives)
Cairns, Queensland, Australia

Feed Status: UP
Listen in your browser - HTML5 player(in browser, HTML5)
Click here to listen with your own player(launches your MP3 player)

YBCS 270200Z AUTO 09010KT 9999 // SCT043 SCT049 31/18 Q1012

YBCS Flight Activity (Flightaware)

Listeners: 1 out of 1672 total

Cairns Tower: 124.900

YBCV CTAF/Brisbane Center (Archives)
Charleville, Queensland, Australia

Feed Status: UP
Listen in your browser - HTML5 player(in browser, HTML5)
Click here to listen with your own player(launches your MP3 player)


YBCV Flight Activity (Flightaware)

Listeners: 4 out of 1672 total

Brisbane Center: 124.800
Charleville CTAF/UNICOM: 126.700

YBDG Center (Archives)
Bendigo, Victoria, Australia

Feed Status: UP
Listen in your browser - HTML5 player(in browser, HTML5)
Click here to listen with your own player(launches your MP3 player)

YBDG Flight Activity (Flightaware)

Listeners: 0 out of 1672 total

Melbourne Center: 126.800

YBDG CTAF (Archives)
Bendigo, Victoria, Australia

Feed Status: UP
Listen in your browser - HTML5 player(in browser, HTML5)
Click here to listen with your own player(launches your MP3 player)

YBDG Flight Activity (Flightaware)

Listeners: 0 out of 1672 total

Bendigo CTAF: 119.300

YBOK Del/Gnd/Twr/App (Archives)
Oakey, Queensland, Australia

Feed Status: UP
Listen in your browser - HTML5 player(in browser, HTML5)
Click here to listen with your own player(launches your MP3 player)

YBOK Flight Activity (Flightaware)

Listeners: 4 out of 1672 total

Brisbane Center/FSS: 121.200
Oakey Approach: 125.400
Oakey Approach: 123.700
Oakey Approach (Final): 135.850
Oakey Clearance Delivery: 133.350
Oakey CTAF (+YTWB/YBWW): 127.650
Oakey Ground: 121.900
Oakey Tower: 120.100

YBSS CTAF (Archives)
Bacchus Marsh, Victoria, Australia

Feed Status: UP
Listen in your browser - HTML5 player(in browser, HTML5)
Click here to listen with your own player(launches your MP3 player)

YBSS Flight Activity (Flightaware)

Listeners: 0 out of 1672 total

Bacchus Marsh CTAF: 118.800

YBSS Glider 122.5 (Archives)
Bacchus Marsh, Victoria, Australia

Feed Status: UP
Listen in your browser - HTML5 player(in browser, HTML5)
Click here to listen with your own player(launches your MP3 player)

YBSS Flight Activity (Flightaware)

Listeners: 0 out of 1672 total

Bacchus Marsh Glider Chat: 122.500

YBSS Glider 122.7 (Archives)
Bacchus Marsh, Victoria, Australia

Feed Status: UP
Listen in your browser - HTML5 player(in browser, HTML5)
Click here to listen with your own player(launches your MP3 player)

YBSS Flight Activity (Flightaware)

Listeners: 0 out of 1672 total

Bacchus Marsh Glider Chat: 122.700

YBSS Glider 122.9 (Archives)
Bacchus Marsh, Victoria, Australia

Feed Status: UP
Listen in your browser - HTML5 player(in browser, HTML5)
Click here to listen with your own player(launches your MP3 player)

YBSS Flight Activity (Flightaware)

Listeners: 0 out of 1672 total

Bacchus Marsh Glider Chat: 122.900

YBTL Approach/Departure (Archives)
Townsville, Queensland, Australia

Feed Status: UP
Listen in your browser - HTML5 player(in browser, HTML5)
Click here to listen with your own player(launches your MP3 player)

YBTL 270130Z 07012KT 9999 FEW032 28/19 Q1014

YBTL Flight Activity (Flightaware)

Listeners: 2 out of 1672 total

Townsville Approach/Departure: 126.800

YBTL ATIS (Archives)
Townsville, Queensland, Australia

Feed Status: UP
Listen in your browser - HTML5 player(in browser, HTML5)
Click here to listen with your own player(launches your MP3 player)

YBTL 270130Z 07012KT 9999 FEW032 28/19 Q1014

YBTL Flight Activity (Flightaware)

Listeners: 2 out of 1672 total

Townsville ATIS: 133.500

YBTL Brisbane Center (Archives)
Townsville, Queensland, Australia

Feed Status: UP
Listen in your browser - HTML5 player(in browser, HTML5)
Click here to listen with your own player(launches your MP3 player)

YBTL 270130Z 07012KT 9999 FEW032 28/19 Q1014

YBTL Flight Activity (Flightaware)

Listeners: 3 out of 1672 total

Brisbane Center: 120.550

YBTL Clearance Delivery (Archives)
Townsville, Queensland, Australia

Feed Status: UP
Listen in your browser - HTML5 player(in browser, HTML5)
Click here to listen with your own player(launches your MP3 player)

YBTL 270130Z 07012KT 9999 FEW032 28/19 Q1014

YBTL Flight Activity (Flightaware)

Listeners: 2 out of 1672 total

Townsville Clearance Delivery: 128.100

YBTL Ground (Archives)
Townsville, Queensland, Australia

Feed Status: UP
Listen in your browser - HTML5 player(in browser, HTML5)
Click here to listen with your own player(launches your MP3 player)

YBTL 270130Z 07012KT 9999 FEW032 28/19 Q1014

YBTL Flight Activity (Flightaware)

Listeners: 2 out of 1672 total

Townsville Ground: 119.450

YBTL Tower (Archives)
Townsville, Queensland, Australia

Feed Status: UP
Listen in your browser - HTML5 player(in browser, HTML5)
Click here to listen with your own player(launches your MP3 player)

YBTL 270130Z 07012KT 9999 FEW032 28/19 Q1014

YBTL Flight Activity (Flightaware)

Listeners: 2 out of 1672 total

Townsville Tower: 118.300

YGAW CTAF (Archives)
Gawler, South Australia, Australia

Feed Status: UP
Listen in your browser - HTML5 player(in browser, HTML5)
Click here to listen with your own player(launches your MP3 player)


YGAW Flight Activity (Flightaware)

Listeners: 0 out of 1672 total

Gawler CTAF: 126.550

YGLA CTAF
Gladstone, Queensland, Australia

Feed Status: DOWN
Offline since: 2022-08-07 00:32:24 UTC

YGLA 270200Z AUTO 04010KT 9999 // BKN079 25/16 Q1014 RF00.0/000.0

Gladstone CTF/Multicom: 118.800

YGTH AWIS
Griffith, New South Wales, Australia

Feed Status: DOWN
Offline since: 2022-09-15 20:52:23 UTC


Griffith AWIS Weather: 132.950

YGTH CTAF
Griffith, New South Wales, Australia

Feed Status: DOWN
Offline since: 2022-09-15 20:52:23 UTC


Griffith CTAF: 126.550

YIVL CTAF/Center (Archives)
Inverell, New South Wales, Australia

Feed Status: UP
Listen in your browser - HTML5 player(in browser, HTML5)
Click here to listen with your own player(launches your MP3 player)

YIVL Flight Activity (Flightaware)

Listeners: 1 out of 1672 total

Brisbane Center: 132.350
Brisbane Center: 127.100
Brisbane Center: 130.900
Brisbane Center (high alt SE Inverell): 130.100
Brisbane Center (high alt): 133.000
Brisbane Center (NE Inverell): 134.200
Brisbane Center (North and East Inverell): 127.200
Brisbane Center (North Inverell high alt): 135.600
Brisbane Center (North Inverell): 121.200
Brisbane Center (SE Inverell): 125.750
Inverell CTAF: 126.700
Tamworth Tower: 119.400

YMAV Del/App (Archives)
Avalon, Victoria, Australia

Feed Status: UP
Listen in your browser - HTML5 player(in browser, HTML5)
Click here to listen with your own player(launches your MP3 player)

YMAV 270224Z AUTO 17012KT 9999 // SCT014 BKN037 OVC049 16/12 Q1012

YMAV Flight Activity (Flightaware)

Listeners: 5 out of 1672 total

Avalon Clearance Delivery: 120.100
Melbourne Approach/Departure: 133.550

YMHB Twr/Centre/Misc (Archives)
Cambridge, Tasmania, Australia

Feed Status: UP
Listen in your browser - HTML5 player(in browser, HTML5)
Click here to listen with your own player(launches your MP3 player)

YMHB 270200Z 01005KT 9999 VCSH FEW012 BKN068 15/10 Q1017 RF00.0/000.0

YMHB Flight Activity (Flightaware)

Listeners: 0 out of 1672 total

Air to Air: 123.450
Area CTAF: 126.700
Helicopter Resources Company: 126.400
Hobart Tower: 118.100
Jetstar Company: 130.925
Launceston Tower: 118.700
Melbourne Centre: 123.800
Melbourne Centre: 125.550
Qantas Company: 129.500
Rotor Lift Company: 131.600
Virgin Company: 130.350

YMIA CTAF (Archives)
Mildura, Victoria, Australia

Feed Status: UP
Listen in your browser - HTML5 player(in browser, HTML5)
Click here to listen with your own player(launches your MP3 player)


YMIA Flight Activity (Flightaware)

Listeners: 0 out of 1672 total

Mildura CTAF: 118.800

YMIA Melbourne Center (Archives)
Mildura, Victoria, Australia

Feed Status: UP
Listen in your browser - HTML5 player(in browser, HTML5)
Click here to listen with your own player(launches your MP3 player)


YMIA Flight Activity (Flightaware)

Listeners: 1 out of 1672 total

Melbourne Center: 122.100

YMML Twr/App/Center
Melbourne, Victoria, Australia

Feed Status: DOWN
Offline since: 2022-09-19 19:30:06 UTC

YMML 270200Z 19010KT 9999 RA SCT017 BKN020 BKN090 13/11 Q1012

Air Ambulance: 132.750
DSE & Other Company: 119.100
Essendon Tower: 125.100
Inter-Pilot: 123.450
Jetstar Company: 130.925
Melbourne ACD: 127.200
Melbourne Approach: 132.000
Melbourne Centre: 130.300
Melbourne Centre: 128.500
Melbourne Centre: 126.800
Melbourne Centre: 125.800
Melbourne Centre: 125.700
Melbourne Centre: 125.200
Melbourne Centre: 123.750
Melbourne Centre: 122.400
Melbourne Departure: 118.900
Melbourne Departure: 129.400
Melbourne Tower: 120.500
Moorabbin Tower (East): 118.100
Moorabbin Tower (West): 123.000
Police Air Wing: 131.600
Qantas Company: 130.850
Qantas Company: 129.500
Rex Company: 126.450
Royal Victorian Aero Club Company: 128.700
Royal Victorian Aero Club Company: 133.400

YPAD Del/Gnd/Twr/App (Archives)
Adelaide, South Australia, Australia

Feed Status: UP
Listen in your browser - HTML5 player(in browser, HTML5)
Click here to listen with your own player(launches your MP3 player)

YPAD 270200Z 22018KT 9999 SCT032 BKN046 15/09 Q1019

YPAD Flight Activity (Flightaware)

Listeners: 1 out of 1672 total

Adelaide Approach (East of Adelaide): 118.200
Adelaide Approach (East of Adelaide): 130.450
Adelaide Approach (Kangaroo Island): 123.050
Adelaide Approach (North of Adelaide): 128.600
Adelaide Approach (West of Adelaide): 124.200
Adelaide Clearance Delivery: 126.100
Adelaide Ground: 121.700
Adelaide Tower: 120.500

YPAD Gnd/Twr/App/Center (Archives)
Adelaide, South Australia, Australia

Feed Status: UP
Listen in your browser - HTML5 player(in browser, HTML5)
Click here to listen with your own player(launches your MP3 player)

YPAD 270200Z 22018KT 9999 SCT032 BKN046 15/09 Q1019

YPAD Flight Activity (Flightaware)

Listeners: 8 out of 1672 total

Adelaide Approach (East of Adelaide): 118.200
Adelaide Approach (East of Adelaide): 130.450
Adelaide Approach (Kangaroo Island): 123.050
Adelaide Approach (North of Adelaide): 128.600
Adelaide Approach (West of Adelaide): 124.200
Adelaide Clearance Delivery: 126.100
Adelaide Ground: 121.700
Adelaide Tower: 120.500
Flight Watch: 135.750
Melbourne Centre: 124.300
Melbourne Centre ( East of Adelaide): 125.300
Melbourne Centre ( Pt Augusta, Pt Pirie, Whyalla): 123.900
Melbourne Centre (Mildura): 122.100
Melbourne Centre (North of Adelaide): 122.400
Melbourne Centre (Pt Lincoln): 125.900
Melbourne Centre (West of Adelaide ): 127.050

YPDN Gnd/Twr/App/Dep (Archives)
Darwin, Northern Territory, Australia

Feed Status: UP
Listen in your browser - HTML5 player(in browser, HTML5)
Click here to listen with your own player(launches your MP3 player)

YPDN 270130Z 32005KT 9999 SCT030 BKN170 31/22 Q1011

YPDN Flight Activity (Flightaware)

Listeners: 9 out of 1672 total

Darwin Approach: 134.100
Darwin Arrival: 125.200
Darwin Departure: 119.550
Darwin Ground: 121.800
Darwin Tower: 133.100

YPJT Gnd/Twr (Archives)
Perth, Western Australia, Australia

Feed Status: UP
Listen in your browser - HTML5 player(in browser, HTML5)
Click here to listen with your own player(launches your MP3 player)

YPJT 270200Z AUTO 05005KT 9999 // NCD 21/09 Q1022 RF00.0/000.0

YPJT Flight Activity (Flightaware)

Listeners: 3 out of 1672 total

Jandakot Ground: 124.300
Jandakot Tower: 119.400
Jandakot Tower/CTAF: 118.100

YPJT Perth Center (Archives)
Perth, Western Australia, Australia

Feed Status: UP
Listen in your browser - HTML5 player(in browser, HTML5)
Click here to listen with your own player(launches your MP3 player)

YPJT 270200Z AUTO 05005KT 9999 // NCD 21/09 Q1022 RF00.0/000.0

YPJT Flight Activity (Flightaware)

Listeners: 0 out of 1672 total

Perth Center: 135.250

YPMQ CTAF (Archives)
Port Macquarie, New South Wales, Australia

Feed Status: UP
Listen in your browser - HTML5 player(in browser, HTML5)
Click here to listen with your own player(launches your MP3 player)

YPMQ Flight Activity (Flightaware)

Listeners: 1 out of 1672 total

Port Macquarie CTAF/Multicom: 118.100

YPPH Approach #1 (Archives)
Perth, Western Australia, Australia

Feed Status: UP
Listen in your browser - HTML5 player(in browser, HTML5)
Click here to listen with your own player(launches your MP3 player)

YPPH 270200Z 02007KT CAVOK 21/10 Q1022

YPPH Flight Activity (Flightaware)

Listeners: 1 out of 1672 total

Perth Approach: 123.600

YPPH Approach #2 (Archives)
Perth, Western Australia, Australia

Feed Status: UP
Listen in your browser - HTML5 player(in browser, HTML5)
Click here to listen with your own player(launches your MP3 player)

YPPH 270200Z 02007KT CAVOK 21/10 Q1022

YPPH Flight Activity (Flightaware)

Listeners: 0 out of 1672 total

Perth Approach: 123.600

YPPH Departure (Archives)
Perth, Western Australia, Australia

Feed Status: UP
Listen in your browser - HTML5 player(in browser, HTML5)
Click here to listen with your own player(launches your MP3 player)

YPPH 270200Z 02007KT CAVOK 21/10 Q1022

YPPH Flight Activity (Flightaware)

Listeners: 2 out of 1672 total

Perth Departure: 118.700

YPPH Ground (Archives)
Perth, Western Australia, Australia

Feed Status: UP
Listen in your browser - HTML5 player(in browser, HTML5)
Click here to listen with your own player(launches your MP3 player)

YPPH 270200Z 02007KT CAVOK 21/10 Q1022

YPPH Flight Activity (Flightaware)

Listeners: 0 out of 1672 total

Perth Ground: 121.700

YPPH Tower #1 (Archives)
Perth, Western Australia, Australia

Feed Status: UP
Listen in your browser - HTML5 player(in browser, HTML5)
Click here to listen with your own player(launches your MP3 player)

YPPH 270200Z 02007KT CAVOK 21/10 Q1022

YPPH Flight Activity (Flightaware)

Listeners: 2 out of 1672 total

Perth Tower: 127.400

YPPH Tower #2 (Archives)
Perth, Western Australia, Australia

Feed Status: UP
Listen in your browser - HTML5 player(in browser, HTML5)
Click here to listen with your own player(launches your MP3 player)

YPPH 270200Z 02007KT CAVOK 21/10 Q1022

YPPH Flight Activity (Flightaware)

Listeners: 0 out of 1672 total

Perth Tower: 127.400

YRYW 122.5
Raywood, Victoria, Australia

Feed Status: DOWN
Offline since: 2022-08-28 05:50:41 UTC



YRYW 122.7
Raywood, Victoria, Australia

Feed Status: DOWN
Offline since: 2022-08-28 05:50:41 UTC



YRYW 122.9
Raywood, Victoria, Australia

Feed Status: DOWN
Offline since: 2022-08-28 05:50:41 UTC



YRYW CTAF
Raywood, Victoria, Australia

Feed Status: DOWN
Offline since: 2022-08-28 04:50:23 UTC


Raywood CTAF: 119.300

YSBK ATIS (Archives)
Bankstown, New South Wales, Australia

Feed Status: UP
Listen in your browser - HTML5 player(in browser, HTML5)
Click here to listen with your own player(launches your MP3 player)

YSBK Flight Activity (Flightaware)

Listeners: 0 out of 1672 total

Bankstown ATIS: 120.900

YSBK Tower (Archives)
Bankstown, New South Wales, Australia

Feed Status: UP
Listen in your browser - HTML5 player(in browser, HTML5)
Click here to listen with your own player(launches your MP3 player)

YSBK Flight Activity (Flightaware)

Listeners: 4 out of 1672 total

Bankstown Tower: 132.800

Melbourne Center (124.1) (Archives)
Canberra, Australian Capital Territory, Australia

Feed Status: UP
Listen in your browser - HTML5 player(in browser, HTML5)
Click here to listen with your own player(launches your MP3 player)

YSCB 270230Z AUTO 34009KT 9999 // SCT017 16/12 Q1012 RF00.0/001.4

YSCB Flight Activity (Flightaware)

Listeners: 0 out of 1672 total

Melbourne Center: 124.100

Melbourne Center (128.4) (Archives)
Canberra, Australian Capital Territory, Australia

Feed Status: UP
Listen in your browser - HTML5 player(in browser, HTML5)
Click here to listen with your own player(launches your MP3 player)

YSCB 270230Z AUTO 34009KT 9999 // SCT017 16/12 Q1012 RF00.0/001.4

YSCB Flight Activity (Flightaware)

Listeners: 0 out of 1672 total

Melbourne Center: 128.400

YSCB App/Dep (Archives)
Canberra, Australian Capital Territory, Australia

Feed Status: UP
Listen in your browser - HTML5 player(in browser, HTML5)
Click here to listen with your own player(launches your MP3 player)

YSCB 270230Z AUTO 34009KT 9999 // SCT017 16/12 Q1012 RF00.0/001.4

YSCB Flight Activity (Flightaware)

Listeners: 0 out of 1672 total

Canberra Approach/Departure (East): 124.500
Canberra Approach/Departure (West): 125.900

YSCB App/Dep (East) (Archives)
Canberra, Australian Capital Territory, Australia

Feed Status: UP
Listen in your browser - HTML5 player(in browser, HTML5)
Click here to listen with your own player(launches your MP3 player)

YSCB 270230Z AUTO 34009KT 9999 // SCT017 16/12 Q1012 RF00.0/001.4

YSCB Flight Activity (Flightaware)

Listeners: 0 out of 1672 total

Canberra Approach/Departure (East): 124.500

YSCB App/Dep (West) (Archives)
Canberra, Australian Capital Territory, Australia

Feed Status: UP
Listen in your browser - HTML5 player(in browser, HTML5)
Click here to listen with your own player(launches your MP3 player)

YSCB 270230Z AUTO 34009KT 9999 // SCT017 16/12 Q1012 RF00.0/001.4

YSCB Flight Activity (Flightaware)

Listeners: 0 out of 1672 total

Canberra Approach/Departure (West): 125.900

YSCB ATIS (Archives)
Canberra, Australian Capital Territory, Australia

Feed Status: UP
Listen in your browser - HTML5 player(in browser, HTML5)
Click here to listen with your own player(launches your MP3 player)

YSCB 270230Z AUTO 34009KT 9999 // SCT017 16/12 Q1012 RF00.0/001.4

YSCB Flight Activity (Flightaware)

Listeners: 0 out of 1672 total

Canberra ATIS: 127.450

YSCB Tower (Archives)
Canberra, Australian Capital Territory, Australia

Feed Status: UP
Listen in your browser - HTML5 player(in browser, HTML5)
Click here to listen with your own player(launches your MP3 player)

YSCB 270230Z AUTO 34009KT 9999 // SCT017 16/12 Q1012 RF00.0/001.4

YSCB Flight Activity (Flightaware)

Listeners: 0 out of 1672 total

Canberra Tower: 118.700

YSCB Twr/App/Dep (Archives)
Canberra, Australian Capital Territory, Australia

Feed Status: UP
Listen in your browser - HTML5 player(in browser, HTML5)
Click here to listen with your own player(launches your MP3 player)

YSCB 270230Z AUTO 34009KT 9999 // SCT017 16/12 Q1012 RF00.0/001.4

YSCB Flight Activity (Flightaware)

Listeners: 0 out of 1672 total

Canberra Approach/Departure (East): 124.500
Canberra Approach/Departure (West): 125.900
Canberra Tower: 118.700

YSCN Tower/CTAF (Archives)
Camden, New South Wales, Australia

Feed Status: UP
Listen in your browser - HTML5 player(in browser, HTML5)
Click here to listen with your own player(launches your MP3 player)

YSCN Flight Activity (Flightaware)

Listeners: 0 out of 1672 total

Camden Tower/CTAF: 120.100

YSNW Gnd/CTAF/App/Center
Nowra, New South Wales, Australia

Feed Status: DOWN
Offline since: 2022-01-31 23:44:05 UTC


Enroute: 132.300
Nowra Approach: 123.500
Nowra CTAF: 118.850
Nowra Ground: 135.850

Brisbane Center (124.625/YSSY) (Archives)
Sydney, New South Wales, Australia

Feed Status: UP
Listen in your browser - HTML5 player(in browser, HTML5)
Click here to listen with your own player(launches your MP3 player)

YSSY 270200Z 11003KT 9999 FEW040 BKN100 20/14 Q1012

YSSY Flight Activity (Flightaware)

Listeners: 1 out of 1672 total

Brisbane Center: 124.625

Brisbane Center (124.95/YSSY) (Archives)
Sydney, New South Wales, Australia

Feed Status: UP
Listen in your browser - HTML5 player(in browser, HTML5)
Click here to listen with your own player(launches your MP3 player)

YSSY 270200Z 11003KT 9999 FEW040 BKN100 20/14 Q1012

YSSY Flight Activity (Flightaware)

Listeners: 2 out of 1672 total

Brisbane Center: 124.950

Brisbane Center (125.0/YSSY) (Archives)
Sydney, New South Wales, Australia

Feed Status: UP
Listen in your browser - HTML5 player(in browser, HTML5)
Click here to listen with your own player(launches your MP3 player)

YSSY 270200Z 11003KT 9999 FEW040 BKN100 20/14 Q1012

YSSY Flight Activity (Flightaware)

Listeners: 1 out of 1672 total

Brisbane Center: 125.000

Brisbane Center (128.6/YSSY) (Archives)
Sydney, New South Wales, Australia

Feed Status: UP
Listen in your browser - HTML5 player(in browser, HTML5)
Click here to listen with your own player(launches your MP3 player)

YSSY 270200Z 11003KT 9999 FEW040 BKN100 20/14 Q1012

YSSY Flight Activity (Flightaware)

Listeners: 3 out of 1672 total

Brisbane Center: 128.600

YSSY Approach (North/East) (Archives)
Sydney, New South Wales, Australia

Feed Status: UP
Listen in your browser - HTML5 player(in browser, HTML5)
Click here to listen with your own player(launches your MP3 player)

YSSY 270200Z 11003KT 9999 FEW040 BKN100 20/14 Q1012

YSSY Flight Activity (Flightaware)

Listeners: 2 out of 1672 total

Sydney Approach (North/East): 124.400

YSSY Approach (South) (Archives)
Sydney, New South Wales, Australia

Feed Status: UP
Listen in your browser - HTML5 player(in browser, HTML5)
Click here to listen with your own player(launches your MP3 player)

YSSY 270200Z 11003KT 9999 FEW040 BKN100 20/14 Q1012

YSSY Flight Activity (Flightaware)

Listeners: 1 out of 1672 total

Sydney Approach (South/West): 128.300

YSSY ATIS (Archives)
Sydney, New South Wales, Australia

Feed Status: UP
Listen in your browser - HTML5 player(in browser, HTML5)
Click here to listen with your own player(launches your MP3 player)

YSSY 270200Z 11003KT 9999 FEW040 BKN100 20/14 Q1012

YSSY Flight Activity (Flightaware)

Listeners: 1 out of 1672 total

Sydney ATIS: 118.550

YSSY Center (South/West) (Archives)
Sydney, New South Wales, Australia

Feed Status: UP
Listen in your browser - HTML5 player(in browser, HTML5)
Click here to listen with your own player(launches your MP3 player)

YSSY 270200Z 11003KT 9999 FEW040 BKN100 20/14 Q1012

YSSY Flight Activity (Flightaware)

Listeners: 1 out of 1672 total

Sydney Center: 124.550

YSSY Del/Gnd (Archives)
Sydney, New South Wales, Australia

Feed Status: UP
Listen in your browser - HTML5 player(in browser, HTML5)
Click here to listen with your own player(launches your MP3 player)

YSSY 270200Z 11003KT 9999 FEW040 BKN100 20/14 Q1012

YSSY Flight Activity (Flightaware)

Listeners: 2 out of 1672 total

Sydney Clearance Delivery: 133.800
Sydney Ground (East of Rwys 16R/34L): 121.700
Sydney Ground (West of Rwys 16R/34L): 126.500

YSSY Departure (North/East) (Archives)
Sydney, New South Wales, Australia

Feed Status: UP
Listen in your browser - HTML5 player(in browser, HTML5)
Click here to listen with your own player(launches your MP3 player)

YSSY 270200Z 11003KT 9999 FEW040 BKN100 20/14 Q1012

YSSY Flight Activity (Flightaware)

Listeners: 1 out of 1672 total

Sydney Departure (North/East): 123.000

YSSY Departure (South/West) (Archives)
Sydney, New South Wales, Australia

Feed Status: UP
Listen in your browser - HTML5 player(in browser, HTML5)
Click here to listen with your own player(launches your MP3 player)

YSSY 270200Z 11003KT 9999 FEW040 BKN100 20/14 Q1012

YSSY Flight Activity (Flightaware)

Listeners: 1 out of 1672 total

Sydney Departure (Rte S, W and NW): 129.700

YSSY Director (Both)
Sydney, New South Wales, Australia

Feed Status: DOWN
Offline since: 2020-04-14 09:59:06 UTC

YSSY 270200Z 11003KT 9999 FEW040 BKN100 20/14 Q1012

Sydney Director (East): 125.300
Sydney Director (West): 126.100

YSSY Director (East) (Archives)
Sydney, New South Wales, Australia

Feed Status: UP
Listen in your browser - HTML5 player(in browser, HTML5)
Click here to listen with your own player(launches your MP3 player)

YSSY 270200Z 11003KT 9999 FEW040 BKN100 20/14 Q1012

YSSY Flight Activity (Flightaware)

Listeners: 2 out of 1672 total

Sydney Director (East): 125.300

YSSY Tower (Both) (Archives)
Sydney, New South Wales, Australia

Feed Status: UP
Listen in your browser - HTML5 player(in browser, HTML5)
Click here to listen with your own player(launches your MP3 player)

YSSY 270200Z 11003KT 9999 FEW040 BKN100 20/14 Q1012

YSSY Flight Activity (Flightaware)

Listeners: 5 out of 1672 total

Sydney Tower (Rwy 16L/34R): 124.700
Sydney Tower (Rwy 16R/34L, Rwy 07/25): 120.500

YSSY Tower (Rwy 16L/34R) (Archives)
Sydney, New South Wales, Australia

Feed Status: UP
Listen in your browser - HTML5 player(in browser, HTML5)
Click here to listen with your own player(launches your MP3 player)

YSSY 270200Z 11003KT 9999 FEW040 BKN100 20/14 Q1012

YSSY Flight Activity (Flightaware)

Listeners: 2 out of 1672 total

Sydney Tower (Rwy 16L/34R): 124.700

YSSY Tower (Rwys 16R/34L,7/25) (Archives)
Sydney, New South Wales, Australia

Feed Status: UP
Listen in your browser - HTML5 player(in browser, HTML5)
Click here to listen with your own player(launches your MP3 player)

YSSY 270200Z 11003KT 9999 FEW040 BKN100 20/14 Q1012

YSSY Flight Activity (Flightaware)

Listeners: 2 out of 1672 total

Sydney Tower (Rwy 16R/34L, Rwy 07/25): 120.500

YSTW Gnd/Twr/Center (Archives)
Tamworth, New South Wales, Australia

Feed Status: UP
Listen in your browser - HTML5 player(in browser, HTML5)
Click here to listen with your own player(launches your MP3 player)

YSTW 270200Z AUTO 31005KT 250V360 9999 // NCD 23/02 Q1013 RF00.0/000.0

YSTW Flight Activity (Flightaware)

Listeners: 0 out of 1672 total

Brisbane Center: 127.100
Tamworth Ground: 121.900
Tamworth Tower: 118.250
Tamworth Tower: 119.400

YWBN CTAF/Center (Archives)
Wedderburn, New South Wales, Australia

Feed Status: UP
Listen in your browser - HTML5 player(in browser, HTML5)
Click here to listen with your own player(launches your MP3 player)

YWBN Flight Activity (Flightaware)

Listeners: 0 out of 1672 total

Sydney Center: 124.550
Wedderburn CTAF/Multicom: 122.550